<?xml version="1.0" encoding="UTF-8" standalone="no" ?>
<gpx xmlns="http://www.topografix.com/GPX/1/1" xmlns:xsi="http://www.w3.org/2001/XMLSchema-instance" xsi:schemaLocation="http://www.topografix.com/GPX/1/1 http://www.topografix.com/GPX/1/1/gpx.xsd" version="1.1" creator="VisuGPX - https://www.visugpx.com">
  <metadata>
    <name>toulouse buzet sur tarn</name>
    <desc><![CDATA[départ piste cyclable hers. après trop de circulation sur l'union, saint jean castelmaurou.]]></desc>
  </metadata>
  <trk>
    <name><![CDATA[Buzet sur tarn7:41]]></name>
    <trkseg>
      <trkpt lat="43.58923" lon="1.47793">
        <ele>184.23</ele>
        <time>2017-10-14T08:13:26Z</time>
      </trkpt>
      <trkpt lat="43.58922" lon="1.47796">
        <ele>184.23</ele>
        <time>2017-10-14T08:13:27Z</time>
      </trkpt>
      <trkpt lat="43.58921" lon="1.47799">
        <ele>184.23</ele>
        <time>2017-10-14T08:13:28Z</time>
      </trkpt>
      <trkpt lat="43.58919" lon="1.47809">
        <ele>184.23</ele>
        <time>2017-10-14T08:13:31Z</time>
      </trkpt>
      <trkpt lat="43.58922" lon="1.47813">
        <ele>184.23</ele>
        <time>2017-10-14T08:13:32Z</time>
      </trkpt>
      <trkpt lat="43.58929" lon="1.47827">
        <ele>184.23</ele>
        <time>2017-10-14T08:13:35Z</time>
      </trkpt>
      <trkpt lat="43.58933" lon="1.47839">
        <ele>182.79</ele>
        <time>2017-10-14T08:13:37Z</time>
      </trkpt>
      <trkpt lat="43.58934" lon="1.47846">
        <ele>182.79</ele>
        <time>2017-10-14T08:13:38Z</time>
      </trkpt>
      <trkpt lat="43.58934" lon="1.47853">
        <ele>181.83</ele>
        <time>2017-10-14T08:13:39Z</time>
      </trkpt>
      <trkpt lat="43.58933" lon="1.47872">
        <ele>180.87</ele>
        <time>2017-10-14T08:13:42Z</time>
      </trkpt>
      <trkpt lat="43.58936" lon="1.47879">
        <ele>181.83</ele>
        <time>2017-10-14T08:13:43Z</time>
      </trkpt>
      <trkpt lat="43.58938" lon="1.47884">
        <ele>182.79</ele>
        <time>2017-10-14T08:13:44Z</time>
      </trkpt>
      <trkpt lat="43.58941" lon="1.47889">
        <ele>182.79</ele>
        <time>2017-10-14T08:13:45Z</time>
      </trkpt>
      <trkpt lat="43.58944" lon="1.47895">
        <ele>182.79</ele>
        <time>2017-10-14T08:13:46Z</time>
      </trkpt>
      <trkpt lat="43.58947" lon="1.47908">
        <ele>181.83</ele>
        <time>2017-10-14T08:13:48Z</time>
      </trkpt>
      <trkpt lat="43.58955" lon="1.47982">
        <ele>179.9</ele>
        <time>2017-10-14T08:13:57Z</time>
      </trkpt>
      <trkpt lat="43.58957" lon="1.48">
        <ele>177.98</ele>
        <time>2017-10-14T08:14:00Z</time>
      </trkpt>
      <trkpt lat="43.58959" lon="1.48005">
        <ele>177.98</ele>
        <time>2017-10-14T08:14:01Z</time>
      </trkpt>
      <trkpt lat="43.58963" lon="1.48008">
        <ele>177.02</ele>
        <time>2017-10-14T08:14:02Z</time>
      </trkpt>
      <trkpt lat="43.58968" lon="1.48012">
        <ele>177.02</ele>
        <time>2017-10-14T08:14:03Z</time>
      </trkpt>
      <trkpt lat="43.58973" lon="1.48015">
        <ele>176.06</ele>
        <time>2017-10-14T08:14:04Z</time>
      </trkpt>
      <trkpt lat="43.58979" lon="1.48017">
        <ele>176.06</ele>
        <time>2017-10-14T08:14:05Z</time>
      </trkpt>
      <trkpt lat="43.59005" lon="1.48029">
        <ele>174.14</ele>
        <time>2017-10-14T08:14:10Z</time>
      </trkpt>
      <trkpt lat="43.5901" lon="1.48029">
        <ele>174.14</ele>
        <time>2017-10-14T08:14:11Z</time>
      </trkpt>
      <trkpt lat="43.59018" lon="1.48026">
        <ele>174.14</ele>
        <time>2017-10-14T08:14:13Z</time>
      </trkpt>
      <trkpt lat="43.59067" lon="1.47993">
        <ele>172.21</ele>
        <time>2017-10-14T08:14:24Z</time>
      </trkpt>
      <trkpt lat="43.59081" lon="1.47985">
        <ele>172.21</ele>
        <time>2017-10-14T08:14:27Z</time>
      </trkpt>
      <trkpt lat="43.59085" lon="1.47984">
        <ele>172.21</ele>
        <time>2017-10-14T08:14:28Z</time>
      </trkpt>
      <trkpt lat="43.59088" lon="1.47983">
        <ele>172.21</ele>
        <time>2017-10-14T08:14:29Z</time>
      </trkpt>
      <trkpt lat="43.59091" lon="1.47984">
        <ele>172.21</ele>
        <time>2017-10-14T08:14:30Z</time>
      </trkpt>
      <trkpt lat="43.59093" lon="1.47986">
        <ele>172.21</ele>
        <time>2017-10-14T08:14:31Z</time>
      </trkpt>
      <trkpt lat="43.59096" lon="1.47988">
        <ele>172.21</ele>
        <time>2017-10-14T08:14:32Z</time>
      </trkpt>
      <trkpt lat="43.591" lon="1.4799">
        <ele>172.21</ele>
        <time>2017-10-14T08:14:33Z</time>
      </trkpt>
      <trkpt lat="43.59123" lon="1.48004">
        <ele>172.21</ele>
        <time>2017-10-14T08:14:40Z</time>
      </trkpt>
      <trkpt lat="43.59123" lon="1.48008">
        <ele>172.21</ele>
        <time>2017-10-14T08:14:41Z</time>
      </trkpt>
      <trkpt lat="43.59122" lon="1.48011">
        <ele>172.21</ele>
        <time>2017-10-14T08:14:42Z</time>
      </trkpt>
      <trkpt lat="43.5912" lon="1.48015">
        <ele>172.21</ele>
        <time>2017-10-14T08:14:43Z</time>
      </trkpt>
      <trkpt lat="43.59119" lon="1.4802">
        <ele>172.21</ele>
        <time>2017-10-14T08:14:44Z</time>
      </trkpt>
      <trkpt lat="43.59101" lon="1.48077">
        <ele>170.77</ele>
        <time>2017-10-14T08:14:53Z</time>
      </trkpt>
      <trkpt lat="43.59071" lon="1.48175">
        <ele>168.85</ele>
        <time>2017-10-14T08:15:04Z</time>
      </trkpt>
      <trkpt lat="43.59045" lon="1.48263">
        <ele>165.96</ele>
        <time>2017-10-14T08:15:14Z</time>
      </trkpt>
      <trkpt lat="43.59038" lon="1.48288">
        <ele>163.08</ele>
        <time>2017-10-14T08:15:20Z</time>
      </trkpt>
      <trkpt lat="43.5902" lon="1.48348">
        <ele>162.12</ele>
        <time>2017-10-14T08:15:29Z</time>
      </trkpt>
      <trkpt lat="43.59006" lon="1.48391">
        <ele>162.12</ele>
        <time>2017-10-14T08:15:35Z</time>
      </trkpt>
      <trkpt lat="43.59004" lon="1.48397">
        <ele>161.16</ele>
        <time>2017-10-14T08:15:36Z</time>
      </trkpt>
      <trkpt lat="43.59" lon="1.48402">
        <ele>161.16</ele>
        <time>2017-10-14T08:15:37Z</time>
      </trkpt>
      <trkpt lat="43.58996" lon="1.48405">
        <ele>161.16</ele>
        <time>2017-10-14T08:15:38Z</time>
      </trkpt>
      <trkpt lat="43.58991" lon="1.48406">
        <ele>161.16</ele>
        <time>2017-10-14T08:15:39Z</time>
      </trkpt>
      <trkpt lat="43.58976" lon="1.48416">
        <ele>161.16</ele>
        <time>2017-10-14T08:15:43Z</time>
      </trkpt>
      <trkpt lat="43.5897" lon="1.48435">
        <ele>160.2</ele>
        <time>2017-10-14T08:15:46Z</time>
      </trkpt>
      <trkpt lat="43.58964" lon="1.48461">
        <ele>159.24</ele>
        <time>2017-10-14T08:15:50Z</time>
      </trkpt>
      <trkpt lat="43.58959" lon="1.485">
        <ele>157.79</ele>
        <time>2017-10-14T08:15:56Z</time>
      </trkpt>
      <trkpt lat="43.5896" lon="1.48507">
        <ele>157.79</ele>
        <time>2017-10-14T08:15:57Z</time>
      </trkpt>
      <trkpt lat="43.58961" lon="1.48515">
        <ele>157.79</ele>
        <time>2017-10-14T08:15:58Z</time>
      </trkpt>
      <trkpt lat="43.58964" lon="1.48539">
        <ele>156.83</ele>
        <time>2017-10-14T08:16:01Z</time>
      </trkpt>
      <trkpt lat="43.58965" lon="1.48547">
        <ele>156.83</ele>
        <time>2017-10-14T08:16:02Z</time>
      </trkpt>
      <trkpt lat="43.58964" lon="1.48555">
        <ele>156.83</ele>
        <time>2017-10-14T08:16:03Z</time>
      </trkpt>
      <trkpt lat="43.58962" lon="1.48562">
        <ele>156.83</ele>
        <time>2017-10-14T08:16:04Z</time>
      </trkpt>
      <trkpt lat="43.58961" lon="1.4857">
        <ele>156.83</ele>
        <time>2017-10-14T08:16:05Z</time>
      </trkpt>
      <trkpt lat="43.58959" lon="1.48578">
        <ele>156.83</ele>
        <time>2017-10-14T08:16:06Z</time>
      </trkpt>
      <trkpt lat="43.58957" lon="1.48586">
        <ele>155.87</ele>
        <time>2017-10-14T08:16:07Z</time>
      </trkpt>
      <trkpt lat="43.58954" lon="1.48595">
        <ele>155.87</ele>
        <time>2017-10-14T08:16:08Z</time>
      </trkpt>
      <trkpt lat="43.58933" lon="1.48673">
        <ele>152.99</ele>
        <time>2017-10-14T08:16:17Z</time>
      </trkpt>
      <trkpt lat="43.58932" lon="1.48682">
        <ele>152.99</ele>
        <time>2017-10-14T08:16:18Z</time>
      </trkpt>
      <trkpt lat="43.58932" lon="1.48691">
        <ele>152.99</ele>
        <time>2017-10-14T08:16:19Z</time>
      </trkpt>
      <trkpt lat="43.58937" lon="1.48745">
        <ele>151.06</ele>
        <time>2017-10-14T08:16:25Z</time>
      </trkpt>
      <trkpt lat="43.58963" lon="1.48818">
        <ele>148.18</ele>
        <time>2017-10-14T08:16:34Z</time>
      </trkpt>
      <trkpt lat="43.58985" lon="1.48884">
        <ele>144.82</ele>
        <time>2017-10-14T08:16:41Z</time>
      </trkpt>
      <trkpt lat="43.58995" lon="1.48919">
        <ele>142.89</ele>
        <time>2017-10-14T08:16:45Z</time>
      </trkpt>
      <trkpt lat="43.58996" lon="1.48926">
        <ele>141.93</ele>
        <time>2017-10-14T08:16:46Z</time>
      </trkpt>
      <trkpt lat="43.58995" lon="1.48932">
        <ele>141.93</ele>
        <time>2017-10-14T08:16:47Z</time>
      </trkpt>
      <trkpt lat="43.58996" lon="1.48946">
        <ele>140.97</ele>
        <time>2017-10-14T08:16:50Z</time>
      </trkpt>
      <trkpt lat="43.58998" lon="1.4895">
        <ele>140.97</ele>
        <time>2017-10-14T08:16:51Z</time>
      </trkpt>
      <trkpt lat="43.59001" lon="1.48954">
        <ele>140.01</ele>
        <time>2017-10-14T08:16:52Z</time>
      </trkpt>
      <trkpt lat="43.59005" lon="1.48956">
        <ele>140.01</ele>
        <time>2017-10-14T08:16:53Z</time>
      </trkpt>
      <trkpt lat="43.59008" lon="1.48959">
        <ele>140.01</ele>
        <time>2017-10-14T08:16:54Z</time>
      </trkpt>
      <trkpt lat="43.59011" lon="1.48963">
        <ele>140.01</ele>
        <time>2017-10-14T08:16:55Z</time>
      </trkpt>
      <trkpt lat="43.59014" lon="1.48967">
        <ele>139.05</ele>
        <time>2017-10-14T08:16:56Z</time>
      </trkpt>
      <trkpt lat="43.59016" lon="1.48971">
        <ele>139.05</ele>
        <time>2017-10-14T08:16:57Z</time>
      </trkpt>
      <trkpt lat="43.59019" lon="1.48975">
        <ele>139.05</ele>
        <time>2017-10-14T08:16:58Z</time>
      </trkpt>
      <trkpt lat="43.59021" lon="1.48981">
        <ele>139.05</ele>
        <time>2017-10-14T08:16:59Z</time>
      </trkpt>
      <trkpt lat="43.59037" lon="1.49032">
        <ele>138.09</ele>
        <time>2017-10-14T08:17:06Z</time>
      </trkpt>
      <trkpt lat="43.59038" lon="1.49041">
        <ele>138.09</ele>
        <time>2017-10-14T08:17:07Z</time>
      </trkpt>
      <trkpt lat="43.59038" lon="1.49049">
        <ele>138.09</ele>
        <time>2017-10-14T08:17:08Z</time>
      </trkpt>
      <trkpt lat="43.59035" lon="1.49064">
        <ele>137.13</ele>
        <time>2017-10-14T08:17:10Z</time>
      </trkpt>
      <trkpt lat="43.59036" lon="1.49071">
        <ele>137.13</ele>
        <time>2017-10-14T08:17:11Z</time>
      </trkpt>
      <trkpt lat="43.59039" lon="1.49078">
        <ele>137.13</ele>
        <time>2017-10-14T08:17:12Z</time>
      </trkpt>
      <trkpt lat="43.59043" lon="1.49083">
        <ele>137.13</ele>
        <time>2017-10-14T08:17:13Z</time>
      </trkpt>
      <trkpt lat="43.59048" lon="1.49086">
        <ele>136.16</ele>
        <time>2017-10-14T08:17:14Z</time>
      </trkpt>
      <trkpt lat="43.59054" lon="1.49086">
        <ele>136.16</ele>
        <time>2017-10-14T08:17:15Z</time>
      </trkpt>
      <trkpt lat="43.59059" lon="1.49085">
        <ele>136.16</ele>
        <time>2017-10-14T08:17:16Z</time>
      </trkpt>
      <trkpt lat="43.59064" lon="1.49081">
        <ele>136.16</ele>
        <time>2017-10-14T08:17:17Z</time>
      </trkpt>
      <trkpt lat="43.59068" lon="1.49076">
        <ele>135.2</ele>
        <time>2017-10-14T08:17:18Z</time>
      </trkpt>
      <trkpt lat="43.59072" lon="1.49071">
        <ele>135.2</ele>
        <time>2017-10-14T08:17:19Z</time>
      </trkpt>
      <trkpt lat="43.59076" lon="1.49066">
        <ele>135.2</ele>
        <time>2017-10-14T08:17:20Z</time>
      </trkpt>
      <trkpt lat="43.59081" lon="1.49062">
        <ele>135.2</ele>
        <time>2017-10-14T08:17:21Z</time>
      </trkpt>
      <trkpt lat="43.59086" lon="1.49059">
        <ele>135.2</ele>
        <time>2017-10-14T08:17:22Z</time>
      </trkpt>
      <trkpt lat="43.59164" lon="1.49043">
        <ele>135.2</ele>
        <time>2017-10-14T08:17:35Z</time>
      </trkpt>
      <trkpt lat="43.59171" lon="1.49043">
        <ele>135.2</ele>
        <time>2017-10-14T08:17:36Z</time>
      </trkpt>
      <trkpt lat="43.59184" lon="1.49045">
        <ele>135.2</ele>
        <time>2017-10-14T08:17:38Z</time>
      </trkpt>
      <trkpt lat="43.59265" lon="1.49065">
        <ele>133.76</ele>
        <time>2017-10-14T08:17:51Z</time>
      </trkpt>
      <trkpt lat="43.59314" lon="1.49099">
        <ele>133.76</ele>
        <time>2017-10-14T08:18:00Z</time>
      </trkpt>
      <trkpt lat="43.59361" lon="1.49149">
        <ele>133.76</ele>
        <time>2017-10-14T08:18:10Z</time>
      </trkpt>
      <trkpt lat="43.59372" lon="1.49162">
        <ele>133.76</ele>
        <time>2017-10-14T08:18:16Z</time>
      </trkpt>
      <trkpt lat="43.59371" lon="1.49162">
        <ele>136.16</ele>
        <time>2017-10-14T08:18:58Z</time>
      </trkpt>
      <trkpt lat="43.59379" lon="1.49165">
        <ele>136.16</ele>
        <time>2017-10-14T08:19:05Z</time>
      </trkpt>
      <trkpt lat="43.59383" lon="1.49166">
        <ele>136.16</ele>
        <time>2017-10-14T08:19:16Z</time>
      </trkpt>
      <trkpt lat="43.5939" lon="1.49163">
        <ele>136.16</ele>
        <time>2017-10-14T08:19:21Z</time>
      </trkpt>
      <trkpt lat="43.59405" lon="1.49149">
        <ele>136.16</ele>
        <time>2017-10-14T08:19:29Z</time>
      </trkpt>
      <trkpt lat="43.5941" lon="1.49147">
        <ele>136.16</ele>
        <time>2017-10-14T08:19:30Z</time>
      </trkpt>
      <trkpt lat="43.59415" lon="1.49146">
        <ele>136.16</ele>
        <time>2017-10-14T08:19:31Z</time>
      </trkpt>
      <trkpt lat="43.5943" lon="1.49142">
        <ele>135.2</ele>
        <time>2017-10-14T08:19:34Z</time>
      </trkpt>
      <trkpt lat="43.59441" lon="1.49142">
        <ele>135.2</ele>
        <time>2017-10-14T08:19:36Z</time>
      </trkpt>
      <trkpt lat="43.59446" lon="1.49144">
        <ele>135.2</ele>
        <time>2017-10-14T08:19:37Z</time>
      </trkpt>
      <trkpt lat="43.59451" lon="1.49148">
        <ele>133.76</ele>
        <time>2017-10-14T08:19:38Z</time>
      </trkpt>
      <trkpt lat="43.59455" lon="1.49153">
        <ele>133.76</ele>
        <time>2017-10-14T08:19:39Z</time>
      </trkpt>
      <trkpt lat="43.59467" lon="1.49166">
        <ele>132.8</ele>
        <time>2017-10-14T08:19:42Z</time>
      </trkpt>
      <trkpt lat="43.59485" lon="1.49178">
        <ele>132.8</ele>
        <time>2017-10-14T08:19:46Z</time>
      </trkpt>
      <trkpt lat="43.59495" lon="1.49182">
        <ele>132.8</ele>
        <time>2017-10-14T08:19:48Z</time>
      </trkpt>
      <trkpt lat="43.59523" lon="1.49189">
        <ele>132.8</ele>
        <time>2017-10-14T08:19:54Z</time>
      </trkpt>
      <trkpt lat="43.59561" lon="1.49176">
        <ele>132.8</ele>
        <time>2017-10-14T08:20:01Z</time>
      </trkpt>
      <trkpt lat="43.59601" lon="1.49163">
        <ele>132.8</ele>
        <time>2017-10-14T08:20:08Z</time>
      </trkpt>
      <trkpt lat="43.59636" lon="1.49151">
        <ele>132.8</ele>
        <time>2017-10-14T08:20:14Z</time>
      </trkpt>
      <trkpt lat="43.59663" lon="1.49142">
        <ele>132.8</ele>
        <time>2017-10-14T08:20:19Z</time>
      </trkpt>
      <trkpt lat="43.59702" lon="1.4913">
        <ele>131.84</ele>
        <time>2017-10-14T08:20:29Z</time>
      </trkpt>
      <trkpt lat="43.59704" lon="1.49129">
        <ele>131.84</ele>
        <time>2017-10-14T08:20:30Z</time>
      </trkpt>
      <trkpt lat="43.59731" lon="1.49122">
        <ele>131.84</ele>
        <time>2017-10-14T08:20:40Z</time>
      </trkpt>
      <trkpt lat="43.59743" lon="1.49117">
        <ele>131.84</ele>
        <time>2017-10-14T08:20:46Z</time>
      </trkpt>
      <trkpt lat="43.59778" lon="1.49108">
        <ele>131.84</ele>
        <time>2017-10-14T08:20:56Z</time>
      </trkpt>
      <trkpt lat="43.59832" lon="1.49087">
        <ele>130.88</ele>
        <time>2017-10-14T08:21:06Z</time>
      </trkpt>
      <trkpt lat="43.59884" lon="1.49062">
        <ele>130.88</ele>
        <time>2017-10-14T08:21:15Z</time>
      </trkpt>
      <trkpt lat="43.59928" lon="1.49048">
        <ele>130.88</ele>
        <time>2017-10-14T08:21:22Z</time>
      </trkpt>
      <trkpt lat="43.5999" lon="1.48991">
        <ele>129.92</ele>
        <time>2017-10-14T08:21:34Z</time>
      </trkpt>
      <trkpt lat="43.60055" lon="1.48892">
        <ele>129.92</ele>
        <time>2017-10-14T08:21:49Z</time>
      </trkpt>
      <trkpt lat="43.60117" lon="1.48797">
        <ele>130.88</ele>
        <time>2017-10-14T08:22:03Z</time>
      </trkpt>
      <trkpt lat="43.60182" lon="1.48704">
        <ele>129.92</ele>
        <time>2017-10-14T08:22:17Z</time>
      </trkpt>
      <trkpt lat="43.60243" lon="1.48636">
        <ele>129.92</ele>
        <time>2017-10-14T08:22:29Z</time>
      </trkpt>
      <trkpt lat="43.60264" lon="1.48613">
        <ele>129.92</ele>
        <time>2017-10-14T08:22:33Z</time>
      </trkpt>
      <trkpt lat="43.60364" lon="1.48525">
        <ele>129.92</ele>
        <time>2017-10-14T08:22:51Z</time>
      </trkpt>
      <trkpt lat="43.60448" lon="1.48461">
        <ele>130.88</ele>
        <time>2017-10-14T08:23:06Z</time>
      </trkpt>
      <trkpt lat="43.60511" lon="1.48436">
        <ele>131.84</ele>
        <time>2017-10-14T08:23:18Z</time>
      </trkpt>
      <trkpt lat="43.60519" lon="1.48435">
        <ele>131.84</ele>
        <time>2017-10-14T08:23:20Z</time>
      </trkpt>
      <trkpt lat="43.60535" lon="1.48437">
        <ele>131.84</ele>
        <time>2017-10-14T08:23:23Z</time>
      </trkpt>
      <trkpt lat="43.60595" lon="1.48424">
        <ele>130.88</ele>
        <time>2017-10-14T08:23:33Z</time>
      </trkpt>
      <trkpt lat="43.60655" lon="1.48391">
        <ele>130.88</ele>
        <time>2017-10-14T08:23:44Z</time>
      </trkpt>
      <trkpt lat="43.60663" lon="1.48391">
        <ele>130.88</ele>
        <time>2017-10-14T08:23:46Z</time>
      </trkpt>
      <trkpt lat="43.60666" lon="1.48394">
        <ele>130.88</ele>
        <time>2017-10-14T08:23:47Z</time>
      </trkpt>
      <trkpt lat="43.60669" lon="1.48398">
        <ele>130.88</ele>
        <time>2017-10-14T08:23:48Z</time>
      </trkpt>
      <trkpt lat="43.60672" lon="1.48401">
        <ele>130.88</ele>
        <time>2017-10-14T08:23:49Z</time>
      </trkpt>
      <trkpt lat="43.60675" lon="1.48403">
        <ele>130.88</ele>
        <time>2017-10-14T08:23:50Z</time>
      </trkpt>
      <trkpt lat="43.60677" lon="1.48403">
        <ele>131.84</ele>
        <time>2017-10-14T08:23:51Z</time>
      </trkpt>
      <trkpt lat="43.60679" lon="1.48404">
        <ele>131.84</ele>
        <time>2017-10-14T08:23:52Z</time>
      </trkpt>
      <trkpt lat="43.60685" lon="1.48402">
        <ele>131.84</ele>
        <time>2017-10-14T08:23:55Z</time>
      </trkpt>
      <trkpt lat="43.60706" lon="1.48395">
        <ele>131.84</ele>
        <time>2017-10-14T08:24:02Z</time>
      </trkpt>
      <trkpt lat="43.60729" lon="1.48393">
        <ele>131.84</ele>
        <time>2017-10-14T08:24:07Z</time>
      </trkpt>
      <trkpt lat="43.60796" lon="1.48393">
        <ele>130.88</ele>
        <time>2017-10-14T08:24:18Z</time>
      </trkpt>
      <trkpt lat="43.60856" lon="1.48397">
        <ele>130.88</ele>
        <time>2017-10-14T08:24:27Z</time>
      </trkpt>
      <trkpt lat="43.6093" lon="1.48408">
        <ele>129.92</ele>
        <time>2017-10-14T08:24:38Z</time>
      </trkpt>
      <trkpt lat="43.60996" lon="1.48411">
        <ele>129.92</ele>
        <time>2017-10-14T08:24:48Z</time>
      </trkpt>
      <trkpt lat="43.61028" lon="1.48412">
        <ele>129.92</ele>
        <time>2017-10-14T08:24:53Z</time>
      </trkpt>
      <trkpt lat="43.61091" lon="1.48407">
        <ele>128.95</ele>
        <time>2017-10-14T08:25:03Z</time>
      </trkpt>
      <trkpt lat="43.61104" lon="1.48406">
        <ele>128.95</ele>
        <time>2017-10-14T08:25:05Z</time>
      </trkpt>
      <trkpt lat="43.61175" lon="1.4839">
        <ele>128.95</ele>
        <time>2017-10-14T08:25:16Z</time>
      </trkpt>
      <trkpt lat="43.61271" lon="1.48362">
        <ele>128.95</ele>
        <time>2017-10-14T08:25:31Z</time>
      </trkpt>
      <trkpt lat="43.6129" lon="1.48355">
        <ele>128.95</ele>
        <time>2017-10-14T08:25:34Z</time>
      </trkpt>
      <trkpt lat="43.61348" lon="1.48337">
        <ele>128.95</ele>
        <time>2017-10-14T08:25:43Z</time>
      </trkpt>
      <trkpt lat="43.61415" lon="1.48317">
        <ele>128.95</ele>
        <time>2017-10-14T08:25:53Z</time>
      </trkpt>
      <trkpt lat="43.61487" lon="1.48297">
        <ele>128.95</ele>
        <time>2017-10-14T08:26:04Z</time>
      </trkpt>
      <trkpt lat="43.61563" lon="1.48271">
        <ele>127.99</ele>
        <time>2017-10-14T08:26:16Z</time>
      </trkpt>
      <trkpt lat="43.61649" lon="1.48246">
        <ele>127.99</ele>
        <time>2017-10-14T08:26:29Z</time>
      </trkpt>
      <trkpt lat="43.61716" lon="1.48224">
        <ele>127.99</ele>
        <time>2017-10-14T08:26:40Z</time>
      </trkpt>
      <trkpt lat="43.6176" lon="1.48207">
        <ele>127.99</ele>
        <time>2017-10-14T08:26:49Z</time>
      </trkpt>
      <trkpt lat="43.61771" lon="1.48203">
        <ele>127.99</ele>
        <time>2017-10-14T08:26:51Z</time>
      </trkpt>
      <trkpt lat="43.61789" lon="1.48195">
        <ele>127.99</ele>
        <time>2017-10-14T08:26:54Z</time>
      </trkpt>
      <trkpt lat="43.61873" lon="1.48172">
        <ele>127.99</ele>
        <time>2017-10-14T08:27:07Z</time>
      </trkpt>
      <trkpt lat="43.61912" lon="1.48162">
        <ele>127.99</ele>
        <time>2017-10-14T08:27:13Z</time>
      </trkpt>
      <trkpt lat="43.61966" lon="1.48143">
        <ele>127.99</ele>
        <time>2017-10-14T08:27:24Z</time>
      </trkpt>
      <trkpt lat="43.61987" lon="1.48133">
        <ele>127.99</ele>
        <time>2017-10-14T08:27:28Z</time>
      </trkpt>
      <trkpt lat="43.62008" lon="1.48125">
        <ele>127.99</ele>
        <time>2017-10-14T08:27:32Z</time>
      </trkpt>
      <trkpt lat="43.62028" lon="1.48117">
        <ele>127.99</ele>
        <time>2017-10-14T08:27:36Z</time>
      </trkpt>
      <trkpt lat="43.62052" lon="1.48107">
        <ele>127.99</ele>
        <time>2017-10-14T08:27:41Z</time>
      </trkpt>
      <trkpt lat="43.62105" lon="1.48089">
        <ele>127.99</ele>
        <time>2017-10-14T08:27:50Z</time>
      </trkpt>
      <trkpt lat="43.62111" lon="1.48086">
        <ele>127.99</ele>
        <time>2017-10-14T08:27:51Z</time>
      </trkpt>
      <trkpt lat="43.62126" lon="1.48083">
        <ele>127.99</ele>
        <time>2017-10-14T08:27:53Z</time>
      </trkpt>
      <trkpt lat="43.62162" lon="1.48076">
        <ele>127.99</ele>
        <time>2017-10-14T08:27:57Z</time>
      </trkpt>
      <trkpt lat="43.6226" lon="1.48036">
        <ele>127.99</ele>
        <time>2017-10-14T08:28:11Z</time>
      </trkpt>
      <trkpt lat="43.62308" lon="1.48008">
        <ele>127.99</ele>
        <time>2017-10-14T08:28:19Z</time>
      </trkpt>
      <trkpt lat="43.62337" lon="1.47987">
        <ele>127.99</ele>
        <time>2017-10-14T08:28:24Z</time>
      </trkpt>
      <trkpt lat="43.62343" lon="1.47984">
        <ele>127.99</ele>
        <time>2017-10-14T08:28:25Z</time>
      </trkpt>
      <trkpt lat="43.62416" lon="1.47962">
        <ele>127.03</ele>
        <time>2017-10-14T08:28:36Z</time>
      </trkpt>
      <trkpt lat="43.62493" lon="1.47937">
        <ele>127.03</ele>
        <time>2017-10-14T08:28:48Z</time>
      </trkpt>
      <trkpt lat="43.62539" lon="1.47913">
        <ele>127.03</ele>
        <time>2017-10-14T08:28:57Z</time>
      </trkpt>
      <trkpt lat="43.62542" lon="1.47911">
        <ele>127.03</ele>
        <time>2017-10-14T08:28:58Z</time>
      </trkpt>
      <trkpt lat="43.62546" lon="1.47909">
        <ele>127.03</ele>
        <time>2017-10-14T08:28:59Z</time>
      </trkpt>
      <trkpt lat="43.62549" lon="1.47906">
        <ele>127.03</ele>
        <time>2017-10-14T08:29:00Z</time>
      </trkpt>
      <trkpt lat="43.62553" lon="1.47903">
        <ele>127.03</ele>
        <time>2017-10-14T08:29:01Z</time>
      </trkpt>
      <trkpt lat="43.62556" lon="1.479">
        <ele>127.03</ele>
        <time>2017-10-14T08:29:02Z</time>
      </trkpt>
      <trkpt lat="43.62559" lon="1.47896">
        <ele>127.03</ele>
        <time>2017-10-14T08:29:03Z</time>
      </trkpt>
      <trkpt lat="43.62563" lon="1.47891">
        <ele>127.03</ele>
        <time>2017-10-14T08:29:04Z</time>
      </trkpt>
      <trkpt lat="43.62566" lon="1.47885">
        <ele>127.03</ele>
        <time>2017-10-14T08:29:05Z</time>
      </trkpt>
      <trkpt lat="43.62568" lon="1.47879">
        <ele>127.03</ele>
        <time>2017-10-14T08:29:06Z</time>
      </trkpt>
      <trkpt lat="43.6257" lon="1.47872">
        <ele>127.03</ele>
        <time>2017-10-14T08:29:07Z</time>
      </trkpt>
      <trkpt lat="43.62582" lon="1.47859">
        <ele>127.99</ele>
        <time>2017-10-14T08:29:12Z</time>
      </trkpt>
      <trkpt lat="43.62603" lon="1.47834">
        <ele>127.99</ele>
        <time>2017-10-14T08:29:18Z</time>
      </trkpt>
      <trkpt lat="43.62628" lon="1.47783">
        <ele>127.99</ele>
        <time>2017-10-14T08:29:27Z</time>
      </trkpt>
      <trkpt lat="43.6264" lon="1.47768">
        <ele>128.95</ele>
        <time>2017-10-14T08:29:34Z</time>
      </trkpt>
      <trkpt lat="43.62662" lon="1.47761">
        <ele>129.92</ele>
        <time>2017-10-14T08:29:42Z</time>
      </trkpt>
      <trkpt lat="43.62666" lon="1.47757">
        <ele>129.92</ele>
        <time>2017-10-14T08:29:47Z</time>
      </trkpt>
      <trkpt lat="43.62667" lon="1.47735">
        <ele>129.92</ele>
        <time>2017-10-14T08:29:54Z</time>
      </trkpt>
      <trkpt lat="43.62668" lon="1.47732">
        <ele>129.92</ele>
        <time>2017-10-14T08:29:56Z</time>
      </trkpt>
      <trkpt lat="43.62689" lon="1.4771">
        <ele>129.92</ele>
        <time>2017-10-14T08:30:06Z</time>
      </trkpt>
      <trkpt lat="43.62692" lon="1.47708">
        <ele>129.92</ele>
        <time>2017-10-14T08:30:07Z</time>
      </trkpt>
      <trkpt lat="43.62707" lon="1.4771">
        <ele>128.95</ele>
        <time>2017-10-14T08:30:12Z</time>
      </trkpt>
      <trkpt lat="43.62719" lon="1.47712">
        <ele>128.95</ele>
        <time>2017-10-14T08:30:15Z</time>
      </trkpt>
      <trkpt lat="43.62724" lon="1.47711">
        <ele>128.95</ele>
        <time>2017-10-14T08:30:16Z</time>
      </trkpt>
      <trkpt lat="43.62739" lon="1.47709">
        <ele>128.95</ele>
        <time>2017-10-14T08:30:19Z</time>
      </trkpt>
      <trkpt lat="43.62796" lon="1.47687">
        <ele>128.95</ele>
        <time>2017-10-14T08:30:29Z</time>
      </trkpt>
      <trkpt lat="43.6287" lon="1.47651">
        <ele>129.92</ele>
        <time>2017-10-14T08:30:42Z</time>
      </trkpt>
      <trkpt lat="43.62874" lon="1.47647">
        <ele>129.92</ele>
        <time>2017-10-14T08:30:43Z</time>
      </trkpt>
      <trkpt lat="43.62879" lon="1.47643">
        <ele>129.92</ele>
        <time>2017-10-14T08:30:44Z</time>
      </trkpt>
      <trkpt lat="43.62886" lon="1.47635">
        <ele>129.92</ele>
        <time>2017-10-14T08:30:46Z</time>
      </trkpt>
      <trkpt lat="43.6289" lon="1.47634">
        <ele>129.92</ele>
        <time>2017-10-14T08:30:47Z</time>
      </trkpt>
      <trkpt lat="43.62894" lon="1.47634">
        <ele>129.92</ele>
        <time>2017-10-14T08:30:48Z</time>
      </trkpt>
      <trkpt lat="43.62897" lon="1.47633">
        <ele>129.92</ele>
        <time>2017-10-14T08:30:49Z</time>
      </trkpt>
      <trkpt lat="43.62901" lon="1.47631">
        <ele>129.92</ele>
        <time>2017-10-14T08:30:50Z</time>
      </trkpt>
      <trkpt lat="43.62904" lon="1.47628">
        <ele>129.92</ele>
        <time>2017-10-14T08:30:51Z</time>
      </trkpt>
      <trkpt lat="43.62908" lon="1.47626">
        <ele>129.92</ele>
        <time>2017-10-14T08:30:52Z</time>
      </trkpt>
      <trkpt lat="43.62912" lon="1.47625">
        <ele>129.92</ele>
        <time>2017-10-14T08:30:53Z</time>
      </trkpt>
      <trkpt lat="43.62916" lon="1.47626">
        <ele>129.92</ele>
        <time>2017-10-14T08:30:54Z</time>
      </trkpt>
      <trkpt lat="43.6292" lon="1.47626">
        <ele>129.92</ele>
        <time>2017-10-14T08:30:55Z</time>
      </trkpt>
      <trkpt lat="43.62924" lon="1.47626">
        <ele>129.92</ele>
        <time>2017-10-14T08:30:56Z</time>
      </trkpt>
      <trkpt lat="43.62928" lon="1.47625">
        <ele>129.92</ele>
        <time>2017-10-14T08:30:57Z</time>
      </trkpt>
      <trkpt lat="43.62981" lon="1.47603">
        <ele>129.92</ele>
        <time>2017-10-14T08:31:07Z</time>
      </trkpt>
      <trkpt lat="43.63039" lon="1.47573">
        <ele>129.92</ele>
        <time>2017-10-14T08:31:17Z</time>
      </trkpt>
      <trkpt lat="43.6307" lon="1.47548">
        <ele>129.92</ele>
        <time>2017-10-14T08:31:24Z</time>
      </trkpt>
      <trkpt lat="43.63098" lon="1.47528">
        <ele>130.88</ele>
        <time>2017-10-14T08:31:32Z</time>
      </trkpt>
      <trkpt lat="43.63106" lon="1.47525">
        <ele>130.88</ele>
        <time>2017-10-14T08:31:34Z</time>
      </trkpt>
      <trkpt lat="43.63111" lon="1.47524">
        <ele>130.88</ele>
        <time>2017-10-14T08:31:35Z</time>
      </trkpt>
      <trkpt lat="43.63163" lon="1.47501">
        <ele>130.88</ele>
        <time>2017-10-14T08:31:45Z</time>
      </trkpt>
      <trkpt lat="43.63229" lon="1.47467">
        <ele>131.84</ele>
        <time>2017-10-14T08:32:00Z</time>
      </trkpt>
      <trkpt lat="43.63271" lon="1.47444">
        <ele>133.76</ele>
        <time>2017-10-14T08:32:12Z</time>
      </trkpt>
      <trkpt lat="43.63287" lon="1.47436">
        <ele>135.2</ele>
        <time>2017-10-14T08:32:16Z</time>
      </trkpt>
      <trkpt lat="43.633" lon="1.47429">
        <ele>136.16</ele>
        <time>2017-10-14T08:32:19Z</time>
      </trkpt>
      <trkpt lat="43.63313" lon="1.47423">
        <ele>136.16</ele>
        <time>2017-10-14T08:32:22Z</time>
      </trkpt>
      <trkpt lat="43.63317" lon="1.47421">
        <ele>136.16</ele>
        <time>2017-10-14T08:32:23Z</time>
      </trkpt>
      <trkpt lat="43.63322" lon="1.47419">
        <ele>136.16</ele>
        <time>2017-10-14T08:32:24Z</time>
      </trkpt>
      <trkpt lat="43.63344" lon="1.47405">
        <ele>137.13</ele>
        <time>2017-10-14T08:32:29Z</time>
      </trkpt>
      <trkpt lat="43.63388" lon="1.47378">
        <ele>137.13</ele>
        <time>2017-10-14T08:32:38Z</time>
      </trkpt>
      <trkpt lat="43.63394" lon="1.47375">
        <ele>137.13</ele>
        <time>2017-10-14T08:32:39Z</time>
      </trkpt>
      <trkpt lat="43.63416" lon="1.47362">
        <ele>137.13</ele>
        <time>2017-10-14T08:32:43Z</time>
      </trkpt>
      <trkpt lat="43.6348" lon="1.47325">
        <ele>135.2</ele>
        <time>2017-10-14T08:32:53Z</time>
      </trkpt>
      <trkpt lat="43.63531" lon="1.47297">
        <ele>131.84</ele>
        <time>2017-10-14T08:33:01Z</time>
      </trkpt>
      <trkpt lat="43.6355" lon="1.47283">
        <ele>128.95</ele>
        <time>2017-10-14T08:33:07Z</time>
      </trkpt>
      <trkpt lat="43.63557" lon="1.47282">
        <ele>127.99</ele>
        <time>2017-10-14T08:33:17Z</time>
      </trkpt>
      <trkpt lat="43.63579" lon="1.47275">
        <ele>127.99</ele>
        <time>2017-10-14T08:33:26Z</time>
      </trkpt>
      <trkpt lat="43.63591" lon="1.47271">
        <ele>127.99</ele>
        <time>2017-10-14T08:33:29Z</time>
      </trkpt>
      <trkpt lat="43.63601" lon="1.47269">
        <ele>127.99</ele>
        <time>2017-10-14T08:33:31Z</time>
      </trkpt>
      <trkpt lat="43.63606" lon="1.47268">
        <ele>127.99</ele>
        <time>2017-10-14T08:33:32Z</time>
      </trkpt>
      <trkpt lat="43.63662" lon="1.47254">
        <ele>127.99</ele>
        <time>2017-10-14T08:33:42Z</time>
      </trkpt>
      <trkpt lat="43.63731" lon="1.47233">
        <ele>128.95</ele>
        <time>2017-10-14T08:33:54Z</time>
      </trkpt>
      <trkpt lat="43.63775" lon="1.47215">
        <ele>128.95</ele>
        <time>2017-10-14T08:34:03Z</time>
      </trkpt>
      <trkpt lat="43.63811" lon="1.47184">
        <ele>128.95</ele>
        <time>2017-10-14T08:34:10Z</time>
      </trkpt>
      <trkpt lat="43.63826" lon="1.47158">
        <ele>128.95</ele>
        <time>2017-10-14T08:34:14Z</time>
      </trkpt>
      <trkpt lat="43.63845" lon="1.47125">
        <ele>128.95</ele>
        <time>2017-10-14T08:34:19Z</time>
      </trkpt>
      <trkpt lat="43.63862" lon="1.47105">
        <ele>128.95</ele>
        <time>2017-10-14T08:34:25Z</time>
      </trkpt>
      <trkpt lat="43.63892" lon="1.47074">
        <ele>128.95</ele>
        <time>2017-10-14T08:34:34Z</time>
      </trkpt>
      <trkpt lat="43.63916" lon="1.47052">
        <ele>128.95</ele>
        <time>2017-10-14T08:34:39Z</time>
      </trkpt>
      <trkpt lat="43.63978" lon="1.46993">
        <ele>127.99</ele>
        <time>2017-10-14T08:34:51Z</time>
      </trkpt>
      <trkpt lat="43.64017" lon="1.46959">
        <ele>127.99</ele>
        <time>2017-10-14T08:35:00Z</time>
      </trkpt>
      <trkpt lat="43.64049" lon="1.46927">
        <ele>127.99</ele>
        <time>2017-10-14T08:35:07Z</time>
      </trkpt>
      <trkpt lat="43.64054" lon="1.46921">
        <ele>127.99</ele>
        <time>2017-10-14T08:35:08Z</time>
      </trkpt>
      <trkpt lat="43.64059" lon="1.46916">
        <ele>127.99</ele>
        <time>2017-10-14T08:35:09Z</time>
      </trkpt>
      <trkpt lat="43.64113" lon="1.46844">
        <ele>127.99</ele>
        <time>2017-10-14T08:35:21Z</time>
      </trkpt>
      <trkpt lat="43.64129" lon="1.46819">
        <ele>127.99</ele>
        <time>2017-10-14T08:35:25Z</time>
      </trkpt>
      <trkpt lat="43.64138" lon="1.46806">
        <ele>127.99</ele>
        <time>2017-10-14T08:35:27Z</time>
      </trkpt>
      <trkpt lat="43.64173" lon="1.46743">
        <ele>128.95</ele>
        <time>2017-10-14T08:35:38Z</time>
      </trkpt>
      <trkpt lat="43.64175" lon="1.46742">
        <ele>128.95</ele>
        <time>2017-10-14T08:35:39Z</time>
      </trkpt>
      <trkpt lat="43.64177" lon="1.46742">
        <ele>128.95</ele>
        <time>2017-10-14T08:35:40Z</time>
      </trkpt>
      <trkpt lat="43.64179" lon="1.46742">
        <ele>128.95</ele>
        <time>2017-10-14T08:35:41Z</time>
      </trkpt>
      <trkpt lat="43.64181" lon="1.46743">
        <ele>128.95</ele>
        <time>2017-10-14T08:35:42Z</time>
      </trkpt>
      <trkpt lat="43.64183" lon="1.46744">
        <ele>128.95</ele>
        <time>2017-10-14T08:35:43Z</time>
      </trkpt>
      <trkpt lat="43.64192" lon="1.46746">
        <ele>128.95</ele>
        <time>2017-10-14T08:35:47Z</time>
      </trkpt>
      <trkpt lat="43.64194" lon="1.46745">
        <ele>128.95</ele>
        <time>2017-10-14T08:35:48Z</time>
      </trkpt>
      <trkpt lat="43.64211" lon="1.46733">
        <ele>128.95</ele>
        <time>2017-10-14T08:35:55Z</time>
      </trkpt>
      <trkpt lat="43.64214" lon="1.46734">
        <ele>128.95</ele>
        <time>2017-10-14T08:35:56Z</time>
      </trkpt>
      <trkpt lat="43.64218" lon="1.46735">
        <ele>128.95</ele>
        <time>2017-10-14T08:35:57Z</time>
      </trkpt>
      <trkpt lat="43.64258" lon="1.46755">
        <ele>128.95</ele>
        <time>2017-10-14T08:36:07Z</time>
      </trkpt>
      <trkpt lat="43.64319" lon="1.46791">
        <ele>128.95</ele>
        <time>2017-10-14T08:36:19Z</time>
      </trkpt>
      <trkpt lat="43.64334" lon="1.46802">
        <ele>128.95</ele>
        <time>2017-10-14T08:36:22Z</time>
      </trkpt>
      <trkpt lat="43.64378" lon="1.46849">
        <ele>127.99</ele>
        <time>2017-10-14T08:36:32Z</time>
      </trkpt>
      <trkpt lat="43.64382" lon="1.46853">
        <ele>127.99</ele>
        <time>2017-10-14T08:36:33Z</time>
      </trkpt>
      <trkpt lat="43.644" lon="1.46871">
        <ele>127.99</ele>
        <time>2017-10-14T08:36:40Z</time>
      </trkpt>
      <trkpt lat="43.64403" lon="1.46871">
        <ele>127.99</ele>
        <time>2017-10-14T08:36:41Z</time>
      </trkpt>
      <trkpt lat="43.64411" lon="1.46869">
        <ele>127.99</ele>
        <time>2017-10-14T08:36:45Z</time>
      </trkpt>
      <trkpt lat="43.64412" lon="1.46871">
        <ele>127.99</ele>
        <time>2017-10-14T08:36:46Z</time>
      </trkpt>
      <trkpt lat="43.64415" lon="1.46873">
        <ele>127.99</ele>
        <time>2017-10-14T08:36:47Z</time>
      </trkpt>
      <trkpt lat="43.64458" lon="1.4691">
        <ele>128.95</ele>
        <time>2017-10-14T08:36:57Z</time>
      </trkpt>
      <trkpt lat="43.64508" lon="1.46942">
        <ele>128.95</ele>
        <time>2017-10-14T08:37:09Z</time>
      </trkpt>
      <trkpt lat="43.64511" lon="1.46945">
        <ele>128.95</ele>
        <time>2017-10-14T08:37:17Z</time>
      </trkpt>
      <trkpt lat="43.6452" lon="1.4695">
        <ele>129.92</ele>
        <time>2017-10-14T08:37:37Z</time>
      </trkpt>
      <trkpt lat="43.64534" lon="1.46962">
        <ele>128.95</ele>
        <time>2017-10-14T08:37:46Z</time>
      </trkpt>
      <trkpt lat="43.64536" lon="1.46962">
        <ele>129.92</ele>
        <time>2017-10-14T08:38:54Z</time>
      </trkpt>
      <trkpt lat="43.64538" lon="1.46962">
        <ele>129.92</ele>
        <time>2017-10-14T08:39:00Z</time>
      </trkpt>
      <trkpt lat="43.64539" lon="1.46963">
        <ele>129.92</ele>
        <time>2017-10-14T08:39:01Z</time>
      </trkpt>
      <trkpt lat="43.64541" lon="1.46964">
        <ele>129.92</ele>
        <time>2017-10-14T08:39:02Z</time>
      </trkpt>
      <trkpt lat="43.6457" lon="1.46982">
        <ele>128.95</ele>
        <time>2017-10-14T08:39:12Z</time>
      </trkpt>
      <trkpt lat="43.64608" lon="1.47006">
        <ele>128.95</ele>
        <time>2017-10-14T08:39:22Z</time>
      </trkpt>
      <trkpt lat="43.6467" lon="1.47043">
        <ele>128.95</ele>
        <time>2017-10-14T08:39:34Z</time>
      </trkpt>
      <trkpt lat="43.64695" lon="1.4706">
        <ele>127.99</ele>
        <time>2017-10-14T08:39:39Z</time>
      </trkpt>
      <trkpt lat="43.64699" lon="1.47064">
        <ele>127.99</ele>
        <time>2017-10-14T08:39:40Z</time>
      </trkpt>
      <trkpt lat="43.64725" lon="1.47083">
        <ele>127.99</ele>
        <time>2017-10-14T08:39:48Z</time>
      </trkpt>
      <trkpt lat="43.64734" lon="1.47086">
        <ele>127.99</ele>
        <time>2017-10-14T08:39:50Z</time>
      </trkpt>
      <trkpt lat="43.64771" lon="1.47102">
        <ele>127.99</ele>
        <time>2017-10-14T08:39:58Z</time>
      </trkpt>
      <trkpt lat="43.64774" lon="1.47104">
        <ele>127.99</ele>
        <time>2017-10-14T08:39:59Z</time>
      </trkpt>
      <trkpt lat="43.64779" lon="1.47107">
        <ele>127.99</ele>
        <time>2017-10-14T08:40:00Z</time>
      </trkpt>
      <trkpt lat="43.64783" lon="1.47109">
        <ele>127.99</ele>
        <time>2017-10-14T08:40:01Z</time>
      </trkpt>
      <trkpt lat="43.64787" lon="1.47111">
        <ele>127.03</ele>
        <time>2017-10-14T08:40:02Z</time>
      </trkpt>
      <trkpt lat="43.64792" lon="1.47113">
        <ele>127.03</ele>
        <time>2017-10-14T08:40:03Z</time>
      </trkpt>
      <trkpt lat="43.6481" lon="1.4712">
        <ele>127.03</ele>
        <time>2017-10-14T08:40:07Z</time>
      </trkpt>
      <trkpt lat="43.64814" lon="1.47123">
        <ele>127.03</ele>
        <time>2017-10-14T08:40:08Z</time>
      </trkpt>
      <trkpt lat="43.64848" lon="1.4714">
        <ele>127.03</ele>
        <time>2017-10-14T08:40:17Z</time>
      </trkpt>
      <trkpt lat="43.64857" lon="1.47145">
        <ele>127.99</ele>
        <time>2017-10-14T08:40:19Z</time>
      </trkpt>
      <trkpt lat="43.64862" lon="1.47147">
        <ele>127.99</ele>
        <time>2017-10-14T08:40:20Z</time>
      </trkpt>
      <trkpt lat="43.64909" lon="1.47168">
        <ele>127.99</ele>
        <time>2017-10-14T08:40:28Z</time>
      </trkpt>
      <trkpt lat="43.64957" lon="1.47202">
        <ele>127.03</ele>
        <time>2017-10-14T08:40:39Z</time>
      </trkpt>
      <trkpt lat="43.64974" lon="1.47214">
        <ele>127.99</ele>
        <time>2017-10-14T08:40:47Z</time>
      </trkpt>
      <trkpt lat="43.65003" lon="1.47226">
        <ele>127.99</ele>
        <time>2017-10-14T08:40:55Z</time>
      </trkpt>
      <trkpt lat="43.65054" lon="1.47253">
        <ele>127.03</ele>
        <time>2017-10-14T08:41:06Z</time>
      </trkpt>
      <trkpt lat="43.65139" lon="1.47308">
        <ele>127.03</ele>
        <time>2017-10-14T08:41:21Z</time>
      </trkpt>
      <trkpt lat="43.652" lon="1.47353">
        <ele>127.99</ele>
        <time>2017-10-14T08:41:32Z</time>
      </trkpt>
      <trkpt lat="43.65246" lon="1.47389">
        <ele>127.99</ele>
        <time>2017-10-14T08:41:41Z</time>
      </trkpt>
      <trkpt lat="43.65273" lon="1.47411">
        <ele>127.99</ele>
        <time>2017-10-14T08:41:47Z</time>
      </trkpt>
      <trkpt lat="43.65277" lon="1.47414">
        <ele>127.99</ele>
        <time>2017-10-14T08:41:48Z</time>
      </trkpt>
      <trkpt lat="43.65281" lon="1.47418">
        <ele>128.95</ele>
        <time>2017-10-14T08:41:49Z</time>
      </trkpt>
      <trkpt lat="43.6529" lon="1.47425">
        <ele>128.95</ele>
        <time>2017-10-14T08:41:51Z</time>
      </trkpt>
      <trkpt lat="43.65294" lon="1.47428">
        <ele>128.95</ele>
        <time>2017-10-14T08:41:52Z</time>
      </trkpt>
      <trkpt lat="43.65334" lon="1.47459">
        <ele>129.92</ele>
        <time>2017-10-14T08:42:02Z</time>
      </trkpt>
      <trkpt lat="43.65341" lon="1.47465">
        <ele>129.92</ele>
        <time>2017-10-14T08:42:04Z</time>
      </trkpt>
      <trkpt lat="43.65345" lon="1.47468">
        <ele>130.88</ele>
        <time>2017-10-14T08:42:05Z</time>
      </trkpt>
      <trkpt lat="43.65348" lon="1.47471">
        <ele>130.88</ele>
        <time>2017-10-14T08:42:06Z</time>
      </trkpt>
      <trkpt lat="43.65351" lon="1.47474">
        <ele>130.88</ele>
        <time>2017-10-14T08:42:07Z</time>
      </trkpt>
      <trkpt lat="43.65355" lon="1.47477">
        <ele>130.88</ele>
        <time>2017-10-14T08:42:08Z</time>
      </trkpt>
      <trkpt lat="43.65384" lon="1.47502">
        <ele>132.8</ele>
        <time>2017-10-14T08:42:17Z</time>
      </trkpt>
      <trkpt lat="43.65409" lon="1.47532">
        <ele>135.2</ele>
        <time>2017-10-14T08:42:27Z</time>
      </trkpt>
      <trkpt lat="43.65418" lon="1.47545">
        <ele>137.13</ele>
        <time>2017-10-14T08:42:36Z</time>
      </trkpt>
      <trkpt lat="43.65424" lon="1.47553">
        <ele>138.09</ele>
        <time>2017-10-14T08:42:55Z</time>
      </trkpt>
      <trkpt lat="43.65425" lon="1.47556">
        <ele>138.09</ele>
        <time>2017-10-14T08:42:57Z</time>
      </trkpt>
      <trkpt lat="43.65426" lon="1.47558">
        <ele>138.09</ele>
        <time>2017-10-14T08:42:58Z</time>
      </trkpt>
      <trkpt lat="43.65428" lon="1.4756">
        <ele>138.09</ele>
        <time>2017-10-14T08:42:59Z</time>
      </trkpt>
      <trkpt lat="43.6543" lon="1.47563">
        <ele>138.09</ele>
        <time>2017-10-14T08:43:00Z</time>
      </trkpt>
      <trkpt lat="43.65431" lon="1.47566">
        <ele>138.09</ele>
        <time>2017-10-14T08:43:01Z</time>
      </trkpt>
      <trkpt lat="43.65441" lon="1.47599">
        <ele>139.05</ele>
        <time>2017-10-14T08:43:09Z</time>
      </trkpt>
      <trkpt lat="43.65449" lon="1.47638">
        <ele>140.01</ele>
        <time>2017-10-14T08:43:18Z</time>
      </trkpt>
      <trkpt lat="43.65459" lon="1.47675">
        <ele>141.93</ele>
        <time>2017-10-14T08:43:27Z</time>
      </trkpt>
      <trkpt lat="43.65465" lon="1.47692">
        <ele>142.89</ele>
        <time>2017-10-14T08:43:32Z</time>
      </trkpt>
      <trkpt lat="43.6547" lon="1.47697">
        <ele>142.89</ele>
        <time>2017-10-14T08:43:35Z</time>
      </trkpt>
      <trkpt lat="43.65472" lon="1.47698">
        <ele>142.89</ele>
        <time>2017-10-14T08:43:36Z</time>
      </trkpt>
      <trkpt lat="43.65473" lon="1.47699">
        <ele>143.85</ele>
        <time>2017-10-14T08:43:37Z</time>
      </trkpt>
      <trkpt lat="43.65474" lon="1.47701">
        <ele>143.85</ele>
        <time>2017-10-14T08:43:38Z</time>
      </trkpt>
      <trkpt lat="43.65476" lon="1.47703">
        <ele>143.85</ele>
        <time>2017-10-14T08:43:39Z</time>
      </trkpt>
      <trkpt lat="43.65477" lon="1.47705">
        <ele>143.85</ele>
        <time>2017-10-14T08:43:40Z</time>
      </trkpt>
      <trkpt lat="43.65479" lon="1.47707">
        <ele>143.85</ele>
        <time>2017-10-14T08:43:41Z</time>
      </trkpt>
      <trkpt lat="43.6548" lon="1.4771">
        <ele>143.85</ele>
        <time>2017-10-14T08:43:42Z</time>
      </trkpt>
      <trkpt lat="43.65482" lon="1.47714">
        <ele>143.85</ele>
        <time>2017-10-14T08:43:43Z</time>
      </trkpt>
      <trkpt lat="43.65485" lon="1.47717">
        <ele>143.85</ele>
        <time>2017-10-14T08:43:44Z</time>
      </trkpt>
      <trkpt lat="43.65487" lon="1.47721">
        <ele>143.85</ele>
        <time>2017-10-14T08:43:45Z</time>
      </trkpt>
      <trkpt lat="43.6549" lon="1.47724">
        <ele>143.85</ele>
        <time>2017-10-14T08:43:46Z</time>
      </trkpt>
      <trkpt lat="43.65505" lon="1.47761">
        <ele>143.85</ele>
        <time>2017-10-14T08:43:55Z</time>
      </trkpt>
      <trkpt lat="43.65518" lon="1.4777">
        <ele>144.82</ele>
        <time>2017-10-14T08:43:59Z</time>
      </trkpt>
      <trkpt lat="43.65522" lon="1.47773">
        <ele>144.82</ele>
        <time>2017-10-14T08:44:00Z</time>
      </trkpt>
      <trkpt lat="43.65525" lon="1.47777">
        <ele>144.82</ele>
        <time>2017-10-14T08:44:01Z</time>
      </trkpt>
      <trkpt lat="43.65574" lon="1.47842">
        <ele>144.82</ele>
        <time>2017-10-14T08:44:15Z</time>
      </trkpt>
      <trkpt lat="43.6562" lon="1.47898">
        <ele>145.78</ele>
        <time>2017-10-14T08:44:28Z</time>
      </trkpt>
      <trkpt lat="43.65653" lon="1.47949">
        <ele>147.22</ele>
        <time>2017-10-14T08:44:40Z</time>
      </trkpt>
      <trkpt lat="43.65662" lon="1.47967">
        <ele>148.18</ele>
        <time>2017-10-14T08:44:48Z</time>
      </trkpt>
      <trkpt lat="43.65666" lon="1.4797">
        <ele>148.18</ele>
        <time>2017-10-14T08:44:58Z</time>
      </trkpt>
      <trkpt lat="43.65667" lon="1.47973">
        <ele>148.18</ele>
        <time>2017-10-14T08:44:59Z</time>
      </trkpt>
      <trkpt lat="43.65668" lon="1.47975">
        <ele>148.18</ele>
        <time>2017-10-14T08:45:00Z</time>
      </trkpt>
      <trkpt lat="43.65669" lon="1.47978">
        <ele>148.18</ele>
        <time>2017-10-14T08:45:01Z</time>
      </trkpt>
      <trkpt lat="43.65671" lon="1.4798">
        <ele>148.18</ele>
        <time>2017-10-14T08:45:02Z</time>
      </trkpt>
      <trkpt lat="43.65694" lon="1.48007">
        <ele>148.18</ele>
        <time>2017-10-14T08:45:12Z</time>
      </trkpt>
      <trkpt lat="43.65726" lon="1.48041">
        <ele>149.14</ele>
        <time>2017-10-14T08:45:23Z</time>
      </trkpt>
      <trkpt lat="43.65743" lon="1.48069">
        <ele>150.1</ele>
        <time>2017-10-14T08:45:30Z</time>
      </trkpt>
      <trkpt lat="43.65764" lon="1.48107">
        <ele>151.06</ele>
        <time>2017-10-14T08:45:40Z</time>
      </trkpt>
      <trkpt lat="43.65782" lon="1.48143">
        <ele>153.95</ele>
        <time>2017-10-14T08:45:50Z</time>
      </trkpt>
      <trkpt lat="43.65793" lon="1.48173">
        <ele>155.87</ele>
        <time>2017-10-14T08:45:58Z</time>
      </trkpt>
      <trkpt lat="43.65803" lon="1.48212">
        <ele>156.83</ele>
        <time>2017-10-14T08:46:08Z</time>
      </trkpt>
      <trkpt lat="43.65807" lon="1.4824">
        <ele>159.24</ele>
        <time>2017-10-14T08:46:16Z</time>
      </trkpt>
      <trkpt lat="43.65812" lon="1.48275">
        <ele>161.16</ele>
        <time>2017-10-14T08:46:24Z</time>
      </trkpt>
      <trkpt lat="43.65807" lon="1.48293">
        <ele>162.12</ele>
        <time>2017-10-14T08:46:29Z</time>
      </trkpt>
      <trkpt lat="43.65807" lon="1.48296">
        <ele>162.12</ele>
        <time>2017-10-14T08:46:30Z</time>
      </trkpt>
      <trkpt lat="43.65807" lon="1.48298">
        <ele>162.12</ele>
        <time>2017-10-14T08:46:31Z</time>
      </trkpt>
      <trkpt lat="43.65808" lon="1.483">
        <ele>162.12</ele>
        <time>2017-10-14T08:46:32Z</time>
      </trkpt>
      <trkpt lat="43.6581" lon="1.483">
        <ele>163.08</ele>
        <time>2017-10-14T08:46:33Z</time>
      </trkpt>
      <trkpt lat="43.65813" lon="1.483">
        <ele>163.08</ele>
        <time>2017-10-14T08:46:34Z</time>
      </trkpt>
      <trkpt lat="43.65816" lon="1.48301">
        <ele>163.08</ele>
        <time>2017-10-14T08:46:35Z</time>
      </trkpt>
      <trkpt lat="43.65818" lon="1.48302">
        <ele>163.08</ele>
        <time>2017-10-14T08:46:36Z</time>
      </trkpt>
      <trkpt lat="43.65819" lon="1.48305">
        <ele>163.08</ele>
        <time>2017-10-14T08:46:37Z</time>
      </trkpt>
      <trkpt lat="43.65825" lon="1.48337">
        <ele>164.04</ele>
        <time>2017-10-14T08:46:44Z</time>
      </trkpt>
      <trkpt lat="43.65837" lon="1.48387">
        <ele>165</ele>
        <time>2017-10-14T08:46:54Z</time>
      </trkpt>
      <trkpt lat="43.65843" lon="1.48426">
        <ele>165.96</ele>
        <time>2017-10-14T08:47:02Z</time>
      </trkpt>
      <trkpt lat="43.65852" lon="1.48473">
        <ele>167.89</ele>
        <time>2017-10-14T08:47:12Z</time>
      </trkpt>
      <trkpt lat="43.65857" lon="1.48494">
        <ele>168.85</ele>
        <time>2017-10-14T08:47:16Z</time>
      </trkpt>
      <trkpt lat="43.65858" lon="1.48499">
        <ele>168.85</ele>
        <time>2017-10-14T08:47:17Z</time>
      </trkpt>
      <trkpt lat="43.65859" lon="1.48505">
        <ele>168.85</ele>
        <time>2017-10-14T08:47:18Z</time>
      </trkpt>
      <trkpt lat="43.65861" lon="1.48516">
        <ele>168.85</ele>
        <time>2017-10-14T08:47:20Z</time>
      </trkpt>
      <trkpt lat="43.65863" lon="1.48522">
        <ele>168.85</ele>
        <time>2017-10-14T08:47:21Z</time>
      </trkpt>
      <trkpt lat="43.6588" lon="1.48574">
        <ele>169.81</ele>
        <time>2017-10-14T08:47:30Z</time>
      </trkpt>
      <trkpt lat="43.65882" lon="1.4858">
        <ele>169.81</ele>
        <time>2017-10-14T08:47:31Z</time>
      </trkpt>
      <trkpt lat="43.65884" lon="1.48586">
        <ele>169.81</ele>
        <time>2017-10-14T08:47:32Z</time>
      </trkpt>
      <trkpt lat="43.6591" lon="1.48662">
        <ele>172.21</ele>
        <time>2017-10-14T08:47:45Z</time>
      </trkpt>
      <trkpt lat="43.65933" lon="1.48729">
        <ele>172.21</ele>
        <time>2017-10-14T08:47:56Z</time>
      </trkpt>
      <trkpt lat="43.65964" lon="1.48816">
        <ele>174.14</ele>
        <time>2017-10-14T08:48:10Z</time>
      </trkpt>
      <trkpt lat="43.65985" lon="1.48879">
        <ele>175.1</ele>
        <time>2017-10-14T08:48:20Z</time>
      </trkpt>
      <trkpt lat="43.66015" lon="1.48965">
        <ele>175.1</ele>
        <time>2017-10-14T08:48:33Z</time>
      </trkpt>
      <trkpt lat="43.6604" lon="1.49036">
        <ele>175.1</ele>
        <time>2017-10-14T08:48:43Z</time>
      </trkpt>
      <trkpt lat="43.66066" lon="1.4912">
        <ele>175.1</ele>
        <time>2017-10-14T08:48:54Z</time>
      </trkpt>
      <trkpt lat="43.66068" lon="1.49127">
        <ele>175.1</ele>
        <time>2017-10-14T08:48:55Z</time>
      </trkpt>
      <trkpt lat="43.66071" lon="1.49134">
        <ele>175.1</ele>
        <time>2017-10-14T08:48:56Z</time>
      </trkpt>
      <trkpt lat="43.66074" lon="1.49141">
        <ele>175.1</ele>
        <time>2017-10-14T08:48:57Z</time>
      </trkpt>
      <trkpt lat="43.66097" lon="1.492">
        <ele>175.1</ele>
        <time>2017-10-14T08:49:06Z</time>
      </trkpt>
      <trkpt lat="43.66105" lon="1.49226">
        <ele>175.1</ele>
        <time>2017-10-14T08:49:10Z</time>
      </trkpt>
      <trkpt lat="43.66106" lon="1.49232">
        <ele>176.06</ele>
        <time>2017-10-14T08:49:11Z</time>
      </trkpt>
      <trkpt lat="43.66112" lon="1.49249">
        <ele>176.06</ele>
        <time>2017-10-14T08:49:14Z</time>
      </trkpt>
      <trkpt lat="43.66113" lon="1.49255">
        <ele>176.06</ele>
        <time>2017-10-14T08:49:15Z</time>
      </trkpt>
      <trkpt lat="43.66115" lon="1.4926">
        <ele>176.06</ele>
        <time>2017-10-14T08:49:16Z</time>
      </trkpt>
      <trkpt lat="43.66118" lon="1.49271">
        <ele>177.02</ele>
        <time>2017-10-14T08:49:18Z</time>
      </trkpt>
      <trkpt lat="43.66127" lon="1.49293">
        <ele>177.02</ele>
        <time>2017-10-14T08:49:22Z</time>
      </trkpt>
      <trkpt lat="43.66149" lon="1.49352">
        <ele>177.98</ele>
        <time>2017-10-14T08:49:33Z</time>
      </trkpt>
      <trkpt lat="43.66172" lon="1.4942">
        <ele>179.9</ele>
        <time>2017-10-14T08:49:45Z</time>
      </trkpt>
      <trkpt lat="43.66181" lon="1.49443">
        <ele>180.87</ele>
        <time>2017-10-14T08:49:49Z</time>
      </trkpt>
      <trkpt lat="43.66202" lon="1.49503">
        <ele>182.79</ele>
        <time>2017-10-14T08:50:00Z</time>
      </trkpt>
      <trkpt lat="43.66218" lon="1.49547">
        <ele>185.19</ele>
        <time>2017-10-14T08:50:09Z</time>
      </trkpt>
      <trkpt lat="43.66232" lon="1.49591">
        <ele>187.11</ele>
        <time>2017-10-14T08:50:19Z</time>
      </trkpt>
      <trkpt lat="43.66248" lon="1.49639">
        <ele>189.04</ele>
        <time>2017-10-14T08:50:30Z</time>
      </trkpt>
      <trkpt lat="43.66274" lon="1.49708">
        <ele>191.92</ele>
        <time>2017-10-14T08:50:46Z</time>
      </trkpt>
      <trkpt lat="43.6629" lon="1.49754">
        <ele>193.84</ele>
        <time>2017-10-14T08:50:56Z</time>
      </trkpt>
      <trkpt lat="43.66315" lon="1.49829">
        <ele>194.8</ele>
        <time>2017-10-14T08:51:08Z</time>
      </trkpt>
      <trkpt lat="43.6634" lon="1.49901">
        <ele>193.84</ele>
        <time>2017-10-14T08:51:18Z</time>
      </trkpt>
      <trkpt lat="43.66349" lon="1.49931">
        <ele>193.84</ele>
        <time>2017-10-14T08:51:22Z</time>
      </trkpt>
      <trkpt lat="43.66351" lon="1.49938">
        <ele>193.84</ele>
        <time>2017-10-14T08:51:23Z</time>
      </trkpt>
      <trkpt lat="43.66353" lon="1.49945">
        <ele>193.84</ele>
        <time>2017-10-14T08:51:24Z</time>
      </trkpt>
      <trkpt lat="43.6636" lon="1.49973">
        <ele>193.84</ele>
        <time>2017-10-14T08:51:28Z</time>
      </trkpt>
      <trkpt lat="43.66362" lon="1.4998">
        <ele>193.84</ele>
        <time>2017-10-14T08:51:29Z</time>
      </trkpt>
      <trkpt lat="43.66364" lon="1.49986">
        <ele>192.88</ele>
        <time>2017-10-14T08:51:30Z</time>
      </trkpt>
      <trkpt lat="43.66374" lon="1.50037">
        <ele>192.88</ele>
        <time>2017-10-14T08:51:39Z</time>
      </trkpt>
      <trkpt lat="43.66385" lon="1.50103">
        <ele>192.88</ele>
        <time>2017-10-14T08:51:50Z</time>
      </trkpt>
      <trkpt lat="43.66393" lon="1.50133">
        <ele>192.88</ele>
        <time>2017-10-14T08:51:58Z</time>
      </trkpt>
      <trkpt lat="43.66394" lon="1.50143">
        <ele>192.88</ele>
        <time>2017-10-14T08:52:00Z</time>
      </trkpt>
      <trkpt lat="43.66394" lon="1.50149">
        <ele>192.88</ele>
        <time>2017-10-14T08:52:01Z</time>
      </trkpt>
      <trkpt lat="43.66395" lon="1.50155">
        <ele>192.88</ele>
        <time>2017-10-14T08:52:02Z</time>
      </trkpt>
      <trkpt lat="43.66404" lon="1.50202">
        <ele>192.88</ele>
        <time>2017-10-14T08:52:10Z</time>
      </trkpt>
      <trkpt lat="43.66405" lon="1.50208">
        <ele>193.84</ele>
        <time>2017-10-14T08:52:11Z</time>
      </trkpt>
      <trkpt lat="43.66406" lon="1.50214">
        <ele>193.84</ele>
        <time>2017-10-14T08:52:12Z</time>
      </trkpt>
      <trkpt lat="43.6641" lon="1.5024">
        <ele>193.84</ele>
        <time>2017-10-14T08:52:16Z</time>
      </trkpt>
      <trkpt lat="43.66411" lon="1.50247">
        <ele>193.84</ele>
        <time>2017-10-14T08:52:17Z</time>
      </trkpt>
      <trkpt lat="43.66413" lon="1.50266">
        <ele>193.84</ele>
        <time>2017-10-14T08:52:20Z</time>
      </trkpt>
      <trkpt lat="43.66416" lon="1.50279">
        <ele>193.84</ele>
        <time>2017-10-14T08:52:22Z</time>
      </trkpt>
      <trkpt lat="43.66428" lon="1.50348">
        <ele>194.8</ele>
        <time>2017-10-14T08:52:33Z</time>
      </trkpt>
      <trkpt lat="43.66429" lon="1.50354">
        <ele>194.8</ele>
        <time>2017-10-14T08:52:34Z</time>
      </trkpt>
      <trkpt lat="43.66431" lon="1.5036">
        <ele>195.77</ele>
        <time>2017-10-14T08:52:35Z</time>
      </trkpt>
      <trkpt lat="43.66433" lon="1.50366">
        <ele>195.77</ele>
        <time>2017-10-14T08:52:36Z</time>
      </trkpt>
      <trkpt lat="43.66437" lon="1.50372">
        <ele>195.77</ele>
        <time>2017-10-14T08:52:37Z</time>
      </trkpt>
      <trkpt lat="43.66441" lon="1.50379">
        <ele>195.77</ele>
        <time>2017-10-14T08:52:38Z</time>
      </trkpt>
      <trkpt lat="43.66477" lon="1.50443">
        <ele>195.77</ele>
        <time>2017-10-14T08:52:49Z</time>
      </trkpt>
      <trkpt lat="43.66487" lon="1.50462">
        <ele>195.77</ele>
        <time>2017-10-14T08:52:57Z</time>
      </trkpt>
      <trkpt lat="43.66495" lon="1.50477">
        <ele>195.77</ele>
        <time>2017-10-14T08:53:06Z</time>
      </trkpt>
      <trkpt lat="43.66496" lon="1.50482">
        <ele>195.77</ele>
        <time>2017-10-14T08:53:07Z</time>
      </trkpt>
      <trkpt lat="43.6651" lon="1.50499">
        <ele>195.77</ele>
        <time>2017-10-14T08:53:12Z</time>
      </trkpt>
      <trkpt lat="43.66512" lon="1.50504">
        <ele>195.77</ele>
        <time>2017-10-14T08:53:13Z</time>
      </trkpt>
      <trkpt lat="43.66541" lon="1.50555">
        <ele>195.77</ele>
        <time>2017-10-14T08:53:22Z</time>
      </trkpt>
      <trkpt lat="43.66544" lon="1.50561">
        <ele>195.77</ele>
        <time>2017-10-14T08:53:23Z</time>
      </trkpt>
      <trkpt lat="43.66548" lon="1.50567">
        <ele>195.77</ele>
        <time>2017-10-14T08:53:24Z</time>
      </trkpt>
      <trkpt lat="43.66581" lon="1.50629">
        <ele>195.77</ele>
        <time>2017-10-14T08:53:34Z</time>
      </trkpt>
      <trkpt lat="43.66585" lon="1.50635">
        <ele>195.77</ele>
        <time>2017-10-14T08:53:35Z</time>
      </trkpt>
      <trkpt lat="43.66634" lon="1.50719">
        <ele>195.77</ele>
        <time>2017-10-14T08:53:47Z</time>
      </trkpt>
      <trkpt lat="43.6668" lon="1.50795">
        <ele>195.77</ele>
        <time>2017-10-14T08:53:57Z</time>
      </trkpt>
      <trkpt lat="43.66692" lon="1.50817">
        <ele>194.8</ele>
        <time>2017-10-14T08:54:00Z</time>
      </trkpt>
      <trkpt lat="43.66724" lon="1.50901">
        <ele>194.8</ele>
        <time>2017-10-14T08:54:11Z</time>
      </trkpt>
      <trkpt lat="43.66748" lon="1.50969">
        <ele>194.8</ele>
        <time>2017-10-14T08:54:20Z</time>
      </trkpt>
      <trkpt lat="43.66754" lon="1.50982">
        <ele>194.8</ele>
        <time>2017-10-14T08:54:22Z</time>
      </trkpt>
      <trkpt lat="43.66768" lon="1.51023">
        <ele>195.77</ele>
        <time>2017-10-14T08:54:29Z</time>
      </trkpt>
      <trkpt lat="43.66768" lon="1.51025">
        <ele>195.77</ele>
        <time>2017-10-14T08:54:30Z</time>
      </trkpt>
      <trkpt lat="43.66768" lon="1.51028">
        <ele>195.77</ele>
        <time>2017-10-14T08:54:31Z</time>
      </trkpt>
      <trkpt lat="43.66769" lon="1.5103">
        <ele>195.77</ele>
        <time>2017-10-14T08:54:32Z</time>
      </trkpt>
      <trkpt lat="43.6677" lon="1.51033">
        <ele>195.77</ele>
        <time>2017-10-14T08:54:33Z</time>
      </trkpt>
      <trkpt lat="43.66771" lon="1.51035">
        <ele>197.21</ele>
        <time>2017-10-14T08:54:34Z</time>
      </trkpt>
      <trkpt lat="43.66772" lon="1.51037">
        <ele>197.21</ele>
        <time>2017-10-14T08:54:35Z</time>
      </trkpt>
      <trkpt lat="43.66773" lon="1.5104">
        <ele>197.21</ele>
        <time>2017-10-14T08:54:36Z</time>
      </trkpt>
      <trkpt lat="43.66774" lon="1.51043">
        <ele>197.21</ele>
        <time>2017-10-14T08:54:37Z</time>
      </trkpt>
      <trkpt lat="43.6679" lon="1.51096">
        <ele>198.17</ele>
        <time>2017-10-14T08:54:48Z</time>
      </trkpt>
      <trkpt lat="43.66819" lon="1.5118">
        <ele>200.09</ele>
        <time>2017-10-14T08:55:04Z</time>
      </trkpt>
      <trkpt lat="43.66849" lon="1.51264">
        <ele>202.98</ele>
        <time>2017-10-14T08:55:20Z</time>
      </trkpt>
      <trkpt lat="43.66879" lon="1.51347">
        <ele>204.9</ele>
        <time>2017-10-14T08:55:37Z</time>
      </trkpt>
      <trkpt lat="43.66903" lon="1.51418">
        <ele>207.78</ele>
        <time>2017-10-14T08:55:52Z</time>
      </trkpt>
      <trkpt lat="43.66926" lon="1.51484">
        <ele>211.15</ele>
        <time>2017-10-14T08:56:06Z</time>
      </trkpt>
      <trkpt lat="43.66952" lon="1.5156">
        <ele>214.03</ele>
        <time>2017-10-14T08:56:22Z</time>
      </trkpt>
      <trkpt lat="43.66981" lon="1.51633">
        <ele>216.91</ele>
        <time>2017-10-14T08:56:38Z</time>
      </trkpt>
      <trkpt lat="43.67" lon="1.51683">
        <ele>217.88</ele>
        <time>2017-10-14T08:56:50Z</time>
      </trkpt>
      <trkpt lat="43.67005" lon="1.51707">
        <ele>218.84</ele>
        <time>2017-10-14T08:56:55Z</time>
      </trkpt>
      <trkpt lat="43.67008" lon="1.51711">
        <ele>218.84</ele>
        <time>2017-10-14T08:56:56Z</time>
      </trkpt>
      <trkpt lat="43.67012" lon="1.51715">
        <ele>218.84</ele>
        <time>2017-10-14T08:56:57Z</time>
      </trkpt>
      <trkpt lat="43.67019" lon="1.51723">
        <ele>218.84</ele>
        <time>2017-10-14T08:56:59Z</time>
      </trkpt>
      <trkpt lat="43.67023" lon="1.51728">
        <ele>218.84</ele>
        <time>2017-10-14T08:57:00Z</time>
      </trkpt>
      <trkpt lat="43.67025" lon="1.51733">
        <ele>218.84</ele>
        <time>2017-10-14T08:57:01Z</time>
      </trkpt>
      <trkpt lat="43.67054" lon="1.51794">
        <ele>218.84</ele>
        <time>2017-10-14T08:57:11Z</time>
      </trkpt>
      <trkpt lat="43.67067" lon="1.51822">
        <ele>218.84</ele>
        <time>2017-10-14T08:57:15Z</time>
      </trkpt>
      <trkpt lat="43.6707" lon="1.51829">
        <ele>218.84</ele>
        <time>2017-10-14T08:57:16Z</time>
      </trkpt>
      <trkpt lat="43.67111" lon="1.51922">
        <ele>218.84</ele>
        <time>2017-10-14T08:57:27Z</time>
      </trkpt>
      <trkpt lat="43.67153" lon="1.52016">
        <ele>215.95</ele>
        <time>2017-10-14T08:57:36Z</time>
      </trkpt>
      <trkpt lat="43.67195" lon="1.52111">
        <ele>212.11</ele>
        <time>2017-10-14T08:57:44Z</time>
      </trkpt>
      <trkpt lat="43.67219" lon="1.52166">
        <ele>209.22</ele>
        <time>2017-10-14T08:57:49Z</time>
      </trkpt>
      <trkpt lat="43.67228" lon="1.52186">
        <ele>207.78</ele>
        <time>2017-10-14T08:57:51Z</time>
      </trkpt>
      <trkpt lat="43.67265" lon="1.52273">
        <ele>205.86</ele>
        <time>2017-10-14T08:58:00Z</time>
      </trkpt>
      <trkpt lat="43.67306" lon="1.52371">
        <ele>205.86</ele>
        <time>2017-10-14T08:58:10Z</time>
      </trkpt>
      <trkpt lat="43.67349" lon="1.52471">
        <ele>203.94</ele>
        <time>2017-10-14T08:58:21Z</time>
      </trkpt>
      <trkpt lat="43.67385" lon="1.52559">
        <ele>203.94</ele>
        <time>2017-10-14T08:58:32Z</time>
      </trkpt>
      <trkpt lat="43.67433" lon="1.5266">
        <ele>205.86</ele>
        <time>2017-10-14T08:58:48Z</time>
      </trkpt>
      <trkpt lat="43.6748" lon="1.52732">
        <ele>207.78</ele>
        <time>2017-10-14T08:59:01Z</time>
      </trkpt>
      <trkpt lat="43.67518" lon="1.52788">
        <ele>207.78</ele>
        <time>2017-10-14T08:59:11Z</time>
      </trkpt>
      <trkpt lat="43.6756" lon="1.52849">
        <ele>210.19</ele>
        <time>2017-10-14T08:59:23Z</time>
      </trkpt>
      <trkpt lat="43.6759" lon="1.52887">
        <ele>212.11</ele>
        <time>2017-10-14T08:59:33Z</time>
      </trkpt>
      <trkpt lat="43.67632" lon="1.52924">
        <ele>214.99</ele>
        <time>2017-10-14T08:59:45Z</time>
      </trkpt>
      <trkpt lat="43.67665" lon="1.52952">
        <ele>215.95</ele>
        <time>2017-10-14T08:59:52Z</time>
      </trkpt>
      <trkpt lat="43.6767" lon="1.52957">
        <ele>215.95</ele>
        <time>2017-10-14T08:59:53Z</time>
      </trkpt>
      <trkpt lat="43.67677" lon="1.52968">
        <ele>215.95</ele>
        <time>2017-10-14T08:59:55Z</time>
      </trkpt>
      <trkpt lat="43.67688" lon="1.5299">
        <ele>214.99</ele>
        <time>2017-10-14T09:00:01Z</time>
      </trkpt>
      <trkpt lat="43.67692" lon="1.52996">
        <ele>214.03</ele>
        <time>2017-10-14T09:00:05Z</time>
      </trkpt>
      <trkpt lat="43.67692" lon="1.52998">
        <ele>214.03</ele>
        <time>2017-10-14T09:00:06Z</time>
      </trkpt>
      <trkpt lat="43.67693" lon="1.53">
        <ele>214.03</ele>
        <time>2017-10-14T09:00:07Z</time>
      </trkpt>
      <trkpt lat="43.67695" lon="1.53002">
        <ele>214.03</ele>
        <time>2017-10-14T09:00:08Z</time>
      </trkpt>
      <trkpt lat="43.67696" lon="1.53005">
        <ele>214.03</ele>
        <time>2017-10-14T09:00:09Z</time>
      </trkpt>
      <trkpt lat="43.67698" lon="1.53008">
        <ele>214.03</ele>
        <time>2017-10-14T09:00:10Z</time>
      </trkpt>
      <trkpt lat="43.67704" lon="1.53023">
        <ele>214.03</ele>
        <time>2017-10-14T09:00:13Z</time>
      </trkpt>
      <trkpt lat="43.67705" lon="1.53029">
        <ele>214.03</ele>
        <time>2017-10-14T09:00:14Z</time>
      </trkpt>
      <trkpt lat="43.67708" lon="1.53043">
        <ele>214.03</ele>
        <time>2017-10-14T09:00:16Z</time>
      </trkpt>
      <trkpt lat="43.67709" lon="1.5305">
        <ele>214.03</ele>
        <time>2017-10-14T09:00:17Z</time>
      </trkpt>
      <trkpt lat="43.67714" lon="1.53085">
        <ele>213.07</ele>
        <time>2017-10-14T09:00:22Z</time>
      </trkpt>
      <trkpt lat="43.67726" lon="1.53171">
        <ele>213.07</ele>
        <time>2017-10-14T09:00:35Z</time>
      </trkpt>
      <trkpt lat="43.67735" lon="1.53245">
        <ele>215.95</ele>
        <time>2017-10-14T09:00:48Z</time>
      </trkpt>
      <trkpt lat="43.67741" lon="1.53283">
        <ele>216.91</ele>
        <time>2017-10-14T09:00:57Z</time>
      </trkpt>
      <trkpt lat="43.67745" lon="1.53284">
        <ele>217.88</ele>
        <time>2017-10-14T09:01:09Z</time>
      </trkpt>
      <trkpt lat="43.67747" lon="1.53287">
        <ele>217.88</ele>
        <time>2017-10-14T09:01:42Z</time>
      </trkpt>
      <trkpt lat="43.67748" lon="1.53289">
        <ele>217.88</ele>
        <time>2017-10-14T09:01:43Z</time>
      </trkpt>
      <trkpt lat="43.67749" lon="1.53292">
        <ele>217.88</ele>
        <time>2017-10-14T09:01:44Z</time>
      </trkpt>
      <trkpt lat="43.6775" lon="1.53295">
        <ele>217.88</ele>
        <time>2017-10-14T09:01:45Z</time>
      </trkpt>
      <trkpt lat="43.67751" lon="1.53298">
        <ele>217.88</ele>
        <time>2017-10-14T09:01:46Z</time>
      </trkpt>
      <trkpt lat="43.67761" lon="1.53349">
        <ele>216.91</ele>
        <time>2017-10-14T09:01:55Z</time>
      </trkpt>
      <trkpt lat="43.67782" lon="1.53451">
        <ele>214.99</ele>
        <time>2017-10-14T09:02:09Z</time>
      </trkpt>
      <trkpt lat="43.67814" lon="1.53545">
        <ele>213.07</ele>
        <time>2017-10-14T09:02:21Z</time>
      </trkpt>
      <trkpt lat="43.67861" lon="1.53647">
        <ele>209.22</ele>
        <time>2017-10-14T09:02:33Z</time>
      </trkpt>
      <trkpt lat="43.67904" lon="1.5374">
        <ele>205.86</ele>
        <time>2017-10-14T09:02:44Z</time>
      </trkpt>
      <trkpt lat="43.67947" lon="1.53823">
        <ele>203.94</ele>
        <time>2017-10-14T09:02:54Z</time>
      </trkpt>
      <trkpt lat="43.67973" lon="1.53864">
        <ele>202.98</ele>
        <time>2017-10-14T09:03:01Z</time>
      </trkpt>
      <trkpt lat="43.67986" lon="1.53881">
        <ele>202.01</ele>
        <time>2017-10-14T09:03:09Z</time>
      </trkpt>
      <trkpt lat="43.68015" lon="1.53911">
        <ele>201.05</ele>
        <time>2017-10-14T09:03:17Z</time>
      </trkpt>
      <trkpt lat="43.68082" lon="1.53977">
        <ele>198.17</ele>
        <time>2017-10-14T09:03:28Z</time>
      </trkpt>
      <trkpt lat="43.68148" lon="1.5402">
        <ele>194.8</ele>
        <time>2017-10-14T09:03:36Z</time>
      </trkpt>
      <trkpt lat="43.68214" lon="1.54046">
        <ele>190.96</ele>
        <time>2017-10-14T09:03:44Z</time>
      </trkpt>
      <trkpt lat="43.68285" lon="1.54061">
        <ele>190</ele>
        <time>2017-10-14T09:03:53Z</time>
      </trkpt>
      <trkpt lat="43.68358" lon="1.54075">
        <ele>189.04</ele>
        <time>2017-10-14T09:04:03Z</time>
      </trkpt>
      <trkpt lat="43.68425" lon="1.54091">
        <ele>189.04</ele>
        <time>2017-10-14T09:04:13Z</time>
      </trkpt>
      <trkpt lat="43.68521" lon="1.54118">
        <ele>190</ele>
        <time>2017-10-14T09:04:28Z</time>
      </trkpt>
      <trkpt lat="43.68619" lon="1.54151">
        <ele>190</ele>
        <time>2017-10-14T09:04:42Z</time>
      </trkpt>
      <trkpt lat="43.68704" lon="1.54189">
        <ele>188.08</ele>
        <time>2017-10-14T09:04:53Z</time>
      </trkpt>
      <trkpt lat="43.68764" lon="1.54262">
        <ele>186.15</ele>
        <time>2017-10-14T09:05:02Z</time>
      </trkpt>
      <trkpt lat="43.68809" lon="1.54333">
        <ele>182.79</ele>
        <time>2017-10-14T09:05:09Z</time>
      </trkpt>
      <trkpt lat="43.68824" lon="1.5437">
        <ele>181.83</ele>
        <time>2017-10-14T09:05:12Z</time>
      </trkpt>
      <trkpt lat="43.68828" lon="1.54384">
        <ele>180.87</ele>
        <time>2017-10-14T09:05:13Z</time>
      </trkpt>
      <trkpt lat="43.6884" lon="1.54469">
        <ele>177.98</ele>
        <time>2017-10-14T09:05:19Z</time>
      </trkpt>
      <trkpt lat="43.68854" lon="1.54566">
        <ele>175.1</ele>
        <time>2017-10-14T09:05:26Z</time>
      </trkpt>
      <trkpt lat="43.68882" lon="1.54658">
        <ele>172.21</ele>
        <time>2017-10-14T09:05:33Z</time>
      </trkpt>
      <trkpt lat="43.68905" lon="1.54722">
        <ele>168.85</ele>
        <time>2017-10-14T09:05:38Z</time>
      </trkpt>
      <trkpt lat="43.68925" lon="1.54756">
        <ele>166.93</ele>
        <time>2017-10-14T09:05:41Z</time>
      </trkpt>
      <trkpt lat="43.68933" lon="1.54766">
        <ele>166.93</ele>
        <time>2017-10-14T09:05:42Z</time>
      </trkpt>
      <trkpt lat="43.68941" lon="1.54775">
        <ele>165.96</ele>
        <time>2017-10-14T09:05:43Z</time>
      </trkpt>
      <trkpt lat="43.6895" lon="1.54784">
        <ele>165.96</ele>
        <time>2017-10-14T09:05:44Z</time>
      </trkpt>
      <trkpt lat="43.68959" lon="1.54791">
        <ele>165</ele>
        <time>2017-10-14T09:05:45Z</time>
      </trkpt>
      <trkpt lat="43.68968" lon="1.54797">
        <ele>165</ele>
        <time>2017-10-14T09:05:46Z</time>
      </trkpt>
      <trkpt lat="43.69029" lon="1.54823">
        <ele>162.12</ele>
        <time>2017-10-14T09:05:52Z</time>
      </trkpt>
      <trkpt lat="43.69093" lon="1.54845">
        <ele>157.79</ele>
        <time>2017-10-14T09:05:58Z</time>
      </trkpt>
      <trkpt lat="43.69132" lon="1.54868">
        <ele>154.91</ele>
        <time>2017-10-14T09:06:02Z</time>
      </trkpt>
      <trkpt lat="43.69175" lon="1.54903">
        <ele>152.03</ele>
        <time>2017-10-14T09:06:07Z</time>
      </trkpt>
      <trkpt lat="43.69225" lon="1.54946">
        <ele>149.14</ele>
        <time>2017-10-14T09:06:13Z</time>
      </trkpt>
      <trkpt lat="43.69278" lon="1.54995">
        <ele>145.78</ele>
        <time>2017-10-14T09:06:20Z</time>
      </trkpt>
      <trkpt lat="43.69352" lon="1.55088">
        <ele>142.89</ele>
        <time>2017-10-14T09:06:31Z</time>
      </trkpt>
      <trkpt lat="43.69416" lon="1.55177">
        <ele>140.01</ele>
        <time>2017-10-14T09:06:40Z</time>
      </trkpt>
      <trkpt lat="43.69465" lon="1.55248">
        <ele>136.16</ele>
        <time>2017-10-14T09:06:47Z</time>
      </trkpt>
      <trkpt lat="43.69482" lon="1.55275">
        <ele>135.2</ele>
        <time>2017-10-14T09:06:50Z</time>
      </trkpt>
      <trkpt lat="43.69498" lon="1.55306">
        <ele>132.8</ele>
        <time>2017-10-14T09:06:54Z</time>
      </trkpt>
      <trkpt lat="43.695" lon="1.55315">
        <ele>132.8</ele>
        <time>2017-10-14T09:06:55Z</time>
      </trkpt>
      <trkpt lat="43.69505" lon="1.55339">
        <ele>132.8</ele>
        <time>2017-10-14T09:06:58Z</time>
      </trkpt>
      <trkpt lat="43.69508" lon="1.55346">
        <ele>132.8</ele>
        <time>2017-10-14T09:06:59Z</time>
      </trkpt>
      <trkpt lat="43.69512" lon="1.55352">
        <ele>131.84</ele>
        <time>2017-10-14T09:07:00Z</time>
      </trkpt>
      <trkpt lat="43.69517" lon="1.55356">
        <ele>131.84</ele>
        <time>2017-10-14T09:07:01Z</time>
      </trkpt>
      <trkpt lat="43.69523" lon="1.55359">
        <ele>131.84</ele>
        <time>2017-10-14T09:07:02Z</time>
      </trkpt>
      <trkpt lat="43.6953" lon="1.55361">
        <ele>131.84</ele>
        <time>2017-10-14T09:07:03Z</time>
      </trkpt>
      <trkpt lat="43.69536" lon="1.55363">
        <ele>131.84</ele>
        <time>2017-10-14T09:07:04Z</time>
      </trkpt>
      <trkpt lat="43.69542" lon="1.55366">
        <ele>131.84</ele>
        <time>2017-10-14T09:07:05Z</time>
      </trkpt>
      <trkpt lat="43.69548" lon="1.55371">
        <ele>131.84</ele>
        <time>2017-10-14T09:07:06Z</time>
      </trkpt>
      <trkpt lat="43.69553" lon="1.55377">
        <ele>131.84</ele>
        <time>2017-10-14T09:07:07Z</time>
      </trkpt>
      <trkpt lat="43.69557" lon="1.55385">
        <ele>131.84</ele>
        <time>2017-10-14T09:07:08Z</time>
      </trkpt>
      <trkpt lat="43.69561" lon="1.55393">
        <ele>131.84</ele>
        <time>2017-10-14T09:07:09Z</time>
      </trkpt>
      <trkpt lat="43.69564" lon="1.55401">
        <ele>131.84</ele>
        <time>2017-10-14T09:07:10Z</time>
      </trkpt>
      <trkpt lat="43.69566" lon="1.55409">
        <ele>131.84</ele>
        <time>2017-10-14T09:07:11Z</time>
      </trkpt>
      <trkpt lat="43.69618" lon="1.55566">
        <ele>131.84</ele>
        <time>2017-10-14T09:07:30Z</time>
      </trkpt>
      <trkpt lat="43.69668" lon="1.55722">
        <ele>131.84</ele>
        <time>2017-10-14T09:07:49Z</time>
      </trkpt>
      <trkpt lat="43.69721" lon="1.55886">
        <ele>131.84</ele>
        <time>2017-10-14T09:08:09Z</time>
      </trkpt>
      <trkpt lat="43.6976" lon="1.56004">
        <ele>131.84</ele>
        <time>2017-10-14T09:08:23Z</time>
      </trkpt>
      <trkpt lat="43.69802" lon="1.56072">
        <ele>131.84</ele>
        <time>2017-10-14T09:08:33Z</time>
      </trkpt>
      <trkpt lat="43.69865" lon="1.56116">
        <ele>131.84</ele>
        <time>2017-10-14T09:08:44Z</time>
      </trkpt>
      <trkpt lat="43.69929" lon="1.56126">
        <ele>131.84</ele>
        <time>2017-10-14T09:08:55Z</time>
      </trkpt>
      <trkpt lat="43.70002" lon="1.5612">
        <ele>132.8</ele>
        <time>2017-10-14T09:09:08Z</time>
      </trkpt>
      <trkpt lat="43.7006" lon="1.56116">
        <ele>133.76</ele>
        <time>2017-10-14T09:09:20Z</time>
      </trkpt>
      <trkpt lat="43.70111" lon="1.56112">
        <ele>135.2</ele>
        <time>2017-10-14T09:09:31Z</time>
      </trkpt>
      <trkpt lat="43.70165" lon="1.56109">
        <ele>137.13</ele>
        <time>2017-10-14T09:09:43Z</time>
      </trkpt>
      <trkpt lat="43.70237" lon="1.56104">
        <ele>138.09</ele>
        <time>2017-10-14T09:09:58Z</time>
      </trkpt>
      <trkpt lat="43.70301" lon="1.561">
        <ele>139.05</ele>
        <time>2017-10-14T09:10:11Z</time>
      </trkpt>
      <trkpt lat="43.70363" lon="1.56097">
        <ele>140.01</ele>
        <time>2017-10-14T09:10:24Z</time>
      </trkpt>
      <trkpt lat="43.70412" lon="1.56096">
        <ele>140.97</ele>
        <time>2017-10-14T09:10:34Z</time>
      </trkpt>
      <trkpt lat="43.70472" lon="1.56091">
        <ele>141.93</ele>
        <time>2017-10-14T09:10:47Z</time>
      </trkpt>
      <trkpt lat="43.70516" lon="1.56083">
        <ele>143.85</ele>
        <time>2017-10-14T09:10:58Z</time>
      </trkpt>
      <trkpt lat="43.70549" lon="1.56067">
        <ele>145.78</ele>
        <time>2017-10-14T09:11:07Z</time>
      </trkpt>
      <trkpt lat="43.7057" lon="1.56052">
        <ele>147.22</ele>
        <time>2017-10-14T09:11:13Z</time>
      </trkpt>
      <trkpt lat="43.70573" lon="1.56049">
        <ele>147.22</ele>
        <time>2017-10-14T09:11:14Z</time>
      </trkpt>
      <trkpt lat="43.70607" lon="1.56021">
        <ele>149.14</ele>
        <time>2017-10-14T09:11:24Z</time>
      </trkpt>
      <trkpt lat="43.70642" lon="1.5599">
        <ele>151.06</ele>
        <time>2017-10-14T09:11:34Z</time>
      </trkpt>
      <trkpt lat="43.70674" lon="1.55963">
        <ele>152.03</ele>
        <time>2017-10-14T09:11:44Z</time>
      </trkpt>
      <trkpt lat="43.70704" lon="1.55935">
        <ele>153.95</ele>
        <time>2017-10-14T09:11:55Z</time>
      </trkpt>
      <trkpt lat="43.70737" lon="1.55902">
        <ele>155.87</ele>
        <time>2017-10-14T09:12:07Z</time>
      </trkpt>
      <trkpt lat="43.7077" lon="1.55873">
        <ele>157.79</ele>
        <time>2017-10-14T09:12:19Z</time>
      </trkpt>
      <trkpt lat="43.7079" lon="1.55858">
        <ele>160.2</ele>
        <time>2017-10-14T09:12:26Z</time>
      </trkpt>
      <trkpt lat="43.70821" lon="1.55843">
        <ele>161.16</ele>
        <time>2017-10-14T09:12:36Z</time>
      </trkpt>
      <trkpt lat="43.70853" lon="1.55838">
        <ele>163.08</ele>
        <time>2017-10-14T09:12:46Z</time>
      </trkpt>
      <trkpt lat="43.70887" lon="1.5584">
        <ele>165.96</ele>
        <time>2017-10-14T09:12:57Z</time>
      </trkpt>
      <trkpt lat="43.70923" lon="1.55861">
        <ele>167.89</ele>
        <time>2017-10-14T09:13:08Z</time>
      </trkpt>
      <trkpt lat="43.70955" lon="1.55899">
        <ele>169.81</ele>
        <time>2017-10-14T09:13:21Z</time>
      </trkpt>
      <trkpt lat="43.70974" lon="1.55927">
        <ele>172.21</ele>
        <time>2017-10-14T09:13:31Z</time>
      </trkpt>
      <trkpt lat="43.70996" lon="1.55956">
        <ele>174.14</ele>
        <time>2017-10-14T09:13:40Z</time>
      </trkpt>
      <trkpt lat="43.71021" lon="1.55991">
        <ele>176.06</ele>
        <time>2017-10-14T09:13:51Z</time>
      </trkpt>
      <trkpt lat="43.7105" lon="1.56027">
        <ele>177.98</ele>
        <time>2017-10-14T09:14:03Z</time>
      </trkpt>
      <trkpt lat="43.7109" lon="1.56064">
        <ele>180.87</ele>
        <time>2017-10-14T09:14:17Z</time>
      </trkpt>
      <trkpt lat="43.71139" lon="1.56085">
        <ele>181.83</ele>
        <time>2017-10-14T09:14:30Z</time>
      </trkpt>
      <trkpt lat="43.71189" lon="1.56094">
        <ele>184.23</ele>
        <time>2017-10-14T09:14:44Z</time>
      </trkpt>
      <trkpt lat="43.71224" lon="1.56098">
        <ele>185.19</ele>
        <time>2017-10-14T09:14:53Z</time>
      </trkpt>
      <trkpt lat="43.71241" lon="1.56099">
        <ele>185.19</ele>
        <time>2017-10-14T09:14:57Z</time>
      </trkpt>
      <trkpt lat="43.71303" lon="1.56098">
        <ele>187.11</ele>
        <time>2017-10-14T09:15:10Z</time>
      </trkpt>
      <trkpt lat="43.71359" lon="1.56095">
        <ele>187.11</ele>
        <time>2017-10-14T09:15:21Z</time>
      </trkpt>
      <trkpt lat="43.71411" lon="1.56107">
        <ele>188.08</ele>
        <time>2017-10-14T09:15:32Z</time>
      </trkpt>
      <trkpt lat="43.71481" lon="1.5615">
        <ele>190</ele>
        <time>2017-10-14T09:15:48Z</time>
      </trkpt>
      <trkpt lat="43.71497" lon="1.56162">
        <ele>190</ele>
        <time>2017-10-14T09:15:52Z</time>
      </trkpt>
      <trkpt lat="43.715" lon="1.56167">
        <ele>190</ele>
        <time>2017-10-14T09:15:53Z</time>
      </trkpt>
      <trkpt lat="43.71502" lon="1.56172">
        <ele>190</ele>
        <time>2017-10-14T09:15:54Z</time>
      </trkpt>
      <trkpt lat="43.71506" lon="1.56184">
        <ele>190.96</ele>
        <time>2017-10-14T09:15:56Z</time>
      </trkpt>
      <trkpt lat="43.71508" lon="1.56189">
        <ele>190.96</ele>
        <time>2017-10-14T09:15:57Z</time>
      </trkpt>
      <trkpt lat="43.71512" lon="1.56194">
        <ele>190.96</ele>
        <time>2017-10-14T09:15:58Z</time>
      </trkpt>
      <trkpt lat="43.71515" lon="1.56198">
        <ele>190.96</ele>
        <time>2017-10-14T09:15:59Z</time>
      </trkpt>
      <trkpt lat="43.71519" lon="1.56201">
        <ele>190.96</ele>
        <time>2017-10-14T09:16:00Z</time>
      </trkpt>
      <trkpt lat="43.71523" lon="1.56204">
        <ele>190.96</ele>
        <time>2017-10-14T09:16:01Z</time>
      </trkpt>
      <trkpt lat="43.71527" lon="1.56207">
        <ele>190.96</ele>
        <time>2017-10-14T09:16:02Z</time>
      </trkpt>
      <trkpt lat="43.71531" lon="1.56211">
        <ele>190.96</ele>
        <time>2017-10-14T09:16:03Z</time>
      </trkpt>
      <trkpt lat="43.71534" lon="1.56215">
        <ele>190.96</ele>
        <time>2017-10-14T09:16:04Z</time>
      </trkpt>
      <trkpt lat="43.71537" lon="1.5622">
        <ele>190.96</ele>
        <time>2017-10-14T09:16:05Z</time>
      </trkpt>
      <trkpt lat="43.7154" lon="1.56226">
        <ele>190.96</ele>
        <time>2017-10-14T09:16:06Z</time>
      </trkpt>
      <trkpt lat="43.71542" lon="1.56232">
        <ele>191.92</ele>
        <time>2017-10-14T09:16:07Z</time>
      </trkpt>
      <trkpt lat="43.71568" lon="1.56325">
        <ele>192.88</ele>
        <time>2017-10-14T09:16:22Z</time>
      </trkpt>
      <trkpt lat="43.71574" lon="1.56439">
        <ele>193.84</ele>
        <time>2017-10-14T09:16:38Z</time>
      </trkpt>
      <trkpt lat="43.71581" lon="1.56572">
        <ele>194.8</ele>
        <time>2017-10-14T09:16:56Z</time>
      </trkpt>
      <trkpt lat="43.71583" lon="1.56674">
        <ele>195.77</ele>
        <time>2017-10-14T09:17:10Z</time>
      </trkpt>
      <trkpt lat="43.71581" lon="1.5668">
        <ele>195.77</ele>
        <time>2017-10-14T09:17:11Z</time>
      </trkpt>
      <trkpt lat="43.71579" lon="1.56686">
        <ele>195.77</ele>
        <time>2017-10-14T09:17:12Z</time>
      </trkpt>
      <trkpt lat="43.71576" lon="1.56692">
        <ele>195.77</ele>
        <time>2017-10-14T09:17:13Z</time>
      </trkpt>
      <trkpt lat="43.71572" lon="1.56698">
        <ele>195.77</ele>
        <time>2017-10-14T09:17:14Z</time>
      </trkpt>
      <trkpt lat="43.71569" lon="1.56703">
        <ele>195.77</ele>
        <time>2017-10-14T09:17:15Z</time>
      </trkpt>
      <trkpt lat="43.71567" lon="1.5671">
        <ele>195.77</ele>
        <time>2017-10-14T09:17:16Z</time>
      </trkpt>
      <trkpt lat="43.71565" lon="1.56716">
        <ele>195.77</ele>
        <time>2017-10-14T09:17:17Z</time>
      </trkpt>
      <trkpt lat="43.71565" lon="1.56723">
        <ele>195.77</ele>
        <time>2017-10-14T09:17:18Z</time>
      </trkpt>
      <trkpt lat="43.71565" lon="1.5673">
        <ele>195.77</ele>
        <time>2017-10-14T09:17:19Z</time>
      </trkpt>
      <trkpt lat="43.71566" lon="1.56737">
        <ele>197.21</ele>
        <time>2017-10-14T09:17:20Z</time>
      </trkpt>
      <trkpt lat="43.71568" lon="1.56742">
        <ele>197.21</ele>
        <time>2017-10-14T09:17:21Z</time>
      </trkpt>
      <trkpt lat="43.71571" lon="1.56747">
        <ele>197.21</ele>
        <time>2017-10-14T09:17:22Z</time>
      </trkpt>
      <trkpt lat="43.71574" lon="1.56751">
        <ele>197.21</ele>
        <time>2017-10-14T09:17:23Z</time>
      </trkpt>
      <trkpt lat="43.71578" lon="1.56755">
        <ele>197.21</ele>
        <time>2017-10-14T09:17:24Z</time>
      </trkpt>
      <trkpt lat="43.71582" lon="1.56758">
        <ele>197.21</ele>
        <time>2017-10-14T09:17:25Z</time>
      </trkpt>
      <trkpt lat="43.71585" lon="1.56761">
        <ele>197.21</ele>
        <time>2017-10-14T09:17:26Z</time>
      </trkpt>
      <trkpt lat="43.71589" lon="1.56765">
        <ele>197.21</ele>
        <time>2017-10-14T09:17:27Z</time>
      </trkpt>
      <trkpt lat="43.71592" lon="1.56769">
        <ele>197.21</ele>
        <time>2017-10-14T09:17:28Z</time>
      </trkpt>
      <trkpt lat="43.71595" lon="1.56775">
        <ele>198.17</ele>
        <time>2017-10-14T09:17:29Z</time>
      </trkpt>
      <trkpt lat="43.71608" lon="1.568">
        <ele>198.17</ele>
        <time>2017-10-14T09:17:34Z</time>
      </trkpt>
      <trkpt lat="43.71611" lon="1.56805">
        <ele>199.13</ele>
        <time>2017-10-14T09:17:35Z</time>
      </trkpt>
      <trkpt lat="43.71646" lon="1.56841">
        <ele>201.05</ele>
        <time>2017-10-14T09:17:47Z</time>
      </trkpt>
      <trkpt lat="43.71676" lon="1.56866">
        <ele>203.94</ele>
        <time>2017-10-14T09:17:57Z</time>
      </trkpt>
      <trkpt lat="43.71707" lon="1.56905">
        <ele>205.86</ele>
        <time>2017-10-14T09:18:10Z</time>
      </trkpt>
      <trkpt lat="43.71721" lon="1.56956">
        <ele>209.22</ele>
        <time>2017-10-14T09:18:21Z</time>
      </trkpt>
      <trkpt lat="43.71723" lon="1.57034">
        <ele>209.22</ele>
        <time>2017-10-14T09:18:33Z</time>
      </trkpt>
      <trkpt lat="43.71723" lon="1.57041">
        <ele>209.22</ele>
        <time>2017-10-14T09:18:34Z</time>
      </trkpt>
      <trkpt lat="43.71726" lon="1.57092">
        <ele>209.22</ele>
        <time>2017-10-14T09:18:41Z</time>
      </trkpt>
      <trkpt lat="43.71727" lon="1.57099">
        <ele>209.22</ele>
        <time>2017-10-14T09:18:42Z</time>
      </trkpt>
      <trkpt lat="43.71728" lon="1.5712">
        <ele>210.19</ele>
        <time>2017-10-14T09:18:45Z</time>
      </trkpt>
      <trkpt lat="43.71736" lon="1.57191">
        <ele>210.19</ele>
        <time>2017-10-14T09:18:55Z</time>
      </trkpt>
      <trkpt lat="43.71747" lon="1.57284">
        <ele>210.19</ele>
        <time>2017-10-14T09:19:05Z</time>
      </trkpt>
      <trkpt lat="43.71753" lon="1.57434">
        <ele>206.82</ele>
        <time>2017-10-14T09:19:19Z</time>
      </trkpt>
      <trkpt lat="43.71758" lon="1.57517">
        <ele>205.86</ele>
        <time>2017-10-14T09:19:28Z</time>
      </trkpt>
      <trkpt lat="43.71774" lon="1.57615">
        <ele>205.86</ele>
        <time>2017-10-14T09:19:40Z</time>
      </trkpt>
      <trkpt lat="43.71785" lon="1.57681">
        <ele>206.82</ele>
        <time>2017-10-14T09:19:49Z</time>
      </trkpt>
      <trkpt lat="43.71794" lon="1.57728">
        <ele>207.78</ele>
        <time>2017-10-14T09:19:56Z</time>
      </trkpt>
      <trkpt lat="43.7181" lon="1.57794">
        <ele>209.22</ele>
        <time>2017-10-14T09:20:06Z</time>
      </trkpt>
      <trkpt lat="43.71823" lon="1.57817">
        <ele>209.22</ele>
        <time>2017-10-14T09:20:10Z</time>
      </trkpt>
      <trkpt lat="43.71867" lon="1.57872">
        <ele>211.15</ele>
        <time>2017-10-14T09:20:22Z</time>
      </trkpt>
      <trkpt lat="43.71907" lon="1.57926">
        <ele>212.11</ele>
        <time>2017-10-14T09:20:34Z</time>
      </trkpt>
      <trkpt lat="43.71927" lon="1.57967">
        <ele>213.07</ele>
        <time>2017-10-14T09:20:42Z</time>
      </trkpt>
      <trkpt lat="43.71943" lon="1.58">
        <ele>214.03</ele>
        <time>2017-10-14T09:20:49Z</time>
      </trkpt>
      <trkpt lat="43.71946" lon="1.58005">
        <ele>214.03</ele>
        <time>2017-10-14T09:20:50Z</time>
      </trkpt>
      <trkpt lat="43.71962" lon="1.58041">
        <ele>215.95</ele>
        <time>2017-10-14T09:20:58Z</time>
      </trkpt>
      <trkpt lat="43.71982" lon="1.58088">
        <ele>217.88</ele>
        <time>2017-10-14T09:21:09Z</time>
      </trkpt>
      <trkpt lat="43.72011" lon="1.58157">
        <ele>220.76</ele>
        <time>2017-10-14T09:21:24Z</time>
      </trkpt>
      <trkpt lat="43.72013" lon="1.58163">
        <ele>220.76</ele>
        <time>2017-10-14T09:21:25Z</time>
      </trkpt>
      <trkpt lat="43.72036" lon="1.58237">
        <ele>222.2</ele>
        <time>2017-10-14T09:21:37Z</time>
      </trkpt>
      <trkpt lat="43.72056" lon="1.58307">
        <ele>220.76</ele>
        <time>2017-10-14T09:21:46Z</time>
      </trkpt>
      <trkpt lat="43.72077" lon="1.58356">
        <ele>219.8</ele>
        <time>2017-10-14T09:21:53Z</time>
      </trkpt>
      <trkpt lat="43.72112" lon="1.58424">
        <ele>220.76</ele>
        <time>2017-10-14T09:22:05Z</time>
      </trkpt>
      <trkpt lat="43.72141" lon="1.58478">
        <ele>223.16</ele>
        <time>2017-10-14T09:22:17Z</time>
      </trkpt>
      <trkpt lat="43.72175" lon="1.58529">
        <ele>225.09</ele>
        <time>2017-10-14T09:22:30Z</time>
      </trkpt>
      <trkpt lat="43.72188" lon="1.58546">
        <ele>225.09</ele>
        <time>2017-10-14T09:22:34Z</time>
      </trkpt>
      <trkpt lat="43.72239" lon="1.58601">
        <ele>226.05</ele>
        <time>2017-10-14T09:22:46Z</time>
      </trkpt>
      <trkpt lat="43.72279" lon="1.58651">
        <ele>225.09</ele>
        <time>2017-10-14T09:22:55Z</time>
      </trkpt>
      <trkpt lat="43.72289" lon="1.5867">
        <ele>225.09</ele>
        <time>2017-10-14T09:22:58Z</time>
      </trkpt>
      <trkpt lat="43.72298" lon="1.58693">
        <ele>225.09</ele>
        <time>2017-10-14T09:23:04Z</time>
      </trkpt>
      <trkpt lat="43.72299" lon="1.58695">
        <ele>225.09</ele>
        <time>2017-10-14T09:23:42Z</time>
      </trkpt>
      <trkpt lat="43.723" lon="1.58697">
        <ele>225.09</ele>
        <time>2017-10-14T09:23:43Z</time>
      </trkpt>
      <trkpt lat="43.723" lon="1.587">
        <ele>225.09</ele>
        <time>2017-10-14T09:23:44Z</time>
      </trkpt>
      <trkpt lat="43.72309" lon="1.58744">
        <ele>225.09</ele>
        <time>2017-10-14T09:23:53Z</time>
      </trkpt>
      <trkpt lat="43.7231" lon="1.58758">
        <ele>225.09</ele>
        <time>2017-10-14T09:23:55Z</time>
      </trkpt>
      <trkpt lat="43.7231" lon="1.58811">
        <ele>224.12</ele>
        <time>2017-10-14T09:24:02Z</time>
      </trkpt>
      <trkpt lat="43.72312" lon="1.5885">
        <ele>224.12</ele>
        <time>2017-10-14T09:24:07Z</time>
      </trkpt>
      <trkpt lat="43.72324" lon="1.58905">
        <ele>223.16</ele>
        <time>2017-10-14T09:24:14Z</time>
      </trkpt>
      <trkpt lat="43.72342" lon="1.58944">
        <ele>223.16</ele>
        <time>2017-10-14T09:24:19Z</time>
      </trkpt>
      <trkpt lat="43.72352" lon="1.58958">
        <ele>223.16</ele>
        <time>2017-10-14T09:24:21Z</time>
      </trkpt>
      <trkpt lat="43.72417" lon="1.59003">
        <ele>220.76</ele>
        <time>2017-10-14T09:24:30Z</time>
      </trkpt>
      <trkpt lat="43.72489" lon="1.59014">
        <ele>217.88</ele>
        <time>2017-10-14T09:24:37Z</time>
      </trkpt>
      <trkpt lat="43.72556" lon="1.59011">
        <ele>214.03</ele>
        <time>2017-10-14T09:24:43Z</time>
      </trkpt>
      <trkpt lat="43.72614" lon="1.59009">
        <ele>211.15</ele>
        <time>2017-10-14T09:24:48Z</time>
      </trkpt>
      <trkpt lat="43.72649" lon="1.59008">
        <ele>207.78</ele>
        <time>2017-10-14T09:24:51Z</time>
      </trkpt>
      <trkpt lat="43.72706" lon="1.59006">
        <ele>203.94</ele>
        <time>2017-10-14T09:24:56Z</time>
      </trkpt>
      <trkpt lat="43.7276" lon="1.59003">
        <ele>201.05</ele>
        <time>2017-10-14T09:25:01Z</time>
      </trkpt>
      <trkpt lat="43.72869" lon="1.58985">
        <ele>198.17</ele>
        <time>2017-10-14T09:25:12Z</time>
      </trkpt>
      <trkpt lat="43.72956" lon="1.58991">
        <ele>194.8</ele>
        <time>2017-10-14T09:25:20Z</time>
      </trkpt>
      <trkpt lat="43.7301" lon="1.58998">
        <ele>191.92</ele>
        <time>2017-10-14T09:25:25Z</time>
      </trkpt>
      <trkpt lat="43.73063" lon="1.59006">
        <ele>188.08</ele>
        <time>2017-10-14T09:25:30Z</time>
      </trkpt>
      <trkpt lat="43.73145" lon="1.59016">
        <ele>186.15</ele>
        <time>2017-10-14T09:25:39Z</time>
      </trkpt>
      <trkpt lat="43.73256" lon="1.59027">
        <ele>185.19</ele>
        <time>2017-10-14T09:25:52Z</time>
      </trkpt>
      <trkpt lat="43.7335" lon="1.59035">
        <ele>182.79</ele>
        <time>2017-10-14T09:26:04Z</time>
      </trkpt>
      <trkpt lat="43.73426" lon="1.59045">
        <ele>184.23</ele>
        <time>2017-10-14T09:26:16Z</time>
      </trkpt>
      <trkpt lat="43.7345" lon="1.59056">
        <ele>184.23</ele>
        <time>2017-10-14T09:26:20Z</time>
      </trkpt>
      <trkpt lat="43.73502" lon="1.59108">
        <ele>185.19</ele>
        <time>2017-10-14T09:26:30Z</time>
      </trkpt>
      <trkpt lat="43.73556" lon="1.59159">
        <ele>185.19</ele>
        <time>2017-10-14T09:26:41Z</time>
      </trkpt>
      <trkpt lat="43.73561" lon="1.59161">
        <ele>185.19</ele>
        <time>2017-10-14T09:26:42Z</time>
      </trkpt>
      <trkpt lat="43.73566" lon="1.59162">
        <ele>185.19</ele>
        <time>2017-10-14T09:26:43Z</time>
      </trkpt>
      <trkpt lat="43.73573" lon="1.59162">
        <ele>185.19</ele>
        <time>2017-10-14T09:26:44Z</time>
      </trkpt>
      <trkpt lat="43.73579" lon="1.59163">
        <ele>185.19</ele>
        <time>2017-10-14T09:26:45Z</time>
      </trkpt>
      <trkpt lat="43.73656" lon="1.5916">
        <ele>185.19</ele>
        <time>2017-10-14T09:26:55Z</time>
      </trkpt>
      <trkpt lat="43.73729" lon="1.5915">
        <ele>181.83</ele>
        <time>2017-10-14T09:27:04Z</time>
      </trkpt>
      <trkpt lat="43.73829" lon="1.59137">
        <ele>180.87</ele>
        <time>2017-10-14T09:27:17Z</time>
      </trkpt>
      <trkpt lat="43.73942" lon="1.59125">
        <ele>179.9</ele>
        <time>2017-10-14T09:27:33Z</time>
      </trkpt>
      <trkpt lat="43.74037" lon="1.59116">
        <ele>180.87</ele>
        <time>2017-10-14T09:27:47Z</time>
      </trkpt>
      <trkpt lat="43.74107" lon="1.59129">
        <ele>179.9</ele>
        <time>2017-10-14T09:27:57Z</time>
      </trkpt>
      <trkpt lat="43.74141" lon="1.59151">
        <ele>179.9</ele>
        <time>2017-10-14T09:28:02Z</time>
      </trkpt>
      <trkpt lat="43.74194" lon="1.59219">
        <ele>177.98</ele>
        <time>2017-10-14T09:28:11Z</time>
      </trkpt>
      <trkpt lat="43.7422" lon="1.59309">
        <ele>176.06</ele>
        <time>2017-10-14T09:28:19Z</time>
      </trkpt>
      <trkpt lat="43.74234" lon="1.59415">
        <ele>173.17</ele>
        <time>2017-10-14T09:28:28Z</time>
      </trkpt>
      <trkpt lat="43.74241" lon="1.59488">
        <ele>169.81</ele>
        <time>2017-10-14T09:28:34Z</time>
      </trkpt>
      <trkpt lat="43.74255" lon="1.59614">
        <ele>166.93</ele>
        <time>2017-10-14T09:28:44Z</time>
      </trkpt>
      <trkpt lat="43.7428" lon="1.59709">
        <ele>163.08</ele>
        <time>2017-10-14T09:28:52Z</time>
      </trkpt>
      <trkpt lat="43.7431" lon="1.59809">
        <ele>160.2</ele>
        <time>2017-10-14T09:29:01Z</time>
      </trkpt>
      <trkpt lat="43.74349" lon="1.59934">
        <ele>157.79</ele>
        <time>2017-10-14T09:29:12Z</time>
      </trkpt>
      <trkpt lat="43.74386" lon="1.60024">
        <ele>154.91</ele>
        <time>2017-10-14T09:29:20Z</time>
      </trkpt>
      <trkpt lat="43.74404" lon="1.60076">
        <ele>152.03</ele>
        <time>2017-10-14T09:29:26Z</time>
      </trkpt>
      <trkpt lat="43.74405" lon="1.60094">
        <ele>151.06</ele>
        <time>2017-10-14T09:29:32Z</time>
      </trkpt>
      <trkpt lat="43.74396" lon="1.60113">
        <ele>151.06</ele>
        <time>2017-10-14T09:29:37Z</time>
      </trkpt>
      <trkpt lat="43.74395" lon="1.60118">
        <ele>151.06</ele>
        <time>2017-10-14T09:29:38Z</time>
      </trkpt>
      <trkpt lat="43.74395" lon="1.60124">
        <ele>151.06</ele>
        <time>2017-10-14T09:29:39Z</time>
      </trkpt>
      <trkpt lat="43.74396" lon="1.6013">
        <ele>151.06</ele>
        <time>2017-10-14T09:29:40Z</time>
      </trkpt>
      <trkpt lat="43.74399" lon="1.60135">
        <ele>151.06</ele>
        <time>2017-10-14T09:29:41Z</time>
      </trkpt>
      <trkpt lat="43.74402" lon="1.60139">
        <ele>151.06</ele>
        <time>2017-10-14T09:29:42Z</time>
      </trkpt>
      <trkpt lat="43.74406" lon="1.60142">
        <ele>151.06</ele>
        <time>2017-10-14T09:29:43Z</time>
      </trkpt>
      <trkpt lat="43.7441" lon="1.60144">
        <ele>150.1</ele>
        <time>2017-10-14T09:29:44Z</time>
      </trkpt>
      <trkpt lat="43.74414" lon="1.60145">
        <ele>150.1</ele>
        <time>2017-10-14T09:29:45Z</time>
      </trkpt>
      <trkpt lat="43.7444" lon="1.60167">
        <ele>150.1</ele>
        <time>2017-10-14T09:29:53Z</time>
      </trkpt>
      <trkpt lat="43.74443" lon="1.60172">
        <ele>150.1</ele>
        <time>2017-10-14T09:29:54Z</time>
      </trkpt>
      <trkpt lat="43.74445" lon="1.60178">
        <ele>150.1</ele>
        <time>2017-10-14T09:29:55Z</time>
      </trkpt>
      <trkpt lat="43.74457" lon="1.60256">
        <ele>151.06</ele>
        <time>2017-10-14T09:30:05Z</time>
      </trkpt>
      <trkpt lat="43.74478" lon="1.60377">
        <ele>148.18</ele>
        <time>2017-10-14T09:30:17Z</time>
      </trkpt>
      <trkpt lat="43.74501" lon="1.60474">
        <ele>144.82</ele>
        <time>2017-10-14T09:30:25Z</time>
      </trkpt>
      <trkpt lat="43.74521" lon="1.60552">
        <ele>140.97</ele>
        <time>2017-10-14T09:30:31Z</time>
      </trkpt>
      <trkpt lat="43.74542" lon="1.60602">
        <ele>138.09</ele>
        <time>2017-10-14T09:30:35Z</time>
      </trkpt>
      <trkpt lat="43.74564" lon="1.60635">
        <ele>136.16</ele>
        <time>2017-10-14T09:30:38Z</time>
      </trkpt>
      <trkpt lat="43.746" lon="1.60669">
        <ele>133.76</ele>
        <time>2017-10-14T09:30:42Z</time>
      </trkpt>
      <trkpt lat="43.74656" lon="1.60704">
        <ele>130.88</ele>
        <time>2017-10-14T09:30:48Z</time>
      </trkpt>
      <trkpt lat="43.74732" lon="1.60748">
        <ele>127.99</ele>
        <time>2017-10-14T09:30:57Z</time>
      </trkpt>
      <trkpt lat="43.74795" lon="1.608">
        <ele>126.07</ele>
        <time>2017-10-14T09:31:07Z</time>
      </trkpt>
      <trkpt lat="43.74838" lon="1.6085">
        <ele>126.07</ele>
        <time>2017-10-14T09:31:17Z</time>
      </trkpt>
      <trkpt lat="43.74841" lon="1.60853">
        <ele>126.07</ele>
        <time>2017-10-14T09:31:18Z</time>
      </trkpt>
      <trkpt lat="43.74845" lon="1.60855">
        <ele>126.07</ele>
        <time>2017-10-14T09:31:19Z</time>
      </trkpt>
      <trkpt lat="43.7485" lon="1.60855">
        <ele>126.07</ele>
        <time>2017-10-14T09:31:20Z</time>
      </trkpt>
      <trkpt lat="43.74854" lon="1.60854">
        <ele>125.11</ele>
        <time>2017-10-14T09:31:21Z</time>
      </trkpt>
      <trkpt lat="43.74857" lon="1.60851">
        <ele>125.11</ele>
        <time>2017-10-14T09:31:22Z</time>
      </trkpt>
      <trkpt lat="43.7486" lon="1.60846">
        <ele>125.11</ele>
        <time>2017-10-14T09:31:23Z</time>
      </trkpt>
      <trkpt lat="43.74864" lon="1.60842">
        <ele>125.11</ele>
        <time>2017-10-14T09:31:24Z</time>
      </trkpt>
      <trkpt lat="43.7487" lon="1.60831">
        <ele>125.11</ele>
        <time>2017-10-14T09:31:26Z</time>
      </trkpt>
      <trkpt lat="43.74882" lon="1.60818">
        <ele>125.11</ele>
        <time>2017-10-14T09:31:29Z</time>
      </trkpt>
      <trkpt lat="43.74886" lon="1.60815">
        <ele>125.11</ele>
        <time>2017-10-14T09:31:30Z</time>
      </trkpt>
      <trkpt lat="43.74948" lon="1.60784">
        <ele>125.11</ele>
        <time>2017-10-14T09:31:41Z</time>
      </trkpt>
      <trkpt lat="43.74992" lon="1.60766">
        <ele>125.11</ele>
        <time>2017-10-14T09:31:48Z</time>
      </trkpt>
      <trkpt lat="43.74999" lon="1.60765">
        <ele>124.15</ele>
        <time>2017-10-14T09:31:49Z</time>
      </trkpt>
      <trkpt lat="43.75006" lon="1.60764">
        <ele>124.15</ele>
        <time>2017-10-14T09:31:50Z</time>
      </trkpt>
      <trkpt lat="43.75073" lon="1.6078">
        <ele>123.19</ele>
        <time>2017-10-14T09:32:00Z</time>
      </trkpt>
      <trkpt lat="43.75139" lon="1.60836">
        <ele>123.19</ele>
        <time>2017-10-14T09:32:12Z</time>
      </trkpt>
      <trkpt lat="43.75223" lon="1.60937">
        <ele>122.22</ele>
        <time>2017-10-14T09:32:29Z</time>
      </trkpt>
      <trkpt lat="43.75302" lon="1.61052">
        <ele>122.22</ele>
        <time>2017-10-14T09:32:47Z</time>
      </trkpt>
      <trkpt lat="43.75352" lon="1.61133">
        <ele>120.78</ele>
        <time>2017-10-14T09:32:59Z</time>
      </trkpt>
      <trkpt lat="43.75427" lon="1.61222">
        <ele>119.82</ele>
        <time>2017-10-14T09:33:13Z</time>
      </trkpt>
      <trkpt lat="43.7551" lon="1.61332">
        <ele>117.9</ele>
        <time>2017-10-14T09:33:30Z</time>
      </trkpt>
      <trkpt lat="43.75601" lon="1.61466">
        <ele>116.94</ele>
        <time>2017-10-14T09:33:51Z</time>
      </trkpt>
      <trkpt lat="43.7567" lon="1.61541">
        <ele>117.9</ele>
        <time>2017-10-14T09:34:05Z</time>
      </trkpt>
      <trkpt lat="43.75766" lon="1.61625">
        <ele>115.98</ele>
        <time>2017-10-14T09:34:22Z</time>
      </trkpt>
      <trkpt lat="43.75876" lon="1.61701">
        <ele>115.98</ele>
        <time>2017-10-14T09:34:41Z</time>
      </trkpt>
      <trkpt lat="43.75971" lon="1.61743">
        <ele>115.01</ele>
        <time>2017-10-14T09:34:57Z</time>
      </trkpt>
      <trkpt lat="43.76028" lon="1.61766">
        <ele>115.01</ele>
        <time>2017-10-14T09:35:07Z</time>
      </trkpt>
      <trkpt lat="43.76092" lon="1.61803">
        <ele>114.05</ele>
        <time>2017-10-14T09:35:18Z</time>
      </trkpt>
      <trkpt lat="43.76165" lon="1.61861">
        <ele>114.05</ele>
        <time>2017-10-14T09:35:29Z</time>
      </trkpt>
      <trkpt lat="43.76227" lon="1.61943">
        <ele>112.13</ele>
        <time>2017-10-14T09:35:40Z</time>
      </trkpt>
      <trkpt lat="43.76294" lon="1.62033">
        <ele>108.77</ele>
        <time>2017-10-14T09:35:53Z</time>
      </trkpt>
      <trkpt lat="43.76378" lon="1.62125">
        <ele>108.77</ele>
        <time>2017-10-14T09:36:09Z</time>
      </trkpt>
      <trkpt lat="43.76477" lon="1.62231">
        <ele>107.81</ele>
        <time>2017-10-14T09:36:28Z</time>
      </trkpt>
      <trkpt lat="43.76552" lon="1.62314">
        <ele>106.84</ele>
        <time>2017-10-14T09:36:43Z</time>
      </trkpt>
      <trkpt lat="43.7664" lon="1.62401">
        <ele>106.84</ele>
        <time>2017-10-14T09:37:00Z</time>
      </trkpt>
      <trkpt lat="43.76707" lon="1.62436">
        <ele>106.84</ele>
        <time>2017-10-14T09:37:11Z</time>
      </trkpt>
      <trkpt lat="43.76778" lon="1.62492">
        <ele>105.88</ele>
        <time>2017-10-14T09:37:24Z</time>
      </trkpt>
      <trkpt lat="43.7685" lon="1.62521">
        <ele>105.88</ele>
        <time>2017-10-14T09:37:36Z</time>
      </trkpt>
      <trkpt lat="43.76949" lon="1.62544">
        <ele>105.88</ele>
        <time>2017-10-14T09:37:52Z</time>
      </trkpt>
      <trkpt lat="43.77032" lon="1.62587">
        <ele>104.92</ele>
        <time>2017-10-14T09:38:06Z</time>
      </trkpt>
      <trkpt lat="43.77131" lon="1.62648">
        <ele>104.92</ele>
        <time>2017-10-14T09:38:23Z</time>
      </trkpt>
      <trkpt lat="43.77213" lon="1.62672">
        <ele>104.92</ele>
        <time>2017-10-14T09:38:36Z</time>
      </trkpt>
      <trkpt lat="43.77293" lon="1.62707">
        <ele>103.96</ele>
        <time>2017-10-14T09:38:48Z</time>
      </trkpt>
      <trkpt lat="43.77363" lon="1.62766">
        <ele>102.04</ele>
        <time>2017-10-14T09:39:00Z</time>
      </trkpt>
      <trkpt lat="43.77437" lon="1.6282">
        <ele>102.04</ele>
        <time>2017-10-14T09:39:13Z</time>
      </trkpt>
      <trkpt lat="43.7752" lon="1.62856">
        <ele>102.04</ele>
        <time>2017-10-14T09:39:27Z</time>
      </trkpt>
      <trkpt lat="43.77578" lon="1.6288">
        <ele>101.08</ele>
        <time>2017-10-14T09:39:37Z</time>
      </trkpt>
      <trkpt lat="43.77653" lon="1.62903">
        <ele>100.11</ele>
        <time>2017-10-14T09:39:49Z</time>
      </trkpt>
      <trkpt lat="43.77658" lon="1.62907">
        <ele>100.11</ele>
        <time>2017-10-14T09:39:50Z</time>
      </trkpt>
      <trkpt lat="43.77663" lon="1.62911">
        <ele>100.11</ele>
        <time>2017-10-14T09:39:51Z</time>
      </trkpt>
      <trkpt lat="43.77705" lon="1.62957">
        <ele>99.15</ele>
        <time>2017-10-14T09:40:00Z</time>
      </trkpt>
      <trkpt lat="43.77708" lon="1.62964">
        <ele>99.15</ele>
        <time>2017-10-14T09:40:01Z</time>
      </trkpt>
      <trkpt lat="43.77711" lon="1.62971">
        <ele>99.15</ele>
        <time>2017-10-14T09:40:02Z</time>
      </trkpt>
      <trkpt lat="43.77713" lon="1.62978">
        <ele>99.15</ele>
        <time>2017-10-14T09:40:03Z</time>
      </trkpt>
      <trkpt lat="43.77713" lon="1.62985">
        <ele>99.15</ele>
        <time>2017-10-14T09:40:04Z</time>
      </trkpt>
      <trkpt lat="43.77713" lon="1.62992">
        <ele>99.15</ele>
        <time>2017-10-14T09:40:05Z</time>
      </trkpt>
      <trkpt lat="43.77714" lon="1.63011">
        <ele>99.15</ele>
        <time>2017-10-14T09:40:08Z</time>
      </trkpt>
      <trkpt lat="43.77716" lon="1.63016">
        <ele>99.15</ele>
        <time>2017-10-14T09:40:09Z</time>
      </trkpt>
      <trkpt lat="43.77718" lon="1.63021">
        <ele>99.15</ele>
        <time>2017-10-14T09:40:10Z</time>
      </trkpt>
      <trkpt lat="43.77721" lon="1.63026">
        <ele>99.15</ele>
        <time>2017-10-14T09:40:11Z</time>
      </trkpt>
      <trkpt lat="43.77724" lon="1.6303">
        <ele>99.15</ele>
        <time>2017-10-14T09:40:12Z</time>
      </trkpt>
      <trkpt lat="43.77727" lon="1.63034">
        <ele>99.15</ele>
        <time>2017-10-14T09:40:13Z</time>
      </trkpt>
      <trkpt lat="43.7773" lon="1.63038">
        <ele>99.15</ele>
        <time>2017-10-14T09:40:14Z</time>
      </trkpt>
      <trkpt lat="43.77732" lon="1.63043">
        <ele>99.15</ele>
        <time>2017-10-14T09:40:15Z</time>
      </trkpt>
      <trkpt lat="43.77733" lon="1.63049">
        <ele>99.15</ele>
        <time>2017-10-14T09:40:16Z</time>
      </trkpt>
      <trkpt lat="43.77733" lon="1.63054">
        <ele>99.15</ele>
        <time>2017-10-14T09:40:17Z</time>
      </trkpt>
      <trkpt lat="43.77732" lon="1.6306">
        <ele>99.15</ele>
        <time>2017-10-14T09:40:18Z</time>
      </trkpt>
      <trkpt lat="43.77731" lon="1.63066">
        <ele>99.15</ele>
        <time>2017-10-14T09:40:19Z</time>
      </trkpt>
      <trkpt lat="43.77729" lon="1.63072">
        <ele>99.15</ele>
        <time>2017-10-14T09:40:20Z</time>
      </trkpt>
      <trkpt lat="43.77706" lon="1.63157">
        <ele>100.11</ele>
        <time>2017-10-14T09:40:33Z</time>
      </trkpt>
      <trkpt lat="43.77676" lon="1.63261">
        <ele>100.11</ele>
        <time>2017-10-14T09:40:48Z</time>
      </trkpt>
      <trkpt lat="43.77673" lon="1.63268">
        <ele>100.11</ele>
        <time>2017-10-14T09:40:49Z</time>
      </trkpt>
      <trkpt lat="43.77656" lon="1.63325">
        <ele>100.11</ele>
        <time>2017-10-14T09:40:57Z</time>
      </trkpt>
      <trkpt lat="43.77633" lon="1.63411">
        <ele>100.11</ele>
        <time>2017-10-14T09:41:09Z</time>
      </trkpt>
      <trkpt lat="43.77613" lon="1.63476">
        <ele>100.11</ele>
        <time>2017-10-14T09:41:19Z</time>
      </trkpt>
      <trkpt lat="43.7761" lon="1.63483">
        <ele>100.11</ele>
        <time>2017-10-14T09:41:20Z</time>
      </trkpt>
      <trkpt lat="43.77606" lon="1.63488">
        <ele>100.11</ele>
        <time>2017-10-14T09:41:21Z</time>
      </trkpt>
      <trkpt lat="43.77602" lon="1.63492">
        <ele>100.11</ele>
        <time>2017-10-14T09:41:22Z</time>
      </trkpt>
      <trkpt lat="43.77597" lon="1.63495">
        <ele>100.11</ele>
        <time>2017-10-14T09:41:23Z</time>
      </trkpt>
      <trkpt lat="43.77592" lon="1.63497">
        <ele>100.11</ele>
        <time>2017-10-14T09:41:24Z</time>
      </trkpt>
      <trkpt lat="43.77587" lon="1.63499">
        <ele>100.11</ele>
        <time>2017-10-14T09:41:25Z</time>
      </trkpt>
      <trkpt lat="43.77581" lon="1.63499">
        <ele>100.11</ele>
        <time>2017-10-14T09:41:26Z</time>
      </trkpt>
      <trkpt lat="43.77576" lon="1.63499">
        <ele>100.11</ele>
        <time>2017-10-14T09:41:27Z</time>
      </trkpt>
      <trkpt lat="43.77562" lon="1.63501">
        <ele>100.11</ele>
        <time>2017-10-14T09:41:30Z</time>
      </trkpt>
      <trkpt lat="43.77558" lon="1.63504">
        <ele>100.11</ele>
        <time>2017-10-14T09:41:31Z</time>
      </trkpt>
      <trkpt lat="43.77555" lon="1.63508">
        <ele>100.11</ele>
        <time>2017-10-14T09:41:32Z</time>
      </trkpt>
      <trkpt lat="43.77554" lon="1.63514">
        <ele>100.11</ele>
        <time>2017-10-14T09:41:33Z</time>
      </trkpt>
      <trkpt lat="43.77553" lon="1.6352">
        <ele>100.11</ele>
        <time>2017-10-14T09:41:34Z</time>
      </trkpt>
      <trkpt lat="43.77553" lon="1.63526">
        <ele>100.11</ele>
        <time>2017-10-14T09:41:35Z</time>
      </trkpt>
      <trkpt lat="43.77553" lon="1.63533">
        <ele>100.11</ele>
        <time>2017-10-14T09:41:36Z</time>
      </trkpt>
      <trkpt lat="43.77555" lon="1.63539">
        <ele>100.11</ele>
        <time>2017-10-14T09:41:37Z</time>
      </trkpt>
      <trkpt lat="43.77557" lon="1.63545">
        <ele>100.11</ele>
        <time>2017-10-14T09:41:38Z</time>
      </trkpt>
      <trkpt lat="43.7756" lon="1.63549">
        <ele>100.11</ele>
        <time>2017-10-14T09:41:39Z</time>
      </trkpt>
      <trkpt lat="43.77564" lon="1.63552">
        <ele>100.11</ele>
        <time>2017-10-14T09:41:40Z</time>
      </trkpt>
      <trkpt lat="43.77569" lon="1.63554">
        <ele>100.11</ele>
        <time>2017-10-14T09:41:41Z</time>
      </trkpt>
      <trkpt lat="43.77574" lon="1.63557">
        <ele>100.11</ele>
        <time>2017-10-14T09:41:42Z</time>
      </trkpt>
      <trkpt lat="43.77578" lon="1.63559">
        <ele>100.11</ele>
        <time>2017-10-14T09:41:43Z</time>
      </trkpt>
      <trkpt lat="43.77581" lon="1.63563">
        <ele>100.11</ele>
        <time>2017-10-14T09:41:44Z</time>
      </trkpt>
      <trkpt lat="43.77585" lon="1.63567">
        <ele>100.11</ele>
        <time>2017-10-14T09:41:45Z</time>
      </trkpt>
      <trkpt lat="43.77593" lon="1.63574">
        <ele>100.11</ele>
        <time>2017-10-14T09:41:47Z</time>
      </trkpt>
      <trkpt lat="43.77597" lon="1.63576">
        <ele>100.11</ele>
        <time>2017-10-14T09:41:48Z</time>
      </trkpt>
      <trkpt lat="43.77601" lon="1.63576">
        <ele>100.11</ele>
        <time>2017-10-14T09:41:49Z</time>
      </trkpt>
      <trkpt lat="43.77605" lon="1.63575">
        <ele>100.11</ele>
        <time>2017-10-14T09:41:50Z</time>
      </trkpt>
      <trkpt lat="43.77609" lon="1.63572">
        <ele>100.11</ele>
        <time>2017-10-14T09:41:51Z</time>
      </trkpt>
      <trkpt lat="43.77613" lon="1.6357">
        <ele>100.11</ele>
        <time>2017-10-14T09:41:52Z</time>
      </trkpt>
      <trkpt lat="43.77617" lon="1.63568">
        <ele>100.11</ele>
        <time>2017-10-14T09:41:53Z</time>
      </trkpt>
      <trkpt lat="43.77622" lon="1.63566">
        <ele>100.11</ele>
        <time>2017-10-14T09:41:54Z</time>
      </trkpt>
      <trkpt lat="43.7764" lon="1.63555">
        <ele>101.08</ele>
        <time>2017-10-14T09:41:58Z</time>
      </trkpt>
      <trkpt lat="43.77644" lon="1.63551">
        <ele>101.08</ele>
        <time>2017-10-14T09:41:59Z</time>
      </trkpt>
      <trkpt lat="43.77647" lon="1.63545">
        <ele>101.08</ele>
        <time>2017-10-14T09:42:00Z</time>
      </trkpt>
      <trkpt lat="43.77649" lon="1.63538">
        <ele>101.08</ele>
        <time>2017-10-14T09:42:01Z</time>
      </trkpt>
      <trkpt lat="43.7765" lon="1.63531">
        <ele>101.08</ele>
        <time>2017-10-14T09:42:02Z</time>
      </trkpt>
      <trkpt lat="43.77678" lon="1.63439">
        <ele>100.11</ele>
        <time>2017-10-14T09:42:15Z</time>
      </trkpt>
      <trkpt lat="43.77691" lon="1.63409">
        <ele>101.08</ele>
        <time>2017-10-14T09:42:20Z</time>
      </trkpt>
      <trkpt lat="43.77694" lon="1.63404">
        <ele>101.08</ele>
        <time>2017-10-14T09:42:21Z</time>
      </trkpt>
      <trkpt lat="43.77715" lon="1.63383">
        <ele>101.08</ele>
        <time>2017-10-14T09:42:27Z</time>
      </trkpt>
      <trkpt lat="43.77719" lon="1.63384">
        <ele>101.08</ele>
        <time>2017-10-14T09:42:28Z</time>
      </trkpt>
      <trkpt lat="43.77723" lon="1.63386">
        <ele>101.08</ele>
        <time>2017-10-14T09:42:29Z</time>
      </trkpt>
      <trkpt lat="43.77745" lon="1.63403">
        <ele>100.11</ele>
        <time>2017-10-14T09:42:35Z</time>
      </trkpt>
      <trkpt lat="43.77769" lon="1.63422">
        <ele>100.11</ele>
        <time>2017-10-14T09:42:43Z</time>
      </trkpt>
      <trkpt lat="43.77779" lon="1.63429">
        <ele>100.11</ele>
        <time>2017-10-14T09:42:46Z</time>
      </trkpt>
      <trkpt lat="43.77815" lon="1.63455">
        <ele>100.11</ele>
        <time>2017-10-14T09:42:56Z</time>
      </trkpt>
      <trkpt lat="43.7783" lon="1.63466">
        <ele>100.11</ele>
        <time>2017-10-14T09:43:01Z</time>
      </trkpt>
      <trkpt lat="43.77832" lon="1.63465">
        <ele>100.11</ele>
        <time>2017-10-14T09:43:02Z</time>
      </trkpt>
      <trkpt lat="43.77834" lon="1.63462">
        <ele>100.11</ele>
        <time>2017-10-14T09:43:03Z</time>
      </trkpt>
      <trkpt lat="43.77834" lon="1.63457">
        <ele>100.11</ele>
        <time>2017-10-14T09:43:04Z</time>
      </trkpt>
      <trkpt lat="43.77834" lon="1.63452">
        <ele>100.11</ele>
        <time>2017-10-14T09:43:05Z</time>
      </trkpt>
      <trkpt lat="43.77834" lon="1.63447">
        <ele>100.11</ele>
        <time>2017-10-14T09:43:06Z</time>
      </trkpt>
      <trkpt lat="43.77835" lon="1.63441">
        <ele>100.11</ele>
        <time>2017-10-14T09:43:07Z</time>
      </trkpt>
      <trkpt lat="43.77837" lon="1.63435">
        <ele>100.11</ele>
        <time>2017-10-14T09:43:08Z</time>
      </trkpt>
      <trkpt lat="43.77839" lon="1.6343">
        <ele>100.11</ele>
        <time>2017-10-14T09:43:09Z</time>
      </trkpt>
      <trkpt lat="43.77874" lon="1.6335">
        <ele>100.11</ele>
        <time>2017-10-14T09:43:23Z</time>
      </trkpt>
      <trkpt lat="43.77893" lon="1.63321">
        <ele>100.11</ele>
        <time>2017-10-14T09:43:30Z</time>
      </trkpt>
      <trkpt lat="43.77896" lon="1.6332">
        <ele>100.11</ele>
        <time>2017-10-14T09:43:31Z</time>
      </trkpt>
      <trkpt lat="43.779" lon="1.63322">
        <ele>100.11</ele>
        <time>2017-10-14T09:43:32Z</time>
      </trkpt>
      <trkpt lat="43.77904" lon="1.63324">
        <ele>100.11</ele>
        <time>2017-10-14T09:43:33Z</time>
      </trkpt>
      <trkpt lat="43.77907" lon="1.63327">
        <ele>100.11</ele>
        <time>2017-10-14T09:43:34Z</time>
      </trkpt>
      <trkpt lat="43.7794" lon="1.63359">
        <ele>100.11</ele>
        <time>2017-10-14T09:43:46Z</time>
      </trkpt>
      <trkpt lat="43.7797" lon="1.63382">
        <ele>100.11</ele>
        <time>2017-10-14T09:43:56Z</time>
      </trkpt>
      <trkpt lat="43.77999" lon="1.63403">
        <ele>100.11</ele>
        <time>2017-10-14T09:44:07Z</time>
      </trkpt>
      <trkpt lat="43.78002" lon="1.63401">
        <ele>100.11</ele>
        <time>2017-10-14T09:44:08Z</time>
      </trkpt>
      <trkpt lat="43.78005" lon="1.63399">
        <ele>100.11</ele>
        <time>2017-10-14T09:44:09Z</time>
      </trkpt>
      <trkpt lat="43.78012" lon="1.63386">
        <ele>100.11</ele>
        <time>2017-10-14T09:44:13Z</time>
      </trkpt>
      <trkpt lat="43.78014" lon="1.63382">
        <ele>100.11</ele>
        <time>2017-10-14T09:44:14Z</time>
      </trkpt>
      <trkpt lat="43.78015" lon="1.63379">
        <ele>100.11</ele>
        <time>2017-10-14T09:44:15Z</time>
      </trkpt>
      <trkpt lat="43.78033" lon="1.63334">
        <ele>100.11</ele>
        <time>2017-10-14T09:44:28Z</time>
      </trkpt>
      <trkpt lat="43.78045" lon="1.63301">
        <ele>99.15</ele>
        <time>2017-10-14T09:44:38Z</time>
      </trkpt>
      <trkpt lat="43.78057" lon="1.63273">
        <ele>98.19</ele>
        <time>2017-10-14T09:44:48Z</time>
      </trkpt>
      <trkpt lat="43.78069" lon="1.63245">
        <ele>100.11</ele>
        <time>2017-10-14T09:44:58Z</time>
      </trkpt>
      <trkpt lat="43.78073" lon="1.63229">
        <ele>100.11</ele>
        <time>2017-10-14T09:45:06Z</time>
      </trkpt>
      <trkpt lat="43.78047" lon="1.63209">
        <ele>100.11</ele>
        <time>2017-10-14T09:45:15Z</time>
      </trkpt>
      <trkpt lat="43.78006" lon="1.63186">
        <ele>100.11</ele>
        <time>2017-10-14T09:45:28Z</time>
      </trkpt>
      <trkpt lat="43.77984" lon="1.6317">
        <ele>100.11</ele>
        <time>2017-10-14T09:45:37Z</time>
      </trkpt>
      <trkpt lat="43.7798" lon="1.63168">
        <ele>100.11</ele>
        <time>2017-10-14T09:45:40Z</time>
      </trkpt>
      <trkpt lat="43.77978" lon="1.63167">
        <ele>100.11</ele>
        <time>2017-10-14T09:45:41Z</time>
      </trkpt>
      <trkpt lat="43.77977" lon="1.63165">
        <ele>99.15</ele>
        <time>2017-10-14T09:45:42Z</time>
      </trkpt>
      <trkpt lat="43.77975" lon="1.63164">
        <ele>99.15</ele>
        <time>2017-10-14T09:45:43Z</time>
      </trkpt>
      <trkpt lat="43.77972" lon="1.63162">
        <ele>99.15</ele>
        <time>2017-10-14T09:45:44Z</time>
      </trkpt>
      <trkpt lat="43.77939" lon="1.63124">
        <ele>99.15</ele>
        <time>2017-10-14T09:45:57Z</time>
      </trkpt>
      <trkpt lat="43.77915" lon="1.63106">
        <ele>99.15</ele>
        <time>2017-10-14T09:46:06Z</time>
      </trkpt>
      <trkpt lat="43.77876" lon="1.63078">
        <ele>99.15</ele>
        <time>2017-10-14T09:46:16Z</time>
      </trkpt>
      <trkpt lat="43.77852" lon="1.63066">
        <ele>99.15</ele>
        <time>2017-10-14T09:46:22Z</time>
      </trkpt>
      <trkpt lat="43.77841" lon="1.63057">
        <ele>99.15</ele>
        <time>2017-10-14T09:46:25Z</time>
      </trkpt>
      <trkpt lat="43.77837" lon="1.63055">
        <ele>99.15</ele>
        <time>2017-10-14T09:46:26Z</time>
      </trkpt>
      <trkpt lat="43.77791" lon="1.63044">
        <ele>100.11</ele>
        <time>2017-10-14T09:46:37Z</time>
      </trkpt>
      <trkpt lat="43.77786" lon="1.63045">
        <ele>100.11</ele>
        <time>2017-10-14T09:46:38Z</time>
      </trkpt>
      <trkpt lat="43.77783" lon="1.63047">
        <ele>100.11</ele>
        <time>2017-10-14T09:46:39Z</time>
      </trkpt>
      <trkpt lat="43.7778" lon="1.63051">
        <ele>100.11</ele>
        <time>2017-10-14T09:46:40Z</time>
      </trkpt>
      <trkpt lat="43.77777" lon="1.63056">
        <ele>100.11</ele>
        <time>2017-10-14T09:46:41Z</time>
      </trkpt>
      <trkpt lat="43.77775" lon="1.63062">
        <ele>100.11</ele>
        <time>2017-10-14T09:46:42Z</time>
      </trkpt>
      <trkpt lat="43.77773" lon="1.63067">
        <ele>100.11</ele>
        <time>2017-10-14T09:46:43Z</time>
      </trkpt>
      <trkpt lat="43.7775" lon="1.6315">
        <ele>100.11</ele>
        <time>2017-10-14T09:46:56Z</time>
      </trkpt>
      <trkpt lat="43.77721" lon="1.63252">
        <ele>100.11</ele>
        <time>2017-10-14T09:47:11Z</time>
      </trkpt>
      <trkpt lat="43.77718" lon="1.63274">
        <ele>100.11</ele>
        <time>2017-10-14T09:47:14Z</time>
      </trkpt>
      <trkpt lat="43.77715" lon="1.63367">
        <ele>100.11</ele>
        <time>2017-10-14T09:47:27Z</time>
      </trkpt>
      <trkpt lat="43.77713" lon="1.63374">
        <ele>100.11</ele>
        <time>2017-10-14T09:47:28Z</time>
      </trkpt>
      <trkpt lat="43.7771" lon="1.6338">
        <ele>100.11</ele>
        <time>2017-10-14T09:47:29Z</time>
      </trkpt>
      <trkpt lat="43.77684" lon="1.63418">
        <ele>100.11</ele>
        <time>2017-10-14T09:47:36Z</time>
      </trkpt>
      <trkpt lat="43.77681" lon="1.63424">
        <ele>100.11</ele>
        <time>2017-10-14T09:47:37Z</time>
      </trkpt>
      <trkpt lat="43.77679" lon="1.6343">
        <ele>100.11</ele>
        <time>2017-10-14T09:47:38Z</time>
      </trkpt>
      <trkpt lat="43.77641" lon="1.63553">
        <ele>100.11</ele>
        <time>2017-10-14T09:47:56Z</time>
      </trkpt>
      <trkpt lat="43.77631" lon="1.63571">
        <ele>100.11</ele>
        <time>2017-10-14T09:48:03Z</time>
      </trkpt>
      <trkpt lat="43.77631" lon="1.6357">
        <ele>100.11</ele>
        <time>2017-10-14T09:48:08Z</time>
      </trkpt>
      <trkpt lat="43.77632" lon="1.63568">
        <ele>101.08</ele>
        <time>2017-10-14T10:02:39Z</time>
      </trkpt>
      <trkpt lat="43.77631" lon="1.63566">
        <ele>101.08</ele>
        <time>2017-10-14T10:02:42Z</time>
      </trkpt>
      <trkpt lat="43.77631" lon="1.63564">
        <ele>101.08</ele>
        <time>2017-10-14T10:02:43Z</time>
      </trkpt>
      <trkpt lat="43.7763" lon="1.63562">
        <ele>101.08</ele>
        <time>2017-10-14T10:02:44Z</time>
      </trkpt>
      <trkpt lat="43.77629" lon="1.6356">
        <ele>101.08</ele>
        <time>2017-10-14T10:02:45Z</time>
      </trkpt>
      <trkpt lat="43.77628" lon="1.63559">
        <ele>101.08</ele>
        <time>2017-10-14T10:02:46Z</time>
      </trkpt>
      <trkpt lat="43.77626" lon="1.63557">
        <ele>101.08</ele>
        <time>2017-10-14T10:02:47Z</time>
      </trkpt>
      <trkpt lat="43.77625" lon="1.63556">
        <ele>101.08</ele>
        <time>2017-10-14T10:02:48Z</time>
      </trkpt>
      <trkpt lat="43.77603" lon="1.63532">
        <ele>101.08</ele>
        <time>2017-10-14T10:02:57Z</time>
      </trkpt>
      <trkpt lat="43.77587" lon="1.63535">
        <ele>101.08</ele>
        <time>2017-10-14T10:03:01Z</time>
      </trkpt>
      <trkpt lat="43.77583" lon="1.63537">
        <ele>101.08</ele>
        <time>2017-10-14T10:03:02Z</time>
      </trkpt>
      <trkpt lat="43.77579" lon="1.63539">
        <ele>101.08</ele>
        <time>2017-10-14T10:03:03Z</time>
      </trkpt>
      <trkpt lat="43.77574" lon="1.63539">
        <ele>101.08</ele>
        <time>2017-10-14T10:03:04Z</time>
      </trkpt>
      <trkpt lat="43.7757" lon="1.63539">
        <ele>101.08</ele>
        <time>2017-10-14T10:03:05Z</time>
      </trkpt>
      <trkpt lat="43.77566" lon="1.63538">
        <ele>101.08</ele>
        <time>2017-10-14T10:03:06Z</time>
      </trkpt>
      <trkpt lat="43.77561" lon="1.63537">
        <ele>101.08</ele>
        <time>2017-10-14T10:03:07Z</time>
      </trkpt>
      <trkpt lat="43.77557" lon="1.63535">
        <ele>101.08</ele>
        <time>2017-10-14T10:03:08Z</time>
      </trkpt>
      <trkpt lat="43.77555" lon="1.6353">
        <ele>101.08</ele>
        <time>2017-10-14T10:03:09Z</time>
      </trkpt>
      <trkpt lat="43.77554" lon="1.63525">
        <ele>101.08</ele>
        <time>2017-10-14T10:03:10Z</time>
      </trkpt>
      <trkpt lat="43.77554" lon="1.63519">
        <ele>101.08</ele>
        <time>2017-10-14T10:03:11Z</time>
      </trkpt>
      <trkpt lat="43.77554" lon="1.63514">
        <ele>101.08</ele>
        <time>2017-10-14T10:03:12Z</time>
      </trkpt>
      <trkpt lat="43.77555" lon="1.63509">
        <ele>101.08</ele>
        <time>2017-10-14T10:03:13Z</time>
      </trkpt>
      <trkpt lat="43.77557" lon="1.63505">
        <ele>101.08</ele>
        <time>2017-10-14T10:03:14Z</time>
      </trkpt>
      <trkpt lat="43.77559" lon="1.63502">
        <ele>101.08</ele>
        <time>2017-10-14T10:03:15Z</time>
      </trkpt>
      <trkpt lat="43.77562" lon="1.63499">
        <ele>101.08</ele>
        <time>2017-10-14T10:03:16Z</time>
      </trkpt>
      <trkpt lat="43.77566" lon="1.63498">
        <ele>101.08</ele>
        <time>2017-10-14T10:03:17Z</time>
      </trkpt>
      <trkpt lat="43.7757" lon="1.63497">
        <ele>101.08</ele>
        <time>2017-10-14T10:03:18Z</time>
      </trkpt>
      <trkpt lat="43.77574" lon="1.63498">
        <ele>101.08</ele>
        <time>2017-10-14T10:03:19Z</time>
      </trkpt>
      <trkpt lat="43.77578" lon="1.63498">
        <ele>101.08</ele>
        <time>2017-10-14T10:03:20Z</time>
      </trkpt>
      <trkpt lat="43.77582" lon="1.63499">
        <ele>100.11</ele>
        <time>2017-10-14T10:03:21Z</time>
      </trkpt>
      <trkpt lat="43.77586" lon="1.63498">
        <ele>100.11</ele>
        <time>2017-10-14T10:03:22Z</time>
      </trkpt>
      <trkpt lat="43.7759" lon="1.63497">
        <ele>100.11</ele>
        <time>2017-10-14T10:03:23Z</time>
      </trkpt>
      <trkpt lat="43.77594" lon="1.63495">
        <ele>100.11</ele>
        <time>2017-10-14T10:03:24Z</time>
      </trkpt>
      <trkpt lat="43.77598" lon="1.63492">
        <ele>100.11</ele>
        <time>2017-10-14T10:03:25Z</time>
      </trkpt>
      <trkpt lat="43.77602" lon="1.63488">
        <ele>100.11</ele>
        <time>2017-10-14T10:03:26Z</time>
      </trkpt>
      <trkpt lat="43.77609" lon="1.63481">
        <ele>100.11</ele>
        <time>2017-10-14T10:03:28Z</time>
      </trkpt>
      <trkpt lat="43.77612" lon="1.63476">
        <ele>100.11</ele>
        <time>2017-10-14T10:03:29Z</time>
      </trkpt>
      <trkpt lat="43.77637" lon="1.63401">
        <ele>101.08</ele>
        <time>2017-10-14T10:03:42Z</time>
      </trkpt>
      <trkpt lat="43.77641" lon="1.63388">
        <ele>101.08</ele>
        <time>2017-10-14T10:03:44Z</time>
      </trkpt>
      <trkpt lat="43.77643" lon="1.63381">
        <ele>101.08</ele>
        <time>2017-10-14T10:03:45Z</time>
      </trkpt>
      <trkpt lat="43.77671" lon="1.63285">
        <ele>101.08</ele>
        <time>2017-10-14T10:03:59Z</time>
      </trkpt>
      <trkpt lat="43.77684" lon="1.63236">
        <ele>101.08</ele>
        <time>2017-10-14T10:04:06Z</time>
      </trkpt>
      <trkpt lat="43.77711" lon="1.63142">
        <ele>102.04</ele>
        <time>2017-10-14T10:04:19Z</time>
      </trkpt>
      <trkpt lat="43.77733" lon="1.63063">
        <ele>102.04</ele>
        <time>2017-10-14T10:04:30Z</time>
      </trkpt>
      <trkpt lat="43.77734" lon="1.63056">
        <ele>102.04</ele>
        <time>2017-10-14T10:04:31Z</time>
      </trkpt>
      <trkpt lat="43.77735" lon="1.6305">
        <ele>102.04</ele>
        <time>2017-10-14T10:04:32Z</time>
      </trkpt>
      <trkpt lat="43.77735" lon="1.63044">
        <ele>102.04</ele>
        <time>2017-10-14T10:04:33Z</time>
      </trkpt>
      <trkpt lat="43.77733" lon="1.63038">
        <ele>102.04</ele>
        <time>2017-10-14T10:04:34Z</time>
      </trkpt>
      <trkpt lat="43.77731" lon="1.63033">
        <ele>102.04</ele>
        <time>2017-10-14T10:04:35Z</time>
      </trkpt>
      <trkpt lat="43.77727" lon="1.63027">
        <ele>102.04</ele>
        <time>2017-10-14T10:04:36Z</time>
      </trkpt>
      <trkpt lat="43.77723" lon="1.63022">
        <ele>102.04</ele>
        <time>2017-10-14T10:04:37Z</time>
      </trkpt>
      <trkpt lat="43.77719" lon="1.63016">
        <ele>102.04</ele>
        <time>2017-10-14T10:04:38Z</time>
      </trkpt>
      <trkpt lat="43.77717" lon="1.6301">
        <ele>102.04</ele>
        <time>2017-10-14T10:04:39Z</time>
      </trkpt>
      <trkpt lat="43.77715" lon="1.63003">
        <ele>102.04</ele>
        <time>2017-10-14T10:04:40Z</time>
      </trkpt>
      <trkpt lat="43.77715" lon="1.62997">
        <ele>102.04</ele>
        <time>2017-10-14T10:04:41Z</time>
      </trkpt>
      <trkpt lat="43.77715" lon="1.6299">
        <ele>102.04</ele>
        <time>2017-10-14T10:04:42Z</time>
      </trkpt>
      <trkpt lat="43.77715" lon="1.62984">
        <ele>102.04</ele>
        <time>2017-10-14T10:04:43Z</time>
      </trkpt>
      <trkpt lat="43.77716" lon="1.62978">
        <ele>102.04</ele>
        <time>2017-10-14T10:04:44Z</time>
      </trkpt>
      <trkpt lat="43.77716" lon="1.62974">
        <ele>101.08</ele>
        <time>2017-10-14T10:04:45Z</time>
      </trkpt>
      <trkpt lat="43.77717" lon="1.6297">
        <ele>101.08</ele>
        <time>2017-10-14T10:04:46Z</time>
      </trkpt>
      <trkpt lat="43.77716" lon="1.62965">
        <ele>101.08</ele>
        <time>2017-10-14T10:04:47Z</time>
      </trkpt>
      <trkpt lat="43.77715" lon="1.62961">
        <ele>101.08</ele>
        <time>2017-10-14T10:04:48Z</time>
      </trkpt>
      <trkpt lat="43.77712" lon="1.62957">
        <ele>100.11</ele>
        <time>2017-10-14T10:04:49Z</time>
      </trkpt>
      <trkpt lat="43.7771" lon="1.62954">
        <ele>100.11</ele>
        <time>2017-10-14T10:04:50Z</time>
      </trkpt>
      <trkpt lat="43.77707" lon="1.62951">
        <ele>100.11</ele>
        <time>2017-10-14T10:04:51Z</time>
      </trkpt>
      <trkpt lat="43.77661" lon="1.62903">
        <ele>100.11</ele>
        <time>2017-10-14T10:05:03Z</time>
      </trkpt>
      <trkpt lat="43.77653" lon="1.62897">
        <ele>100.11</ele>
        <time>2017-10-14T10:05:05Z</time>
      </trkpt>
      <trkpt lat="43.77647" lon="1.62895">
        <ele>100.11</ele>
        <time>2017-10-14T10:05:06Z</time>
      </trkpt>
      <trkpt lat="43.77575" lon="1.62873">
        <ele>101.08</ele>
        <time>2017-10-14T10:05:20Z</time>
      </trkpt>
      <trkpt lat="43.77507" lon="1.62844">
        <ele>102.04</ele>
        <time>2017-10-14T10:05:34Z</time>
      </trkpt>
      <trkpt lat="43.77434" lon="1.62809">
        <ele>103</ele>
        <time>2017-10-14T10:05:48Z</time>
      </trkpt>
      <trkpt lat="43.77362" lon="1.62761">
        <ele>103</ele>
        <time>2017-10-14T10:06:02Z</time>
      </trkpt>
      <trkpt lat="43.77294" lon="1.62703">
        <ele>103.96</ele>
        <time>2017-10-14T10:06:16Z</time>
      </trkpt>
      <trkpt lat="43.77213" lon="1.62666">
        <ele>103.96</ele>
        <time>2017-10-14T10:06:32Z</time>
      </trkpt>
      <trkpt lat="43.77138" lon="1.62644">
        <ele>105.88</ele>
        <time>2017-10-14T10:06:47Z</time>
      </trkpt>
      <trkpt lat="43.77057" lon="1.62596">
        <ele>105.88</ele>
        <time>2017-10-14T10:07:03Z</time>
      </trkpt>
      <trkpt lat="43.76962" lon="1.62542">
        <ele>105.88</ele>
        <time>2017-10-14T10:07:21Z</time>
      </trkpt>
      <trkpt lat="43.76863" lon="1.62517">
        <ele>106.84</ele>
        <time>2017-10-14T10:07:39Z</time>
      </trkpt>
      <trkpt lat="43.76786" lon="1.62491">
        <ele>106.84</ele>
        <time>2017-10-14T10:07:53Z</time>
      </trkpt>
      <trkpt lat="43.76716" lon="1.62435">
        <ele>107.81</ele>
        <time>2017-10-14T10:08:07Z</time>
      </trkpt>
      <trkpt lat="43.76635" lon="1.62392">
        <ele>107.81</ele>
        <time>2017-10-14T10:08:22Z</time>
      </trkpt>
      <trkpt lat="43.76573" lon="1.62331">
        <ele>107.81</ele>
        <time>2017-10-14T10:08:35Z</time>
      </trkpt>
      <trkpt lat="43.76487" lon="1.62234">
        <ele>108.77</ele>
        <time>2017-10-14T10:08:54Z</time>
      </trkpt>
      <trkpt lat="43.76392" lon="1.62132">
        <ele>110.21</ele>
        <time>2017-10-14T10:09:15Z</time>
      </trkpt>
      <trkpt lat="43.76301" lon="1.62032">
        <ele>110.21</ele>
        <time>2017-10-14T10:09:35Z</time>
      </trkpt>
      <trkpt lat="43.76223" lon="1.61929">
        <ele>111.17</ele>
        <time>2017-10-14T10:09:54Z</time>
      </trkpt>
      <trkpt lat="43.76162" lon="1.61851">
        <ele>112.13</ele>
        <time>2017-10-14T10:10:10Z</time>
      </trkpt>
      <trkpt lat="43.76103" lon="1.61799">
        <ele>115.01</ele>
        <time>2017-10-14T10:10:25Z</time>
      </trkpt>
      <trkpt lat="43.7609" lon="1.6179">
        <ele>115.01</ele>
        <time>2017-10-14T10:10:28Z</time>
      </trkpt>
      <trkpt lat="43.76045" lon="1.61765">
        <ele>115.98</ele>
        <time>2017-10-14T10:10:38Z</time>
      </trkpt>
      <trkpt lat="43.75979" lon="1.61737">
        <ele>115.98</ele>
        <time>2017-10-14T10:10:51Z</time>
      </trkpt>
      <trkpt lat="43.75908" lon="1.6171">
        <ele>116.94</ele>
        <time>2017-10-14T10:11:04Z</time>
      </trkpt>
      <trkpt lat="43.75824" lon="1.61659">
        <ele>117.9</ele>
        <time>2017-10-14T10:11:20Z</time>
      </trkpt>
      <trkpt lat="43.75758" lon="1.6161">
        <ele>117.9</ele>
        <time>2017-10-14T10:11:33Z</time>
      </trkpt>
      <trkpt lat="43.75677" lon="1.61541">
        <ele>117.9</ele>
        <time>2017-10-14T10:11:50Z</time>
      </trkpt>
      <trkpt lat="43.7561" lon="1.61471">
        <ele>118.86</ele>
        <time>2017-10-14T10:12:05Z</time>
      </trkpt>
      <trkpt lat="43.75551" lon="1.61383">
        <ele>119.82</ele>
        <time>2017-10-14T10:12:20Z</time>
      </trkpt>
      <trkpt lat="43.75475" lon="1.61274">
        <ele>119.82</ele>
        <time>2017-10-14T10:12:39Z</time>
      </trkpt>
      <trkpt lat="43.75386" lon="1.61166">
        <ele>120.78</ele>
        <time>2017-10-14T10:13:01Z</time>
      </trkpt>
      <trkpt lat="43.75324" lon="1.61088">
        <ele>123.19</ele>
        <time>2017-10-14T10:13:18Z</time>
      </trkpt>
      <trkpt lat="43.75274" lon="1.60994">
        <ele>123.19</ele>
        <time>2017-10-14T10:13:34Z</time>
      </trkpt>
      <trkpt lat="43.75214" lon="1.60919">
        <ele>124.15</ele>
        <time>2017-10-14T10:13:49Z</time>
      </trkpt>
      <trkpt lat="43.75122" lon="1.60812">
        <ele>125.11</ele>
        <time>2017-10-14T10:14:11Z</time>
      </trkpt>
      <trkpt lat="43.75076" lon="1.60776">
        <ele>125.11</ele>
        <time>2017-10-14T10:14:21Z</time>
      </trkpt>
      <trkpt lat="43.75006" lon="1.60757">
        <ele>126.07</ele>
        <time>2017-10-14T10:14:34Z</time>
      </trkpt>
      <trkpt lat="43.74944" lon="1.60777">
        <ele>126.07</ele>
        <time>2017-10-14T10:14:46Z</time>
      </trkpt>
      <trkpt lat="43.7489" lon="1.608">
        <ele>127.03</ele>
        <time>2017-10-14T10:14:58Z</time>
      </trkpt>
      <trkpt lat="43.74856" lon="1.60821">
        <ele>127.99</ele>
        <time>2017-10-14T10:15:06Z</time>
      </trkpt>
      <trkpt lat="43.74848" lon="1.60829">
        <ele>127.99</ele>
        <time>2017-10-14T10:15:08Z</time>
      </trkpt>
      <trkpt lat="43.74843" lon="1.60831">
        <ele>127.99</ele>
        <time>2017-10-14T10:15:09Z</time>
      </trkpt>
      <trkpt lat="43.74838" lon="1.60832">
        <ele>127.99</ele>
        <time>2017-10-14T10:15:10Z</time>
      </trkpt>
      <trkpt lat="43.74833" lon="1.60831">
        <ele>127.99</ele>
        <time>2017-10-14T10:15:11Z</time>
      </trkpt>
      <trkpt lat="43.74829" lon="1.60828">
        <ele>127.99</ele>
        <time>2017-10-14T10:15:12Z</time>
      </trkpt>
      <trkpt lat="43.74825" lon="1.60824">
        <ele>127.99</ele>
        <time>2017-10-14T10:15:13Z</time>
      </trkpt>
      <trkpt lat="43.74822" lon="1.6082">
        <ele>127.99</ele>
        <time>2017-10-14T10:15:14Z</time>
      </trkpt>
      <trkpt lat="43.74764" lon="1.60759">
        <ele>128.95</ele>
        <time>2017-10-14T10:15:29Z</time>
      </trkpt>
      <trkpt lat="43.74707" lon="1.60718">
        <ele>128.95</ele>
        <time>2017-10-14T10:15:41Z</time>
      </trkpt>
      <trkpt lat="43.74644" lon="1.60689">
        <ele>129.92</ele>
        <time>2017-10-14T10:15:54Z</time>
      </trkpt>
      <trkpt lat="43.74606" lon="1.60668">
        <ele>131.84</ele>
        <time>2017-10-14T10:16:03Z</time>
      </trkpt>
      <trkpt lat="43.74591" lon="1.60655">
        <ele>131.84</ele>
        <time>2017-10-14T10:16:07Z</time>
      </trkpt>
      <trkpt lat="43.74577" lon="1.6064">
        <ele>131.84</ele>
        <time>2017-10-14T10:16:11Z</time>
      </trkpt>
      <trkpt lat="43.74548" lon="1.60603">
        <ele>132.8</ele>
        <time>2017-10-14T10:16:21Z</time>
      </trkpt>
      <trkpt lat="43.74524" lon="1.60545">
        <ele>136.16</ele>
        <time>2017-10-14T10:16:36Z</time>
      </trkpt>
      <trkpt lat="43.74512" lon="1.60501">
        <ele>138.09</ele>
        <time>2017-10-14T10:16:47Z</time>
      </trkpt>
      <trkpt lat="43.74505" lon="1.60467">
        <ele>140.01</ele>
        <time>2017-10-14T10:16:56Z</time>
      </trkpt>
      <trkpt lat="43.74496" lon="1.60431">
        <ele>140.97</ele>
        <time>2017-10-14T10:17:05Z</time>
      </trkpt>
      <trkpt lat="43.74486" lon="1.60391">
        <ele>142.89</ele>
        <time>2017-10-14T10:17:15Z</time>
      </trkpt>
      <trkpt lat="43.74481" lon="1.6036">
        <ele>144.82</ele>
        <time>2017-10-14T10:17:23Z</time>
      </trkpt>
      <trkpt lat="43.7447" lon="1.60322">
        <ele>147.22</ele>
        <time>2017-10-14T10:17:32Z</time>
      </trkpt>
      <trkpt lat="43.74461" lon="1.60272">
        <ele>148.18</ele>
        <time>2017-10-14T10:17:43Z</time>
      </trkpt>
      <trkpt lat="43.74457" lon="1.60222">
        <ele>150.1</ele>
        <time>2017-10-14T10:17:53Z</time>
      </trkpt>
      <trkpt lat="43.74444" lon="1.60163">
        <ele>152.03</ele>
        <time>2017-10-14T10:18:04Z</time>
      </trkpt>
      <trkpt lat="43.74432" lon="1.60136">
        <ele>152.03</ele>
        <time>2017-10-14T10:18:09Z</time>
      </trkpt>
      <trkpt lat="43.74431" lon="1.6013">
        <ele>152.03</ele>
        <time>2017-10-14T10:18:10Z</time>
      </trkpt>
      <trkpt lat="43.74429" lon="1.60117">
        <ele>152.03</ele>
        <time>2017-10-14T10:18:12Z</time>
      </trkpt>
      <trkpt lat="43.74427" lon="1.60111">
        <ele>152.03</ele>
        <time>2017-10-14T10:18:13Z</time>
      </trkpt>
      <trkpt lat="43.74425" lon="1.60105">
        <ele>152.03</ele>
        <time>2017-10-14T10:18:14Z</time>
      </trkpt>
      <trkpt lat="43.74423" lon="1.601">
        <ele>152.03</ele>
        <time>2017-10-14T10:18:15Z</time>
      </trkpt>
      <trkpt lat="43.7442" lon="1.60095">
        <ele>152.03</ele>
        <time>2017-10-14T10:18:16Z</time>
      </trkpt>
      <trkpt lat="43.74416" lon="1.6009">
        <ele>152.03</ele>
        <time>2017-10-14T10:18:17Z</time>
      </trkpt>
      <trkpt lat="43.74412" lon="1.60085">
        <ele>152.03</ele>
        <time>2017-10-14T10:18:18Z</time>
      </trkpt>
      <trkpt lat="43.74408" lon="1.60079">
        <ele>152.99</ele>
        <time>2017-10-14T10:18:19Z</time>
      </trkpt>
      <trkpt lat="43.74406" lon="1.60072">
        <ele>152.99</ele>
        <time>2017-10-14T10:18:20Z</time>
      </trkpt>
      <trkpt lat="43.74404" lon="1.60066">
        <ele>152.99</ele>
        <time>2017-10-14T10:18:21Z</time>
      </trkpt>
      <trkpt lat="43.74402" lon="1.60059">
        <ele>152.99</ele>
        <time>2017-10-14T10:18:22Z</time>
      </trkpt>
      <trkpt lat="43.744" lon="1.60053">
        <ele>152.99</ele>
        <time>2017-10-14T10:18:23Z</time>
      </trkpt>
      <trkpt lat="43.74366" lon="1.59965">
        <ele>152.99</ele>
        <time>2017-10-14T10:18:38Z</time>
      </trkpt>
      <trkpt lat="43.74347" lon="1.59913">
        <ele>154.91</ele>
        <time>2017-10-14T10:18:49Z</time>
      </trkpt>
      <trkpt lat="43.74329" lon="1.59856">
        <ele>156.83</ele>
        <time>2017-10-14T10:19:02Z</time>
      </trkpt>
      <trkpt lat="43.74314" lon="1.59805">
        <ele>160.2</ele>
        <time>2017-10-14T10:19:14Z</time>
      </trkpt>
      <trkpt lat="43.74296" lon="1.59745">
        <ele>161.16</ele>
        <time>2017-10-14T10:19:26Z</time>
      </trkpt>
      <trkpt lat="43.74277" lon="1.5968">
        <ele>162.12</ele>
        <time>2017-10-14T10:19:38Z</time>
      </trkpt>
      <trkpt lat="43.74261" lon="1.59613">
        <ele>163.08</ele>
        <time>2017-10-14T10:19:51Z</time>
      </trkpt>
      <trkpt lat="43.74253" lon="1.59556">
        <ele>165</ele>
        <time>2017-10-14T10:20:03Z</time>
      </trkpt>
      <trkpt lat="43.74246" lon="1.59498">
        <ele>166.93</ele>
        <time>2017-10-14T10:20:15Z</time>
      </trkpt>
      <trkpt lat="43.74241" lon="1.59443">
        <ele>168.85</ele>
        <time>2017-10-14T10:20:27Z</time>
      </trkpt>
      <trkpt lat="43.74235" lon="1.59388">
        <ele>170.77</ele>
        <time>2017-10-14T10:20:39Z</time>
      </trkpt>
      <trkpt lat="43.74228" lon="1.59332">
        <ele>173.17</ele>
        <time>2017-10-14T10:20:51Z</time>
      </trkpt>
      <trkpt lat="43.74216" lon="1.59276">
        <ele>175.1</ele>
        <time>2017-10-14T10:21:03Z</time>
      </trkpt>
      <trkpt lat="43.74189" lon="1.59201">
        <ele>177.02</ele>
        <time>2017-10-14T10:21:20Z</time>
      </trkpt>
      <trkpt lat="43.74143" lon="1.59145">
        <ele>179.9</ele>
        <time>2017-10-14T10:21:37Z</time>
      </trkpt>
      <trkpt lat="43.74097" lon="1.59117">
        <ele>180.87</ele>
        <time>2017-10-14T10:21:50Z</time>
      </trkpt>
      <trkpt lat="43.74036" lon="1.59107">
        <ele>181.83</ele>
        <time>2017-10-14T10:22:04Z</time>
      </trkpt>
      <trkpt lat="43.73966" lon="1.59114">
        <ele>182.79</ele>
        <time>2017-10-14T10:22:19Z</time>
      </trkpt>
      <trkpt lat="43.73893" lon="1.59122">
        <ele>182.79</ele>
        <time>2017-10-14T10:22:33Z</time>
      </trkpt>
      <trkpt lat="43.73796" lon="1.59133">
        <ele>182.79</ele>
        <time>2017-10-14T10:22:50Z</time>
      </trkpt>
      <trkpt lat="43.73719" lon="1.59143">
        <ele>182.79</ele>
        <time>2017-10-14T10:23:04Z</time>
      </trkpt>
      <trkpt lat="43.73635" lon="1.59151">
        <ele>184.23</ele>
        <time>2017-10-14T10:23:20Z</time>
      </trkpt>
      <trkpt lat="43.73589" lon="1.5915">
        <ele>185.19</ele>
        <time>2017-10-14T10:23:31Z</time>
      </trkpt>
      <trkpt lat="43.73585" lon="1.5915">
        <ele>185.19</ele>
        <time>2017-10-14T10:23:32Z</time>
      </trkpt>
      <trkpt lat="43.73557" lon="1.59148">
        <ele>187.11</ele>
        <time>2017-10-14T10:23:39Z</time>
      </trkpt>
      <trkpt lat="43.73553" lon="1.59146">
        <ele>187.11</ele>
        <time>2017-10-14T10:23:40Z</time>
      </trkpt>
      <trkpt lat="43.73548" lon="1.59143">
        <ele>187.11</ele>
        <time>2017-10-14T10:23:41Z</time>
      </trkpt>
      <trkpt lat="43.73527" lon="1.59126">
        <ele>188.08</ele>
        <time>2017-10-14T10:23:46Z</time>
      </trkpt>
      <trkpt lat="43.73523" lon="1.59121">
        <ele>188.08</ele>
        <time>2017-10-14T10:23:47Z</time>
      </trkpt>
      <trkpt lat="43.73464" lon="1.59058">
        <ele>187.11</ele>
        <time>2017-10-14T10:24:00Z</time>
      </trkpt>
      <trkpt lat="43.73422" lon="1.59034">
        <ele>187.11</ele>
        <time>2017-10-14T10:24:09Z</time>
      </trkpt>
      <trkpt lat="43.73412" lon="1.59034">
        <ele>187.11</ele>
        <time>2017-10-14T10:24:11Z</time>
      </trkpt>
      <trkpt lat="43.73407" lon="1.59034">
        <ele>187.11</ele>
        <time>2017-10-14T10:24:12Z</time>
      </trkpt>
      <trkpt lat="43.73333" lon="1.59028">
        <ele>187.11</ele>
        <time>2017-10-14T10:24:24Z</time>
      </trkpt>
      <trkpt lat="43.73217" lon="1.59016">
        <ele>185.19</ele>
        <time>2017-10-14T10:24:43Z</time>
      </trkpt>
      <trkpt lat="43.73142" lon="1.59007">
        <ele>187.11</ele>
        <time>2017-10-14T10:24:59Z</time>
      </trkpt>
      <trkpt lat="43.73063" lon="1.58998">
        <ele>189.04</ele>
        <time>2017-10-14T10:25:16Z</time>
      </trkpt>
      <trkpt lat="43.73021" lon="1.58992">
        <ele>189.04</ele>
        <time>2017-10-14T10:25:25Z</time>
      </trkpt>
      <trkpt lat="43.73017" lon="1.58991">
        <ele>189.04</ele>
        <time>2017-10-14T10:25:26Z</time>
      </trkpt>
      <trkpt lat="43.73003" lon="1.58989">
        <ele>189.04</ele>
        <time>2017-10-14T10:25:29Z</time>
      </trkpt>
      <trkpt lat="43.72994" lon="1.58988">
        <ele>189.04</ele>
        <time>2017-10-14T10:25:31Z</time>
      </trkpt>
      <trkpt lat="43.72942" lon="1.58981">
        <ele>190</ele>
        <time>2017-10-14T10:25:44Z</time>
      </trkpt>
      <trkpt lat="43.72904" lon="1.58978">
        <ele>191.92</ele>
        <time>2017-10-14T10:25:55Z</time>
      </trkpt>
      <trkpt lat="43.72867" lon="1.58977">
        <ele>193.84</ele>
        <time>2017-10-14T10:26:06Z</time>
      </trkpt>
      <trkpt lat="43.72825" lon="1.58981">
        <ele>197.21</ele>
        <time>2017-10-14T10:26:19Z</time>
      </trkpt>
      <trkpt lat="43.7278" lon="1.58991">
        <ele>199.13</ele>
        <time>2017-10-14T10:26:31Z</time>
      </trkpt>
      <trkpt lat="43.72739" lon="1.58995">
        <ele>200.09</ele>
        <time>2017-10-14T10:26:41Z</time>
      </trkpt>
      <trkpt lat="43.72735" lon="1.58996">
        <ele>200.09</ele>
        <time>2017-10-14T10:26:42Z</time>
      </trkpt>
      <trkpt lat="43.72692" lon="1.58997">
        <ele>201.05</ele>
        <time>2017-10-14T10:26:52Z</time>
      </trkpt>
      <trkpt lat="43.72655" lon="1.58998">
        <ele>202.01</ele>
        <time>2017-10-14T10:27:01Z</time>
      </trkpt>
      <trkpt lat="43.72628" lon="1.58999">
        <ele>202.98</ele>
        <time>2017-10-14T10:27:09Z</time>
      </trkpt>
      <trkpt lat="43.72595" lon="1.58999">
        <ele>204.9</ele>
        <time>2017-10-14T10:27:19Z</time>
      </trkpt>
      <trkpt lat="43.72571" lon="1.59001">
        <ele>206.82</ele>
        <time>2017-10-14T10:27:27Z</time>
      </trkpt>
      <trkpt lat="43.72539" lon="1.59001">
        <ele>209.22</ele>
        <time>2017-10-14T10:27:38Z</time>
      </trkpt>
      <trkpt lat="43.72511" lon="1.59002">
        <ele>211.15</ele>
        <time>2017-10-14T10:27:48Z</time>
      </trkpt>
      <trkpt lat="43.7248" lon="1.59003">
        <ele>213.07</ele>
        <time>2017-10-14T10:27:59Z</time>
      </trkpt>
      <trkpt lat="43.72448" lon="1.59003">
        <ele>214.99</ele>
        <time>2017-10-14T10:28:10Z</time>
      </trkpt>
      <trkpt lat="43.7242" lon="1.58996">
        <ele>216.91</ele>
        <time>2017-10-14T10:28:20Z</time>
      </trkpt>
      <trkpt lat="43.72378" lon="1.58972">
        <ele>219.8</ele>
        <time>2017-10-14T10:28:36Z</time>
      </trkpt>
      <trkpt lat="43.72347" lon="1.58944">
        <ele>222.2</ele>
        <time>2017-10-14T10:28:49Z</time>
      </trkpt>
      <trkpt lat="43.72327" lon="1.58911">
        <ele>223.16</ele>
        <time>2017-10-14T10:28:59Z</time>
      </trkpt>
      <trkpt lat="43.72309" lon="1.5885">
        <ele>225.09</ele>
        <time>2017-10-14T10:29:12Z</time>
      </trkpt>
      <trkpt lat="43.72308" lon="1.58844">
        <ele>225.09</ele>
        <time>2017-10-14T10:29:13Z</time>
      </trkpt>
      <trkpt lat="43.72308" lon="1.58766">
        <ele>226.05</ele>
        <time>2017-10-14T10:29:26Z</time>
      </trkpt>
      <trkpt lat="43.72307" lon="1.58746">
        <ele>227.01</ele>
        <time>2017-10-14T10:29:29Z</time>
      </trkpt>
      <trkpt lat="43.72295" lon="1.58678">
        <ele>227.01</ele>
        <time>2017-10-14T10:29:40Z</time>
      </trkpt>
      <trkpt lat="43.72292" lon="1.58667">
        <ele>227.01</ele>
        <time>2017-10-14T10:29:42Z</time>
      </trkpt>
      <trkpt lat="43.7229" lon="1.58662">
        <ele>227.01</ele>
        <time>2017-10-14T10:29:43Z</time>
      </trkpt>
      <trkpt lat="43.72264" lon="1.58619">
        <ele>227.97</ele>
        <time>2017-10-14T10:29:55Z</time>
      </trkpt>
      <trkpt lat="43.72259" lon="1.58609">
        <ele>227.97</ele>
        <time>2017-10-14T10:30:04Z</time>
      </trkpt>
      <trkpt lat="43.72258" lon="1.58607">
        <ele>227.97</ele>
        <time>2017-10-14T10:30:05Z</time>
      </trkpt>
      <trkpt lat="43.72257" lon="1.58605">
        <ele>227.97</ele>
        <time>2017-10-14T10:30:06Z</time>
      </trkpt>
      <trkpt lat="43.72234" lon="1.58585">
        <ele>227.97</ele>
        <time>2017-10-14T10:30:16Z</time>
      </trkpt>
      <trkpt lat="43.72232" lon="1.58583">
        <ele>227.97</ele>
        <time>2017-10-14T10:30:17Z</time>
      </trkpt>
      <trkpt lat="43.72234" lon="1.58578">
        <ele>227.97</ele>
        <time>2017-10-14T10:30:21Z</time>
      </trkpt>
      <trkpt lat="43.7224" lon="1.58576">
        <ele>227.97</ele>
        <time>2017-10-14T10:30:25Z</time>
      </trkpt>
      <trkpt lat="43.72242" lon="1.58576">
        <ele>227.97</ele>
        <time>2017-10-14T10:30:26Z</time>
      </trkpt>
      <trkpt lat="43.72244" lon="1.58577">
        <ele>227.97</ele>
        <time>2017-10-14T10:30:27Z</time>
      </trkpt>
      <trkpt lat="43.72246" lon="1.58576">
        <ele>227.97</ele>
        <time>2017-10-14T10:30:28Z</time>
      </trkpt>
      <trkpt lat="43.72248" lon="1.58576">
        <ele>228.93</ele>
        <time>2017-10-14T10:30:29Z</time>
      </trkpt>
      <trkpt lat="43.72249" lon="1.58575">
        <ele>228.93</ele>
        <time>2017-10-14T10:30:30Z</time>
      </trkpt>
      <trkpt lat="43.7225" lon="1.58574">
        <ele>228.93</ele>
        <time>2017-10-14T10:30:34Z</time>
      </trkpt>
      <trkpt lat="43.72221" lon="1.58572">
        <ele>228.93</ele>
        <time>2017-10-14T10:32:09Z</time>
      </trkpt>
      <trkpt lat="43.72219" lon="1.58569">
        <ele>228.93</ele>
        <time>2017-10-14T10:32:10Z</time>
      </trkpt>
      <trkpt lat="43.72218" lon="1.58567">
        <ele>228.93</ele>
        <time>2017-10-14T10:32:11Z</time>
      </trkpt>
      <trkpt lat="43.72217" lon="1.58565">
        <ele>228.93</ele>
        <time>2017-10-14T10:32:12Z</time>
      </trkpt>
      <trkpt lat="43.72197" lon="1.58542">
        <ele>228.93</ele>
        <time>2017-10-14T10:32:21Z</time>
      </trkpt>
      <trkpt lat="43.72176" lon="1.58517">
        <ele>228.93</ele>
        <time>2017-10-14T10:32:27Z</time>
      </trkpt>
      <trkpt lat="43.72172" lon="1.58512">
        <ele>228.93</ele>
        <time>2017-10-14T10:32:28Z</time>
      </trkpt>
      <trkpt lat="43.72155" lon="1.58485">
        <ele>228.93</ele>
        <time>2017-10-14T10:32:33Z</time>
      </trkpt>
      <trkpt lat="43.72152" lon="1.58479">
        <ele>228.93</ele>
        <time>2017-10-14T10:32:34Z</time>
      </trkpt>
      <trkpt lat="43.72148" lon="1.58473">
        <ele>228.93</ele>
        <time>2017-10-14T10:32:35Z</time>
      </trkpt>
      <trkpt lat="43.72145" lon="1.58466">
        <ele>228.93</ele>
        <time>2017-10-14T10:32:36Z</time>
      </trkpt>
      <trkpt lat="43.72141" lon="1.5846">
        <ele>227.97</ele>
        <time>2017-10-14T10:32:37Z</time>
      </trkpt>
      <trkpt lat="43.72116" lon="1.58418">
        <ele>227.97</ele>
        <time>2017-10-14T10:32:43Z</time>
      </trkpt>
      <trkpt lat="43.72111" lon="1.5841">
        <ele>227.97</ele>
        <time>2017-10-14T10:32:44Z</time>
      </trkpt>
      <trkpt lat="43.72064" lon="1.58313">
        <ele>224.12</ele>
        <time>2017-10-14T10:32:55Z</time>
      </trkpt>
      <trkpt lat="43.72039" lon="1.58221">
        <ele>223.16</ele>
        <time>2017-10-14T10:33:05Z</time>
      </trkpt>
      <trkpt lat="43.72028" lon="1.5819">
        <ele>223.16</ele>
        <time>2017-10-14T10:33:09Z</time>
      </trkpt>
      <trkpt lat="43.72026" lon="1.58183">
        <ele>223.16</ele>
        <time>2017-10-14T10:33:10Z</time>
      </trkpt>
      <trkpt lat="43.72023" lon="1.58176">
        <ele>223.16</ele>
        <time>2017-10-14T10:33:11Z</time>
      </trkpt>
      <trkpt lat="43.72018" lon="1.58163">
        <ele>223.16</ele>
        <time>2017-10-14T10:33:13Z</time>
      </trkpt>
      <trkpt lat="43.72005" lon="1.58127">
        <ele>224.12</ele>
        <time>2017-10-14T10:33:18Z</time>
      </trkpt>
      <trkpt lat="43.71999" lon="1.58113">
        <ele>225.09</ele>
        <time>2017-10-14T10:33:20Z</time>
      </trkpt>
      <trkpt lat="43.71995" lon="1.58105">
        <ele>225.09</ele>
        <time>2017-10-14T10:33:21Z</time>
      </trkpt>
      <trkpt lat="43.71991" lon="1.58097">
        <ele>225.09</ele>
        <time>2017-10-14T10:33:22Z</time>
      </trkpt>
      <trkpt lat="43.71944" lon="1.57993">
        <ele>223.16</ele>
        <time>2017-10-14T10:33:33Z</time>
      </trkpt>
      <trkpt lat="43.71929" lon="1.57962">
        <ele>222.2</ele>
        <time>2017-10-14T10:33:36Z</time>
      </trkpt>
      <trkpt lat="43.71925" lon="1.57952">
        <ele>220.76</ele>
        <time>2017-10-14T10:33:37Z</time>
      </trkpt>
      <trkpt lat="43.71898" lon="1.57904">
        <ele>218.84</ele>
        <time>2017-10-14T10:33:42Z</time>
      </trkpt>
      <trkpt lat="43.71835" lon="1.57825">
        <ele>215.95</ele>
        <time>2017-10-14T10:33:52Z</time>
      </trkpt>
      <trkpt lat="43.71804" lon="1.57774">
        <ele>214.03</ele>
        <time>2017-10-14T10:33:58Z</time>
      </trkpt>
      <trkpt lat="43.71801" lon="1.57763">
        <ele>214.03</ele>
        <time>2017-10-14T10:33:59Z</time>
      </trkpt>
      <trkpt lat="43.71785" lon="1.5767">
        <ele>212.11</ele>
        <time>2017-10-14T10:34:08Z</time>
      </trkpt>
      <trkpt lat="43.71764" lon="1.57541">
        <ele>211.15</ele>
        <time>2017-10-14T10:34:20Z</time>
      </trkpt>
      <trkpt lat="43.71753" lon="1.57425">
        <ele>210.19</ele>
        <time>2017-10-14T10:34:31Z</time>
      </trkpt>
      <trkpt lat="43.71751" lon="1.57336">
        <ele>210.19</ele>
        <time>2017-10-14T10:34:40Z</time>
      </trkpt>
      <trkpt lat="43.71747" lon="1.57254">
        <ele>210.19</ele>
        <time>2017-10-14T10:34:51Z</time>
      </trkpt>
      <trkpt lat="43.71737" lon="1.57176">
        <ele>212.11</ele>
        <time>2017-10-14T10:35:03Z</time>
      </trkpt>
      <trkpt lat="43.71732" lon="1.57126">
        <ele>213.07</ele>
        <time>2017-10-14T10:35:10Z</time>
      </trkpt>
      <trkpt lat="43.71731" lon="1.57118">
        <ele>213.07</ele>
        <time>2017-10-14T10:35:11Z</time>
      </trkpt>
      <trkpt lat="43.71727" lon="1.57035">
        <ele>213.07</ele>
        <time>2017-10-14T10:35:21Z</time>
      </trkpt>
      <trkpt lat="43.71724" lon="1.56942">
        <ele>213.07</ele>
        <time>2017-10-14T10:35:32Z</time>
      </trkpt>
      <trkpt lat="43.71722" lon="1.56926">
        <ele>213.07</ele>
        <time>2017-10-14T10:35:34Z</time>
      </trkpt>
      <trkpt lat="43.7172" lon="1.56918">
        <ele>213.07</ele>
        <time>2017-10-14T10:35:35Z</time>
      </trkpt>
      <trkpt lat="43.71718" lon="1.5691">
        <ele>213.07</ele>
        <time>2017-10-14T10:35:36Z</time>
      </trkpt>
      <trkpt lat="43.71704" lon="1.5688">
        <ele>213.07</ele>
        <time>2017-10-14T10:35:40Z</time>
      </trkpt>
      <trkpt lat="43.71699" lon="1.56873">
        <ele>213.07</ele>
        <time>2017-10-14T10:35:41Z</time>
      </trkpt>
      <trkpt lat="43.71693" lon="1.56866">
        <ele>213.07</ele>
        <time>2017-10-14T10:35:42Z</time>
      </trkpt>
      <trkpt lat="43.71687" lon="1.5686">
        <ele>213.07</ele>
        <time>2017-10-14T10:35:43Z</time>
      </trkpt>
      <trkpt lat="43.7168" lon="1.56854">
        <ele>213.07</ele>
        <time>2017-10-14T10:35:44Z</time>
      </trkpt>
      <trkpt lat="43.71619" lon="1.56805">
        <ele>210.19</ele>
        <time>2017-10-14T10:35:52Z</time>
      </trkpt>
      <trkpt lat="43.71606" lon="1.56789">
        <ele>209.22</ele>
        <time>2017-10-14T10:35:54Z</time>
      </trkpt>
      <trkpt lat="43.71601" lon="1.5678">
        <ele>209.22</ele>
        <time>2017-10-14T10:35:55Z</time>
      </trkpt>
      <trkpt lat="43.71598" lon="1.56771">
        <ele>207.78</ele>
        <time>2017-10-14T10:35:56Z</time>
      </trkpt>
      <trkpt lat="43.71596" lon="1.56762">
        <ele>206.82</ele>
        <time>2017-10-14T10:35:57Z</time>
      </trkpt>
      <trkpt lat="43.71597" lon="1.56754">
        <ele>206.82</ele>
        <time>2017-10-14T10:35:58Z</time>
      </trkpt>
      <trkpt lat="43.71599" lon="1.56746">
        <ele>205.86</ele>
        <time>2017-10-14T10:35:59Z</time>
      </trkpt>
      <trkpt lat="43.71602" lon="1.56739">
        <ele>205.86</ele>
        <time>2017-10-14T10:36:00Z</time>
      </trkpt>
      <trkpt lat="43.71604" lon="1.56731">
        <ele>204.9</ele>
        <time>2017-10-14T10:36:01Z</time>
      </trkpt>
      <trkpt lat="43.71606" lon="1.56722">
        <ele>203.94</ele>
        <time>2017-10-14T10:36:02Z</time>
      </trkpt>
      <trkpt lat="43.71606" lon="1.56713">
        <ele>203.94</ele>
        <time>2017-10-14T10:36:03Z</time>
      </trkpt>
      <trkpt lat="43.71605" lon="1.56705">
        <ele>202.98</ele>
        <time>2017-10-14T10:36:04Z</time>
      </trkpt>
      <trkpt lat="43.71602" lon="1.56697">
        <ele>202.98</ele>
        <time>2017-10-14T10:36:05Z</time>
      </trkpt>
      <trkpt lat="43.71598" lon="1.56691">
        <ele>202.01</ele>
        <time>2017-10-14T10:36:06Z</time>
      </trkpt>
      <trkpt lat="43.71593" lon="1.56685">
        <ele>202.01</ele>
        <time>2017-10-14T10:36:07Z</time>
      </trkpt>
      <trkpt lat="43.71589" lon="1.56678">
        <ele>202.01</ele>
        <time>2017-10-14T10:36:08Z</time>
      </trkpt>
      <trkpt lat="43.71586" lon="1.5667">
        <ele>202.01</ele>
        <time>2017-10-14T10:36:09Z</time>
      </trkpt>
      <trkpt lat="43.71585" lon="1.56661">
        <ele>202.01</ele>
        <time>2017-10-14T10:36:10Z</time>
      </trkpt>
      <trkpt lat="43.71584" lon="1.56652">
        <ele>202.01</ele>
        <time>2017-10-14T10:36:11Z</time>
      </trkpt>
      <trkpt lat="43.71583" lon="1.56642">
        <ele>202.01</ele>
        <time>2017-10-14T10:36:12Z</time>
      </trkpt>
      <trkpt lat="43.71576" lon="1.56429">
        <ele>199.13</ele>
        <time>2017-10-14T10:36:34Z</time>
      </trkpt>
      <trkpt lat="43.71562" lon="1.56281">
        <ele>198.17</ele>
        <time>2017-10-14T10:36:49Z</time>
      </trkpt>
      <trkpt lat="43.71537" lon="1.56192">
        <ele>197.21</ele>
        <time>2017-10-14T10:36:59Z</time>
      </trkpt>
      <trkpt lat="43.71537" lon="1.56183">
        <ele>197.21</ele>
        <time>2017-10-14T10:37:00Z</time>
      </trkpt>
      <trkpt lat="43.71538" lon="1.56174">
        <ele>197.21</ele>
        <time>2017-10-14T10:37:01Z</time>
      </trkpt>
      <trkpt lat="43.71539" lon="1.56165">
        <ele>197.21</ele>
        <time>2017-10-14T10:37:02Z</time>
      </trkpt>
      <trkpt lat="43.71537" lon="1.56156">
        <ele>197.21</ele>
        <time>2017-10-14T10:37:03Z</time>
      </trkpt>
      <trkpt lat="43.71534" lon="1.56148">
        <ele>195.77</ele>
        <time>2017-10-14T10:37:04Z</time>
      </trkpt>
      <trkpt lat="43.71529" lon="1.56142">
        <ele>195.77</ele>
        <time>2017-10-14T10:37:05Z</time>
      </trkpt>
      <trkpt lat="43.71524" lon="1.56139">
        <ele>195.77</ele>
        <time>2017-10-14T10:37:06Z</time>
      </trkpt>
      <trkpt lat="43.71517" lon="1.56138">
        <ele>195.77</ele>
        <time>2017-10-14T10:37:07Z</time>
      </trkpt>
      <trkpt lat="43.71511" lon="1.56139">
        <ele>195.77</ele>
        <time>2017-10-14T10:37:08Z</time>
      </trkpt>
      <trkpt lat="43.71505" lon="1.5614">
        <ele>195.77</ele>
        <time>2017-10-14T10:37:09Z</time>
      </trkpt>
      <trkpt lat="43.71498" lon="1.56139">
        <ele>195.77</ele>
        <time>2017-10-14T10:37:10Z</time>
      </trkpt>
      <trkpt lat="43.71492" lon="1.56137">
        <ele>195.77</ele>
        <time>2017-10-14T10:37:11Z</time>
      </trkpt>
      <trkpt lat="43.71485" lon="1.56134">
        <ele>195.77</ele>
        <time>2017-10-14T10:37:12Z</time>
      </trkpt>
      <trkpt lat="43.71479" lon="1.56131">
        <ele>195.77</ele>
        <time>2017-10-14T10:37:13Z</time>
      </trkpt>
      <trkpt lat="43.71394" lon="1.56091">
        <ele>193.84</ele>
        <time>2017-10-14T10:37:26Z</time>
      </trkpt>
      <trkpt lat="43.71322" lon="1.56088">
        <ele>191.92</ele>
        <time>2017-10-14T10:37:36Z</time>
      </trkpt>
      <trkpt lat="43.7124" lon="1.5609">
        <ele>190.96</ele>
        <time>2017-10-14T10:37:47Z</time>
      </trkpt>
      <trkpt lat="43.71162" lon="1.56084">
        <ele>190</ele>
        <time>2017-10-14T10:37:58Z</time>
      </trkpt>
      <trkpt lat="43.71101" lon="1.56062">
        <ele>188.08</ele>
        <time>2017-10-14T10:38:07Z</time>
      </trkpt>
      <trkpt lat="43.71076" lon="1.56045">
        <ele>186.15</ele>
        <time>2017-10-14T10:38:14Z</time>
      </trkpt>
      <trkpt lat="43.71047" lon="1.5601">
        <ele>185.19</ele>
        <time>2017-10-14T10:38:23Z</time>
      </trkpt>
      <trkpt lat="43.70992" lon="1.55939">
        <ele>182.79</ele>
        <time>2017-10-14T10:38:33Z</time>
      </trkpt>
      <trkpt lat="43.70939" lon="1.55872">
        <ele>179.9</ele>
        <time>2017-10-14T10:38:41Z</time>
      </trkpt>
      <trkpt lat="43.70901" lon="1.55836">
        <ele>177.02</ele>
        <time>2017-10-14T10:38:46Z</time>
      </trkpt>
      <trkpt lat="43.70892" lon="1.55833">
        <ele>177.02</ele>
        <time>2017-10-14T10:38:47Z</time>
      </trkpt>
      <trkpt lat="43.70882" lon="1.5583">
        <ele>176.06</ele>
        <time>2017-10-14T10:38:48Z</time>
      </trkpt>
      <trkpt lat="43.70873" lon="1.55828">
        <ele>176.06</ele>
        <time>2017-10-14T10:38:49Z</time>
      </trkpt>
      <trkpt lat="43.70863" lon="1.55828">
        <ele>175.1</ele>
        <time>2017-10-14T10:38:50Z</time>
      </trkpt>
      <trkpt lat="43.70853" lon="1.55827">
        <ele>175.1</ele>
        <time>2017-10-14T10:38:51Z</time>
      </trkpt>
      <trkpt lat="43.70803" lon="1.5584">
        <ele>172.21</ele>
        <time>2017-10-14T10:38:56Z</time>
      </trkpt>
      <trkpt lat="43.70793" lon="1.55845">
        <ele>170.77</ele>
        <time>2017-10-14T10:38:57Z</time>
      </trkpt>
      <trkpt lat="43.70784" lon="1.55851">
        <ele>169.81</ele>
        <time>2017-10-14T10:38:58Z</time>
      </trkpt>
      <trkpt lat="43.70775" lon="1.55859">
        <ele>168.85</ele>
        <time>2017-10-14T10:38:59Z</time>
      </trkpt>
      <trkpt lat="43.70766" lon="1.55866">
        <ele>168.85</ele>
        <time>2017-10-14T10:39:00Z</time>
      </trkpt>
      <trkpt lat="43.70712" lon="1.55914">
        <ele>165</ele>
        <time>2017-10-14T10:39:06Z</time>
      </trkpt>
      <trkpt lat="43.70657" lon="1.55963">
        <ele>162.12</ele>
        <time>2017-10-14T10:39:12Z</time>
      </trkpt>
      <trkpt lat="43.70612" lon="1.56003">
        <ele>159.24</ele>
        <time>2017-10-14T10:39:17Z</time>
      </trkpt>
      <trkpt lat="43.70586" lon="1.56025">
        <ele>157.79</ele>
        <time>2017-10-14T10:39:20Z</time>
      </trkpt>
      <trkpt lat="43.70545" lon="1.56059">
        <ele>153.95</ele>
        <time>2017-10-14T10:39:25Z</time>
      </trkpt>
      <trkpt lat="43.70481" lon="1.56081">
        <ele>151.06</ele>
        <time>2017-10-14T10:39:32Z</time>
      </trkpt>
      <trkpt lat="43.70407" lon="1.56081">
        <ele>148.18</ele>
        <time>2017-10-14T10:39:40Z</time>
      </trkpt>
      <trkpt lat="43.70324" lon="1.56086">
        <ele>144.82</ele>
        <time>2017-10-14T10:39:50Z</time>
      </trkpt>
      <trkpt lat="43.70241" lon="1.56096">
        <ele>142.89</ele>
        <time>2017-10-14T10:40:01Z</time>
      </trkpt>
      <trkpt lat="43.70144" lon="1.56102">
        <ele>141.93</ele>
        <time>2017-10-14T10:40:15Z</time>
      </trkpt>
      <trkpt lat="43.70042" lon="1.56109">
        <ele>140.01</ele>
        <time>2017-10-14T10:40:29Z</time>
      </trkpt>
      <trkpt lat="43.69949" lon="1.56114">
        <ele>138.09</ele>
        <time>2017-10-14T10:40:41Z</time>
      </trkpt>
      <trkpt lat="43.69882" lon="1.56111">
        <ele>137.13</ele>
        <time>2017-10-14T10:40:50Z</time>
      </trkpt>
      <trkpt lat="43.69816" lon="1.56078">
        <ele>136.16</ele>
        <time>2017-10-14T10:41:00Z</time>
      </trkpt>
      <trkpt lat="43.698" lon="1.56061">
        <ele>136.16</ele>
        <time>2017-10-14T10:41:03Z</time>
      </trkpt>
      <trkpt lat="43.69795" lon="1.56054">
        <ele>136.16</ele>
        <time>2017-10-14T10:41:04Z</time>
      </trkpt>
      <trkpt lat="43.6979" lon="1.56047">
        <ele>136.16</ele>
        <time>2017-10-14T10:41:05Z</time>
      </trkpt>
      <trkpt lat="43.69765" lon="1.56004">
        <ele>136.16</ele>
        <time>2017-10-14T10:41:11Z</time>
      </trkpt>
      <trkpt lat="43.69721" lon="1.5588">
        <ele>136.16</ele>
        <time>2017-10-14T10:41:26Z</time>
      </trkpt>
      <trkpt lat="43.69681" lon="1.55755">
        <ele>136.16</ele>
        <time>2017-10-14T10:41:41Z</time>
      </trkpt>
      <trkpt lat="43.69646" lon="1.55647">
        <ele>136.16</ele>
        <time>2017-10-14T10:41:54Z</time>
      </trkpt>
      <trkpt lat="43.69596" lon="1.55491">
        <ele>136.16</ele>
        <time>2017-10-14T10:42:13Z</time>
      </trkpt>
      <trkpt lat="43.69552" lon="1.55356">
        <ele>136.16</ele>
        <time>2017-10-14T10:42:29Z</time>
      </trkpt>
      <trkpt lat="43.69545" lon="1.55341">
        <ele>136.16</ele>
        <time>2017-10-14T10:42:31Z</time>
      </trkpt>
      <trkpt lat="43.69542" lon="1.55333">
        <ele>136.16</ele>
        <time>2017-10-14T10:42:32Z</time>
      </trkpt>
      <trkpt lat="43.69541" lon="1.55325">
        <ele>136.16</ele>
        <time>2017-10-14T10:42:33Z</time>
      </trkpt>
      <trkpt lat="43.6954" lon="1.55317">
        <ele>136.16</ele>
        <time>2017-10-14T10:42:34Z</time>
      </trkpt>
      <trkpt lat="43.69538" lon="1.55309">
        <ele>136.16</ele>
        <time>2017-10-14T10:42:35Z</time>
      </trkpt>
      <trkpt lat="43.69535" lon="1.55302">
        <ele>136.16</ele>
        <time>2017-10-14T10:42:36Z</time>
      </trkpt>
      <trkpt lat="43.69531" lon="1.55296">
        <ele>136.16</ele>
        <time>2017-10-14T10:42:37Z</time>
      </trkpt>
      <trkpt lat="43.69526" lon="1.55292">
        <ele>136.16</ele>
        <time>2017-10-14T10:42:38Z</time>
      </trkpt>
      <trkpt lat="43.6952" lon="1.55289">
        <ele>136.16</ele>
        <time>2017-10-14T10:42:39Z</time>
      </trkpt>
      <trkpt lat="43.69515" lon="1.55286">
        <ele>136.16</ele>
        <time>2017-10-14T10:42:40Z</time>
      </trkpt>
      <trkpt lat="43.69493" lon="1.55273">
        <ele>136.16</ele>
        <time>2017-10-14T10:42:44Z</time>
      </trkpt>
      <trkpt lat="43.69488" lon="1.55268">
        <ele>136.16</ele>
        <time>2017-10-14T10:42:45Z</time>
      </trkpt>
      <trkpt lat="43.69434" lon="1.55196">
        <ele>137.13</ele>
        <time>2017-10-14T10:42:59Z</time>
      </trkpt>
      <trkpt lat="43.69377" lon="1.55117">
        <ele>139.05</ele>
        <time>2017-10-14T10:43:17Z</time>
      </trkpt>
      <trkpt lat="43.6934" lon="1.55065">
        <ele>141.93</ele>
        <time>2017-10-14T10:43:32Z</time>
      </trkpt>
      <trkpt lat="43.69313" lon="1.55028">
        <ele>143.85</ele>
        <time>2017-10-14T10:43:44Z</time>
      </trkpt>
      <trkpt lat="43.69279" lon="1.54986">
        <ele>147.22</ele>
        <time>2017-10-14T10:43:58Z</time>
      </trkpt>
      <trkpt lat="43.69247" lon="1.54958">
        <ele>148.18</ele>
        <time>2017-10-14T10:44:09Z</time>
      </trkpt>
      <trkpt lat="43.69199" lon="1.54915">
        <ele>150.1</ele>
        <time>2017-10-14T10:44:25Z</time>
      </trkpt>
      <trkpt lat="43.6915" lon="1.54872">
        <ele>152.03</ele>
        <time>2017-10-14T10:44:42Z</time>
      </trkpt>
      <trkpt lat="43.69092" lon="1.54834">
        <ele>154.91</ele>
        <time>2017-10-14T10:45:01Z</time>
      </trkpt>
      <trkpt lat="43.69054" lon="1.54821">
        <ele>156.83</ele>
        <time>2017-10-14T10:45:13Z</time>
      </trkpt>
      <trkpt lat="43.68995" lon="1.54801">
        <ele>160.2</ele>
        <time>2017-10-14T10:45:32Z</time>
      </trkpt>
      <trkpt lat="43.68939" lon="1.54763">
        <ele>163.08</ele>
        <time>2017-10-14T10:45:51Z</time>
      </trkpt>
      <trkpt lat="43.68908" lon="1.54718">
        <ele>165.96</ele>
        <time>2017-10-14T10:46:05Z</time>
      </trkpt>
      <trkpt lat="43.68886" lon="1.54659">
        <ele>168.85</ele>
        <time>2017-10-14T10:46:20Z</time>
      </trkpt>
      <trkpt lat="43.68867" lon="1.54598">
        <ele>172.21</ele>
        <time>2017-10-14T10:46:35Z</time>
      </trkpt>
      <trkpt lat="43.6885" lon="1.54538">
        <ele>174.14</ele>
        <time>2017-10-14T10:46:49Z</time>
      </trkpt>
      <trkpt lat="43.6884" lon="1.54471">
        <ele>176.06</ele>
        <time>2017-10-14T10:47:04Z</time>
      </trkpt>
      <trkpt lat="43.68837" lon="1.54418">
        <ele>177.98</ele>
        <time>2017-10-14T10:47:16Z</time>
      </trkpt>
      <trkpt lat="43.68825" lon="1.54367">
        <ele>179.9</ele>
        <time>2017-10-14T10:47:28Z</time>
      </trkpt>
      <trkpt lat="43.68807" lon="1.54324">
        <ele>180.87</ele>
        <time>2017-10-14T10:47:38Z</time>
      </trkpt>
      <trkpt lat="43.68778" lon="1.54275">
        <ele>182.79</ele>
        <time>2017-10-14T10:47:51Z</time>
      </trkpt>
      <trkpt lat="43.68747" lon="1.54233">
        <ele>186.15</ele>
        <time>2017-10-14T10:48:04Z</time>
      </trkpt>
      <trkpt lat="43.68714" lon="1.54191">
        <ele>187.11</ele>
        <time>2017-10-14T10:48:17Z</time>
      </trkpt>
      <trkpt lat="43.68677" lon="1.54162">
        <ele>189.04</ele>
        <time>2017-10-14T10:48:29Z</time>
      </trkpt>
      <trkpt lat="43.68626" lon="1.54142">
        <ele>190.96</ele>
        <time>2017-10-14T10:48:42Z</time>
      </trkpt>
      <trkpt lat="43.68607" lon="1.54135">
        <ele>191.92</ele>
        <time>2017-10-14T10:48:47Z</time>
      </trkpt>
      <trkpt lat="43.68563" lon="1.5412">
        <ele>191.92</ele>
        <time>2017-10-14T10:48:58Z</time>
      </trkpt>
      <trkpt lat="43.6851" lon="1.54102">
        <ele>193.84</ele>
        <time>2017-10-14T10:49:10Z</time>
      </trkpt>
      <trkpt lat="43.68432" lon="1.54084">
        <ele>193.84</ele>
        <time>2017-10-14T10:49:25Z</time>
      </trkpt>
      <trkpt lat="43.68371" lon="1.54069">
        <ele>193.84</ele>
        <time>2017-10-14T10:49:36Z</time>
      </trkpt>
      <trkpt lat="43.68302" lon="1.54054">
        <ele>193.84</ele>
        <time>2017-10-14T10:49:48Z</time>
      </trkpt>
      <trkpt lat="43.68242" lon="1.54043">
        <ele>192.88</ele>
        <time>2017-10-14T10:49:59Z</time>
      </trkpt>
      <trkpt lat="43.68196" lon="1.54032">
        <ele>192.88</ele>
        <time>2017-10-14T10:50:08Z</time>
      </trkpt>
      <trkpt lat="43.68151" lon="1.54014">
        <ele>193.84</ele>
        <time>2017-10-14T10:50:18Z</time>
      </trkpt>
      <trkpt lat="43.68107" lon="1.5399">
        <ele>194.8</ele>
        <time>2017-10-14T10:50:29Z</time>
      </trkpt>
      <trkpt lat="43.68082" lon="1.5397">
        <ele>195.77</ele>
        <time>2017-10-14T10:50:37Z</time>
      </trkpt>
      <trkpt lat="43.68051" lon="1.53937">
        <ele>199.13</ele>
        <time>2017-10-14T10:50:48Z</time>
      </trkpt>
      <trkpt lat="43.68013" lon="1.53896">
        <ele>201.05</ele>
        <time>2017-10-14T10:51:02Z</time>
      </trkpt>
      <trkpt lat="43.67984" lon="1.53863">
        <ele>202.98</ele>
        <time>2017-10-14T10:51:13Z</time>
      </trkpt>
      <trkpt lat="43.67956" lon="1.53825">
        <ele>204.9</ele>
        <time>2017-10-14T10:51:25Z</time>
      </trkpt>
      <trkpt lat="43.67925" lon="1.53772">
        <ele>206.82</ele>
        <time>2017-10-14T10:51:39Z</time>
      </trkpt>
      <trkpt lat="43.67902" lon="1.53728">
        <ele>209.22</ele>
        <time>2017-10-14T10:51:49Z</time>
      </trkpt>
      <trkpt lat="43.67897" lon="1.53718">
        <ele>209.22</ele>
        <time>2017-10-14T10:51:51Z</time>
      </trkpt>
      <trkpt lat="43.67895" lon="1.53713">
        <ele>209.22</ele>
        <time>2017-10-14T10:51:52Z</time>
      </trkpt>
      <trkpt lat="43.67867" lon="1.5366">
        <ele>210.19</ele>
        <time>2017-10-14T10:52:03Z</time>
      </trkpt>
      <trkpt lat="43.67831" lon="1.53589">
        <ele>212.11</ele>
        <time>2017-10-14T10:52:18Z</time>
      </trkpt>
      <trkpt lat="43.67804" lon="1.53532">
        <ele>213.07</ele>
        <time>2017-10-14T10:52:30Z</time>
      </trkpt>
      <trkpt lat="43.6778" lon="1.53467">
        <ele>214.99</ele>
        <time>2017-10-14T10:52:43Z</time>
      </trkpt>
      <trkpt lat="43.67761" lon="1.53389">
        <ele>216.91</ele>
        <time>2017-10-14T10:52:57Z</time>
      </trkpt>
      <trkpt lat="43.67738" lon="1.53275">
        <ele>219.8</ele>
        <time>2017-10-14T10:53:18Z</time>
      </trkpt>
      <trkpt lat="43.67736" lon="1.53259">
        <ele>220.76</ele>
        <time>2017-10-14T10:53:21Z</time>
      </trkpt>
      <trkpt lat="43.67735" lon="1.53253">
        <ele>220.76</ele>
        <time>2017-10-14T10:53:22Z</time>
      </trkpt>
      <trkpt lat="43.67733" lon="1.53247">
        <ele>220.76</ele>
        <time>2017-10-14T10:53:23Z</time>
      </trkpt>
      <trkpt lat="43.67732" lon="1.53241">
        <ele>220.76</ele>
        <time>2017-10-14T10:53:24Z</time>
      </trkpt>
      <trkpt lat="43.67731" lon="1.53234">
        <ele>220.76</ele>
        <time>2017-10-14T10:53:25Z</time>
      </trkpt>
      <trkpt lat="43.67722" lon="1.53146">
        <ele>220.76</ele>
        <time>2017-10-14T10:53:35Z</time>
      </trkpt>
      <trkpt lat="43.67709" lon="1.53031">
        <ele>217.88</ele>
        <time>2017-10-14T10:53:46Z</time>
      </trkpt>
      <trkpt lat="43.67707" lon="1.53021">
        <ele>217.88</ele>
        <time>2017-10-14T10:53:47Z</time>
      </trkpt>
      <trkpt lat="43.67703" lon="1.53004">
        <ele>217.88</ele>
        <time>2017-10-14T10:53:49Z</time>
      </trkpt>
      <trkpt lat="43.677" lon="1.52996">
        <ele>217.88</ele>
        <time>2017-10-14T10:53:50Z</time>
      </trkpt>
      <trkpt lat="43.67661" lon="1.5294">
        <ele>217.88</ele>
        <time>2017-10-14T10:54:00Z</time>
      </trkpt>
      <trkpt lat="43.67608" lon="1.52898">
        <ele>218.84</ele>
        <time>2017-10-14T10:54:12Z</time>
      </trkpt>
      <trkpt lat="43.67599" lon="1.52889">
        <ele>218.84</ele>
        <time>2017-10-14T10:54:14Z</time>
      </trkpt>
      <trkpt lat="43.67589" lon="1.52878">
        <ele>218.84</ele>
        <time>2017-10-14T10:54:16Z</time>
      </trkpt>
      <trkpt lat="43.67584" lon="1.52871">
        <ele>218.84</ele>
        <time>2017-10-14T10:54:17Z</time>
      </trkpt>
      <trkpt lat="43.67521" lon="1.52786">
        <ele>216.91</ele>
        <time>2017-10-14T10:54:28Z</time>
      </trkpt>
      <trkpt lat="43.67477" lon="1.52721">
        <ele>214.03</ele>
        <time>2017-10-14T10:54:36Z</time>
      </trkpt>
      <trkpt lat="43.67403" lon="1.52589">
        <ele>212.11</ele>
        <time>2017-10-14T10:54:51Z</time>
      </trkpt>
      <trkpt lat="43.67339" lon="1.52445">
        <ele>209.22</ele>
        <time>2017-10-14T10:55:06Z</time>
      </trkpt>
      <trkpt lat="43.67307" lon="1.5237">
        <ele>207.78</ele>
        <time>2017-10-14T10:55:15Z</time>
      </trkpt>
      <trkpt lat="43.67273" lon="1.52288">
        <ele>207.78</ele>
        <time>2017-10-14T10:55:26Z</time>
      </trkpt>
      <trkpt lat="43.67246" lon="1.52225">
        <ele>210.19</ele>
        <time>2017-10-14T10:55:36Z</time>
      </trkpt>
      <trkpt lat="43.67212" lon="1.52143">
        <ele>211.15</ele>
        <time>2017-10-14T10:55:49Z</time>
      </trkpt>
      <trkpt lat="43.67201" lon="1.52118">
        <ele>211.15</ele>
        <time>2017-10-14T10:55:53Z</time>
      </trkpt>
      <trkpt lat="43.67171" lon="1.52051">
        <ele>212.11</ele>
        <time>2017-10-14T10:56:04Z</time>
      </trkpt>
      <trkpt lat="43.67146" lon="1.51991">
        <ele>214.03</ele>
        <time>2017-10-14T10:56:17Z</time>
      </trkpt>
      <trkpt lat="43.67128" lon="1.51949">
        <ele>216.91</ele>
        <time>2017-10-14T10:56:28Z</time>
      </trkpt>
      <trkpt lat="43.67102" lon="1.51889">
        <ele>219.8</ele>
        <time>2017-10-14T10:56:43Z</time>
      </trkpt>
      <trkpt lat="43.6707" lon="1.51819">
        <ele>223.16</ele>
        <time>2017-10-14T10:57:00Z</time>
      </trkpt>
      <trkpt lat="43.67036" lon="1.51747">
        <ele>224.12</ele>
        <time>2017-10-14T10:57:14Z</time>
      </trkpt>
      <trkpt lat="43.67025" lon="1.51714">
        <ele>224.12</ele>
        <time>2017-10-14T10:57:19Z</time>
      </trkpt>
      <trkpt lat="43.67024" lon="1.51707">
        <ele>224.12</ele>
        <time>2017-10-14T10:57:20Z</time>
      </trkpt>
      <trkpt lat="43.67022" lon="1.51691">
        <ele>224.12</ele>
        <time>2017-10-14T10:57:22Z</time>
      </trkpt>
      <trkpt lat="43.6702" lon="1.51684">
        <ele>224.12</ele>
        <time>2017-10-14T10:57:23Z</time>
      </trkpt>
      <trkpt lat="43.67017" lon="1.51678">
        <ele>224.12</ele>
        <time>2017-10-14T10:57:24Z</time>
      </trkpt>
      <trkpt lat="43.67012" lon="1.51673">
        <ele>224.12</ele>
        <time>2017-10-14T10:57:25Z</time>
      </trkpt>
      <trkpt lat="43.67007" lon="1.51669">
        <ele>224.12</ele>
        <time>2017-10-14T10:57:26Z</time>
      </trkpt>
      <trkpt lat="43.67002" lon="1.51665">
        <ele>224.12</ele>
        <time>2017-10-14T10:57:27Z</time>
      </trkpt>
      <trkpt lat="43.66998" lon="1.51659">
        <ele>224.12</ele>
        <time>2017-10-14T10:57:28Z</time>
      </trkpt>
      <trkpt lat="43.66994" lon="1.51653">
        <ele>224.12</ele>
        <time>2017-10-14T10:57:29Z</time>
      </trkpt>
      <trkpt lat="43.66957" lon="1.5156">
        <ele>223.16</ele>
        <time>2017-10-14T10:57:40Z</time>
      </trkpt>
      <trkpt lat="43.66916" lon="1.51445">
        <ele>219.8</ele>
        <time>2017-10-14T10:57:51Z</time>
      </trkpt>
      <trkpt lat="43.66877" lon="1.51334">
        <ele>216.91</ele>
        <time>2017-10-14T10:58:00Z</time>
      </trkpt>
      <trkpt lat="43.66846" lon="1.51246">
        <ele>213.07</ele>
        <time>2017-10-14T10:58:07Z</time>
      </trkpt>
      <trkpt lat="43.66814" lon="1.5115">
        <ele>209.22</ele>
        <time>2017-10-14T10:58:15Z</time>
      </trkpt>
      <trkpt lat="43.66805" lon="1.51123">
        <ele>207.78</ele>
        <time>2017-10-14T10:58:18Z</time>
      </trkpt>
      <trkpt lat="43.66781" lon="1.51057">
        <ele>204.9</ele>
        <time>2017-10-14T10:58:27Z</time>
      </trkpt>
      <trkpt lat="43.66742" lon="1.50943">
        <ele>202.01</ele>
        <time>2017-10-14T10:58:39Z</time>
      </trkpt>
      <trkpt lat="43.66705" lon="1.5084">
        <ele>200.09</ele>
        <time>2017-10-14T10:58:50Z</time>
      </trkpt>
      <trkpt lat="43.6669" lon="1.50808">
        <ele>200.09</ele>
        <time>2017-10-14T10:58:54Z</time>
      </trkpt>
      <trkpt lat="43.66641" lon="1.50727">
        <ele>200.09</ele>
        <time>2017-10-14T10:59:05Z</time>
      </trkpt>
      <trkpt lat="43.66595" lon="1.50646">
        <ele>200.09</ele>
        <time>2017-10-14T10:59:18Z</time>
      </trkpt>
      <trkpt lat="43.66558" lon="1.5058">
        <ele>201.05</ele>
        <time>2017-10-14T10:59:29Z</time>
      </trkpt>
      <trkpt lat="43.66539" lon="1.50548">
        <ele>201.05</ele>
        <time>2017-10-14T10:59:34Z</time>
      </trkpt>
      <trkpt lat="43.66503" lon="1.5048">
        <ele>200.09</ele>
        <time>2017-10-14T10:59:44Z</time>
      </trkpt>
      <trkpt lat="43.66499" lon="1.50465">
        <ele>200.09</ele>
        <time>2017-10-14T10:59:46Z</time>
      </trkpt>
      <trkpt lat="43.66496" lon="1.50459">
        <ele>200.09</ele>
        <time>2017-10-14T10:59:47Z</time>
      </trkpt>
      <trkpt lat="43.66491" lon="1.50455">
        <ele>200.09</ele>
        <time>2017-10-14T10:59:48Z</time>
      </trkpt>
      <trkpt lat="43.66483" lon="1.50444">
        <ele>200.09</ele>
        <time>2017-10-14T10:59:50Z</time>
      </trkpt>
      <trkpt lat="43.66479" lon="1.50438">
        <ele>200.09</ele>
        <time>2017-10-14T10:59:51Z</time>
      </trkpt>
      <trkpt lat="43.66433" lon="1.50354">
        <ele>201.05</ele>
        <time>2017-10-14T11:00:04Z</time>
      </trkpt>
      <trkpt lat="43.6643" lon="1.50347">
        <ele>201.05</ele>
        <time>2017-10-14T11:00:05Z</time>
      </trkpt>
      <trkpt lat="43.6641" lon="1.50248">
        <ele>201.05</ele>
        <time>2017-10-14T11:00:16Z</time>
      </trkpt>
      <trkpt lat="43.66392" lon="1.50138">
        <ele>199.13</ele>
        <time>2017-10-14T11:00:27Z</time>
      </trkpt>
      <trkpt lat="43.66373" lon="1.50016">
        <ele>198.17</ele>
        <time>2017-10-14T11:00:40Z</time>
      </trkpt>
      <trkpt lat="43.66349" lon="1.49916">
        <ele>198.17</ele>
        <time>2017-10-14T11:00:52Z</time>
      </trkpt>
      <trkpt lat="43.66329" lon="1.49851">
        <ele>198.17</ele>
        <time>2017-10-14T11:01:00Z</time>
      </trkpt>
      <trkpt lat="43.66326" lon="1.49843">
        <ele>198.17</ele>
        <time>2017-10-14T11:01:01Z</time>
      </trkpt>
      <trkpt lat="43.66287" lon="1.49726">
        <ele>199.13</ele>
        <time>2017-10-14T11:01:17Z</time>
      </trkpt>
      <trkpt lat="43.6625" lon="1.49626">
        <ele>199.13</ele>
        <time>2017-10-14T11:01:28Z</time>
      </trkpt>
      <trkpt lat="43.66217" lon="1.49534">
        <ele>195.77</ele>
        <time>2017-10-14T11:01:36Z</time>
      </trkpt>
      <trkpt lat="43.66191" lon="1.49459">
        <ele>192.88</ele>
        <time>2017-10-14T11:01:42Z</time>
      </trkpt>
      <trkpt lat="43.66172" lon="1.49405">
        <ele>190</ele>
        <time>2017-10-14T11:01:47Z</time>
      </trkpt>
      <trkpt lat="43.66151" lon="1.49343">
        <ele>187.11</ele>
        <time>2017-10-14T11:01:53Z</time>
      </trkpt>
      <trkpt lat="43.66148" lon="1.49333">
        <ele>187.11</ele>
        <time>2017-10-14T11:01:54Z</time>
      </trkpt>
      <trkpt lat="43.66144" lon="1.49323">
        <ele>186.15</ele>
        <time>2017-10-14T11:01:55Z</time>
      </trkpt>
      <trkpt lat="43.66101" lon="1.49199">
        <ele>184.23</ele>
        <time>2017-10-14T11:02:07Z</time>
      </trkpt>
      <trkpt lat="43.66064" lon="1.49093">
        <ele>180.87</ele>
        <time>2017-10-14T11:02:17Z</time>
      </trkpt>
      <trkpt lat="43.66036" lon="1.49015">
        <ele>179.9</ele>
        <time>2017-10-14T11:02:25Z</time>
      </trkpt>
      <trkpt lat="43.66007" lon="1.48931">
        <ele>179.9</ele>
        <time>2017-10-14T11:02:35Z</time>
      </trkpt>
      <trkpt lat="43.65962" lon="1.48794">
        <ele>180.87</ele>
        <time>2017-10-14T11:02:50Z</time>
      </trkpt>
      <trkpt lat="43.65937" lon="1.48722">
        <ele>178.94</ele>
        <time>2017-10-14T11:03:00Z</time>
      </trkpt>
      <trkpt lat="43.65934" lon="1.48707">
        <ele>177.98</ele>
        <time>2017-10-14T11:03:07Z</time>
      </trkpt>
      <trkpt lat="43.65932" lon="1.48703">
        <ele>177.98</ele>
        <time>2017-10-14T11:03:14Z</time>
      </trkpt>
      <trkpt lat="43.65931" lon="1.48701">
        <ele>177.98</ele>
        <time>2017-10-14T11:03:15Z</time>
      </trkpt>
      <trkpt lat="43.65916" lon="1.48666">
        <ele>177.98</ele>
        <time>2017-10-14T11:03:25Z</time>
      </trkpt>
      <trkpt lat="43.65885" lon="1.48583">
        <ele>177.02</ele>
        <time>2017-10-14T11:03:38Z</time>
      </trkpt>
      <trkpt lat="43.65858" lon="1.48495">
        <ele>176.06</ele>
        <time>2017-10-14T11:03:49Z</time>
      </trkpt>
      <trkpt lat="43.65842" lon="1.48399">
        <ele>175.1</ele>
        <time>2017-10-14T11:03:59Z</time>
      </trkpt>
      <trkpt lat="43.65835" lon="1.48343">
        <ele>174.14</ele>
        <time>2017-10-14T11:04:08Z</time>
      </trkpt>
      <trkpt lat="43.6583" lon="1.48303">
        <ele>170.77</ele>
        <time>2017-10-14T11:04:18Z</time>
      </trkpt>
      <trkpt lat="43.65818" lon="1.48233">
        <ele>169.81</ele>
        <time>2017-10-14T11:04:27Z</time>
      </trkpt>
      <trkpt lat="43.65791" lon="1.48138">
        <ele>166.93</ele>
        <time>2017-10-14T11:04:36Z</time>
      </trkpt>
      <trkpt lat="43.65777" lon="1.48106">
        <ele>165.96</ele>
        <time>2017-10-14T11:04:39Z</time>
      </trkpt>
      <trkpt lat="43.65738" lon="1.48038">
        <ele>162.12</ele>
        <time>2017-10-14T11:04:46Z</time>
      </trkpt>
      <trkpt lat="43.65705" lon="1.47991">
        <ele>159.24</ele>
        <time>2017-10-14T11:04:52Z</time>
      </trkpt>
      <trkpt lat="43.6567" lon="1.47945">
        <ele>155.87</ele>
        <time>2017-10-14T11:04:59Z</time>
      </trkpt>
      <trkpt lat="43.65587" lon="1.47837">
        <ele>153.95</ele>
        <time>2017-10-14T11:05:14Z</time>
      </trkpt>
      <trkpt lat="43.65575" lon="1.47817">
        <ele>152.99</ele>
        <time>2017-10-14T11:05:17Z</time>
      </trkpt>
      <trkpt lat="43.65537" lon="1.47756">
        <ele>152.03</ele>
        <time>2017-10-14T11:05:27Z</time>
      </trkpt>
      <trkpt lat="43.6553" lon="1.47745">
        <ele>152.03</ele>
        <time>2017-10-14T11:05:29Z</time>
      </trkpt>
      <trkpt lat="43.65529" lon="1.47739">
        <ele>151.06</ele>
        <time>2017-10-14T11:05:30Z</time>
      </trkpt>
      <trkpt lat="43.65528" lon="1.47734">
        <ele>151.06</ele>
        <time>2017-10-14T11:05:31Z</time>
      </trkpt>
      <trkpt lat="43.65529" lon="1.47729">
        <ele>151.06</ele>
        <time>2017-10-14T11:05:32Z</time>
      </trkpt>
      <trkpt lat="43.65528" lon="1.47725">
        <ele>151.06</ele>
        <time>2017-10-14T11:05:33Z</time>
      </trkpt>
      <trkpt lat="43.65526" lon="1.47722">
        <ele>151.06</ele>
        <time>2017-10-14T11:05:34Z</time>
      </trkpt>
      <trkpt lat="43.65523" lon="1.47719">
        <ele>151.06</ele>
        <time>2017-10-14T11:05:35Z</time>
      </trkpt>
      <trkpt lat="43.6552" lon="1.47719">
        <ele>151.06</ele>
        <time>2017-10-14T11:05:36Z</time>
      </trkpt>
      <trkpt lat="43.65517" lon="1.47719">
        <ele>151.06</ele>
        <time>2017-10-14T11:05:37Z</time>
      </trkpt>
      <trkpt lat="43.65515" lon="1.47719">
        <ele>151.06</ele>
        <time>2017-10-14T11:05:38Z</time>
      </trkpt>
      <trkpt lat="43.65512" lon="1.47718">
        <ele>151.06</ele>
        <time>2017-10-14T11:05:39Z</time>
      </trkpt>
      <trkpt lat="43.65509" lon="1.47717">
        <ele>151.06</ele>
        <time>2017-10-14T11:05:40Z</time>
      </trkpt>
      <trkpt lat="43.65504" lon="1.47716">
        <ele>151.06</ele>
        <time>2017-10-14T11:05:42Z</time>
      </trkpt>
      <trkpt lat="43.65503" lon="1.47717">
        <ele>151.06</ele>
        <time>2017-10-14T11:05:43Z</time>
      </trkpt>
      <trkpt lat="43.65499" lon="1.47719">
        <ele>151.06</ele>
        <time>2017-10-14T11:05:49Z</time>
      </trkpt>
      <trkpt lat="43.65481" lon="1.47699">
        <ele>151.06</ele>
        <time>2017-10-14T11:05:57Z</time>
      </trkpt>
      <trkpt lat="43.65464" lon="1.47666">
        <ele>151.06</ele>
        <time>2017-10-14T11:06:02Z</time>
      </trkpt>
      <trkpt lat="43.65461" lon="1.47658">
        <ele>151.06</ele>
        <time>2017-10-14T11:06:03Z</time>
      </trkpt>
      <trkpt lat="43.65458" lon="1.47649">
        <ele>151.06</ele>
        <time>2017-10-14T11:06:04Z</time>
      </trkpt>
      <trkpt lat="43.6543" lon="1.47552">
        <ele>149.14</ele>
        <time>2017-10-14T11:06:14Z</time>
      </trkpt>
      <trkpt lat="43.65425" lon="1.47543">
        <ele>148.18</ele>
        <time>2017-10-14T11:06:15Z</time>
      </trkpt>
      <trkpt lat="43.65372" lon="1.4748">
        <ele>144.82</ele>
        <time>2017-10-14T11:06:23Z</time>
      </trkpt>
      <trkpt lat="43.65307" lon="1.47426">
        <ele>140.97</ele>
        <time>2017-10-14T11:06:31Z</time>
      </trkpt>
      <trkpt lat="43.65259" lon="1.47386">
        <ele>138.09</ele>
        <time>2017-10-14T11:06:37Z</time>
      </trkpt>
      <trkpt lat="43.65251" lon="1.4738">
        <ele>138.09</ele>
        <time>2017-10-14T11:06:38Z</time>
      </trkpt>
      <trkpt lat="43.65208" lon="1.47346">
        <ele>135.2</ele>
        <time>2017-10-14T11:06:44Z</time>
      </trkpt>
      <trkpt lat="43.6515" lon="1.47301">
        <ele>132.8</ele>
        <time>2017-10-14T11:06:53Z</time>
      </trkpt>
      <trkpt lat="43.65087" lon="1.47251">
        <ele>132.8</ele>
        <time>2017-10-14T11:07:04Z</time>
      </trkpt>
      <trkpt lat="43.65023" lon="1.47201">
        <ele>131.84</ele>
        <time>2017-10-14T11:07:17Z</time>
      </trkpt>
      <trkpt lat="43.65002" lon="1.47177">
        <ele>131.84</ele>
        <time>2017-10-14T11:07:25Z</time>
      </trkpt>
      <trkpt lat="43.64979" lon="1.47153">
        <ele>132.8</ele>
        <time>2017-10-14T11:07:33Z</time>
      </trkpt>
      <trkpt lat="43.64975" lon="1.4715">
        <ele>132.8</ele>
        <time>2017-10-14T11:07:34Z</time>
      </trkpt>
      <trkpt lat="43.64971" lon="1.47148">
        <ele>132.8</ele>
        <time>2017-10-14T11:07:35Z</time>
      </trkpt>
      <trkpt lat="43.64962" lon="1.47145">
        <ele>132.8</ele>
        <time>2017-10-14T11:07:37Z</time>
      </trkpt>
      <trkpt lat="43.64957" lon="1.47142">
        <ele>132.8</ele>
        <time>2017-10-14T11:07:38Z</time>
      </trkpt>
      <trkpt lat="43.64922" lon="1.47122">
        <ele>132.8</ele>
        <time>2017-10-14T11:07:46Z</time>
      </trkpt>
      <trkpt lat="43.64918" lon="1.47118">
        <ele>132.8</ele>
        <time>2017-10-14T11:07:47Z</time>
      </trkpt>
      <trkpt lat="43.64914" lon="1.47116">
        <ele>132.8</ele>
        <time>2017-10-14T11:07:48Z</time>
      </trkpt>
      <trkpt lat="43.64909" lon="1.47115">
        <ele>132.8</ele>
        <time>2017-10-14T11:07:49Z</time>
      </trkpt>
      <trkpt lat="43.64904" lon="1.47114">
        <ele>132.8</ele>
        <time>2017-10-14T11:07:50Z</time>
      </trkpt>
      <trkpt lat="43.64899" lon="1.47113">
        <ele>132.8</ele>
        <time>2017-10-14T11:07:51Z</time>
      </trkpt>
      <trkpt lat="43.64895" lon="1.4711">
        <ele>132.8</ele>
        <time>2017-10-14T11:07:52Z</time>
      </trkpt>
      <trkpt lat="43.64815" lon="1.47074">
        <ele>132.8</ele>
        <time>2017-10-14T11:08:07Z</time>
      </trkpt>
      <trkpt lat="43.6476" lon="1.47043">
        <ele>132.8</ele>
        <time>2017-10-14T11:08:17Z</time>
      </trkpt>
      <trkpt lat="43.64756" lon="1.47039">
        <ele>132.8</ele>
        <time>2017-10-14T11:08:18Z</time>
      </trkpt>
      <trkpt lat="43.64748" lon="1.4703">
        <ele>132.8</ele>
        <time>2017-10-14T11:08:20Z</time>
      </trkpt>
      <trkpt lat="43.64727" lon="1.47004">
        <ele>132.8</ele>
        <time>2017-10-14T11:08:27Z</time>
      </trkpt>
      <trkpt lat="43.64723" lon="1.47003">
        <ele>132.8</ele>
        <time>2017-10-14T11:08:28Z</time>
      </trkpt>
      <trkpt lat="43.64719" lon="1.47002">
        <ele>132.8</ele>
        <time>2017-10-14T11:08:29Z</time>
      </trkpt>
      <trkpt lat="43.64714" lon="1.47002">
        <ele>132.8</ele>
        <time>2017-10-14T11:08:30Z</time>
      </trkpt>
      <trkpt lat="43.6471" lon="1.47003">
        <ele>132.8</ele>
        <time>2017-10-14T11:08:31Z</time>
      </trkpt>
      <trkpt lat="43.64701" lon="1.47002">
        <ele>132.8</ele>
        <time>2017-10-14T11:08:33Z</time>
      </trkpt>
      <trkpt lat="43.64696" lon="1.47001">
        <ele>132.8</ele>
        <time>2017-10-14T11:08:34Z</time>
      </trkpt>
      <trkpt lat="43.64692" lon="1.46999">
        <ele>132.8</ele>
        <time>2017-10-14T11:08:35Z</time>
      </trkpt>
      <trkpt lat="43.64687" lon="1.46996">
        <ele>132.8</ele>
        <time>2017-10-14T11:08:36Z</time>
      </trkpt>
      <trkpt lat="43.64683" lon="1.46993">
        <ele>132.8</ele>
        <time>2017-10-14T11:08:37Z</time>
      </trkpt>
      <trkpt lat="43.64678" lon="1.4699">
        <ele>132.8</ele>
        <time>2017-10-14T11:08:38Z</time>
      </trkpt>
      <trkpt lat="43.6462" lon="1.46956">
        <ele>132.8</ele>
        <time>2017-10-14T11:08:50Z</time>
      </trkpt>
      <trkpt lat="43.64572" lon="1.4693">
        <ele>133.76</ele>
        <time>2017-10-14T11:09:01Z</time>
      </trkpt>
      <trkpt lat="43.64552" lon="1.46907">
        <ele>133.76</ele>
        <time>2017-10-14T11:09:08Z</time>
      </trkpt>
      <trkpt lat="43.64543" lon="1.469">
        <ele>133.76</ele>
        <time>2017-10-14T11:09:14Z</time>
      </trkpt>
      <trkpt lat="43.64543" lon="1.46902">
        <ele>133.76</ele>
        <time>2017-10-14T11:09:32Z</time>
      </trkpt>
      <trkpt lat="43.64542" lon="1.46902">
        <ele>133.76</ele>
        <time>2017-10-14T11:09:33Z</time>
      </trkpt>
      <trkpt lat="43.6454" lon="1.46902">
        <ele>133.76</ele>
        <time>2017-10-14T11:09:34Z</time>
      </trkpt>
      <trkpt lat="43.64539" lon="1.46902">
        <ele>133.76</ele>
        <time>2017-10-14T11:09:35Z</time>
      </trkpt>
      <trkpt lat="43.64537" lon="1.46902">
        <ele>133.76</ele>
        <time>2017-10-14T11:09:36Z</time>
      </trkpt>
      <trkpt lat="43.64514" lon="1.46896">
        <ele>133.76</ele>
        <time>2017-10-14T11:09:45Z</time>
      </trkpt>
      <trkpt lat="43.64505" lon="1.46891">
        <ele>133.76</ele>
        <time>2017-10-14T11:09:47Z</time>
      </trkpt>
      <trkpt lat="43.64437" lon="1.46852">
        <ele>133.76</ele>
        <time>2017-10-14T11:10:01Z</time>
      </trkpt>
      <trkpt lat="43.6437" lon="1.4681">
        <ele>133.76</ele>
        <time>2017-10-14T11:10:15Z</time>
      </trkpt>
      <trkpt lat="43.64346" lon="1.46794">
        <ele>133.76</ele>
        <time>2017-10-14T11:10:20Z</time>
      </trkpt>
      <trkpt lat="43.64338" lon="1.46787">
        <ele>133.76</ele>
        <time>2017-10-14T11:10:22Z</time>
      </trkpt>
      <trkpt lat="43.64334" lon="1.46783">
        <ele>133.76</ele>
        <time>2017-10-14T11:10:23Z</time>
      </trkpt>
      <trkpt lat="43.6433" lon="1.4678">
        <ele>133.76</ele>
        <time>2017-10-14T11:10:24Z</time>
      </trkpt>
      <trkpt lat="43.64319" lon="1.46772">
        <ele>133.76</ele>
        <time>2017-10-14T11:10:27Z</time>
      </trkpt>
      <trkpt lat="43.64316" lon="1.4677">
        <ele>133.76</ele>
        <time>2017-10-14T11:10:28Z</time>
      </trkpt>
      <trkpt lat="43.64312" lon="1.46768">
        <ele>133.76</ele>
        <time>2017-10-14T11:10:29Z</time>
      </trkpt>
      <trkpt lat="43.64308" lon="1.46767">
        <ele>133.76</ele>
        <time>2017-10-14T11:10:30Z</time>
      </trkpt>
      <trkpt lat="43.64304" lon="1.46766">
        <ele>133.76</ele>
        <time>2017-10-14T11:10:31Z</time>
      </trkpt>
      <trkpt lat="43.643" lon="1.46764">
        <ele>133.76</ele>
        <time>2017-10-14T11:10:32Z</time>
      </trkpt>
      <trkpt lat="43.64297" lon="1.46762">
        <ele>133.76</ele>
        <time>2017-10-14T11:10:33Z</time>
      </trkpt>
      <trkpt lat="43.64294" lon="1.46759">
        <ele>133.76</ele>
        <time>2017-10-14T11:10:34Z</time>
      </trkpt>
      <trkpt lat="43.64272" lon="1.46745">
        <ele>133.76</ele>
        <time>2017-10-14T11:10:41Z</time>
      </trkpt>
      <trkpt lat="43.64218" lon="1.46712">
        <ele>133.76</ele>
        <time>2017-10-14T11:10:55Z</time>
      </trkpt>
      <trkpt lat="43.64216" lon="1.46713">
        <ele>133.76</ele>
        <time>2017-10-14T11:10:56Z</time>
      </trkpt>
      <trkpt lat="43.64214" lon="1.46714">
        <ele>133.76</ele>
        <time>2017-10-14T11:10:57Z</time>
      </trkpt>
      <trkpt lat="43.6421" lon="1.46724">
        <ele>135.2</ele>
        <time>2017-10-14T11:11:05Z</time>
      </trkpt>
      <trkpt lat="43.64208" lon="1.46731">
        <ele>135.2</ele>
        <time>2017-10-14T11:11:08Z</time>
      </trkpt>
      <trkpt lat="43.64206" lon="1.46733">
        <ele>135.2</ele>
        <time>2017-10-14T11:11:09Z</time>
      </trkpt>
      <trkpt lat="43.64204" lon="1.46733">
        <ele>135.2</ele>
        <time>2017-10-14T11:11:10Z</time>
      </trkpt>
      <trkpt lat="43.64201" lon="1.46734">
        <ele>135.2</ele>
        <time>2017-10-14T11:11:11Z</time>
      </trkpt>
      <trkpt lat="43.64198" lon="1.46736">
        <ele>135.2</ele>
        <time>2017-10-14T11:11:12Z</time>
      </trkpt>
      <trkpt lat="43.64196" lon="1.46738">
        <ele>135.2</ele>
        <time>2017-10-14T11:11:13Z</time>
      </trkpt>
      <trkpt lat="43.64193" lon="1.46741">
        <ele>135.2</ele>
        <time>2017-10-14T11:11:14Z</time>
      </trkpt>
      <trkpt lat="43.64187" lon="1.46746">
        <ele>135.2</ele>
        <time>2017-10-14T11:11:17Z</time>
      </trkpt>
      <trkpt lat="43.64177" lon="1.46742">
        <ele>135.2</ele>
        <time>2017-10-14T11:11:22Z</time>
      </trkpt>
      <trkpt lat="43.64174" lon="1.46742">
        <ele>135.2</ele>
        <time>2017-10-14T11:11:23Z</time>
      </trkpt>
      <trkpt lat="43.64171" lon="1.46743">
        <ele>135.2</ele>
        <time>2017-10-14T11:11:24Z</time>
      </trkpt>
      <trkpt lat="43.64169" lon="1.46746">
        <ele>135.2</ele>
        <time>2017-10-14T11:11:25Z</time>
      </trkpt>
      <trkpt lat="43.64168" lon="1.4675">
        <ele>135.2</ele>
        <time>2017-10-14T11:11:26Z</time>
      </trkpt>
      <trkpt lat="43.64166" lon="1.46754">
        <ele>135.2</ele>
        <time>2017-10-14T11:11:27Z</time>
      </trkpt>
      <trkpt lat="43.64164" lon="1.46757">
        <ele>135.2</ele>
        <time>2017-10-14T11:11:28Z</time>
      </trkpt>
      <trkpt lat="43.64161" lon="1.46761">
        <ele>135.2</ele>
        <time>2017-10-14T11:11:29Z</time>
      </trkpt>
      <trkpt lat="43.64158" lon="1.46766">
        <ele>135.2</ele>
        <time>2017-10-14T11:11:30Z</time>
      </trkpt>
      <trkpt lat="43.64156" lon="1.46771">
        <ele>135.2</ele>
        <time>2017-10-14T11:11:31Z</time>
      </trkpt>
      <trkpt lat="43.64134" lon="1.46812">
        <ele>133.76</ele>
        <time>2017-10-14T11:11:38Z</time>
      </trkpt>
      <trkpt lat="43.64131" lon="1.46818">
        <ele>133.76</ele>
        <time>2017-10-14T11:11:39Z</time>
      </trkpt>
      <trkpt lat="43.64123" lon="1.46829">
        <ele>133.76</ele>
        <time>2017-10-14T11:11:41Z</time>
      </trkpt>
      <trkpt lat="43.64112" lon="1.46845">
        <ele>133.76</ele>
        <time>2017-10-14T11:11:44Z</time>
      </trkpt>
      <trkpt lat="43.64064" lon="1.46909">
        <ele>133.76</ele>
        <time>2017-10-14T11:11:56Z</time>
      </trkpt>
      <trkpt lat="43.64" lon="1.4697">
        <ele>133.76</ele>
        <time>2017-10-14T11:12:10Z</time>
      </trkpt>
      <trkpt lat="43.63939" lon="1.47023">
        <ele>132.8</ele>
        <time>2017-10-14T11:12:23Z</time>
      </trkpt>
      <trkpt lat="43.63873" lon="1.47089">
        <ele>133.76</ele>
        <time>2017-10-14T11:12:38Z</time>
      </trkpt>
      <trkpt lat="43.63869" lon="1.47093">
        <ele>133.76</ele>
        <time>2017-10-14T11:12:39Z</time>
      </trkpt>
      <trkpt lat="43.63866" lon="1.47098">
        <ele>133.76</ele>
        <time>2017-10-14T11:12:40Z</time>
      </trkpt>
      <trkpt lat="43.63858" lon="1.47108">
        <ele>133.76</ele>
        <time>2017-10-14T11:12:42Z</time>
      </trkpt>
      <trkpt lat="43.63847" lon="1.4712">
        <ele>133.76</ele>
        <time>2017-10-14T11:12:45Z</time>
      </trkpt>
      <trkpt lat="43.63844" lon="1.47124">
        <ele>133.76</ele>
        <time>2017-10-14T11:12:46Z</time>
      </trkpt>
      <trkpt lat="43.63839" lon="1.47133">
        <ele>133.76</ele>
        <time>2017-10-14T11:12:48Z</time>
      </trkpt>
      <trkpt lat="43.63809" lon="1.47181">
        <ele>133.76</ele>
        <time>2017-10-14T11:12:57Z</time>
      </trkpt>
      <trkpt lat="43.63796" lon="1.47195">
        <ele>133.76</ele>
        <time>2017-10-14T11:13:00Z</time>
      </trkpt>
      <trkpt lat="43.63721" lon="1.47235">
        <ele>135.2</ele>
        <time>2017-10-14T11:13:14Z</time>
      </trkpt>
      <trkpt lat="43.63604" lon="1.47267">
        <ele>133.76</ele>
        <time>2017-10-14T11:13:34Z</time>
      </trkpt>
      <trkpt lat="43.63559" lon="1.4728">
        <ele>133.76</ele>
        <time>2017-10-14T11:13:44Z</time>
      </trkpt>
      <trkpt lat="43.63524" lon="1.47301">
        <ele>133.76</ele>
        <time>2017-10-14T11:13:53Z</time>
      </trkpt>
      <trkpt lat="43.63481" lon="1.47326">
        <ele>135.2</ele>
        <time>2017-10-14T11:14:04Z</time>
      </trkpt>
      <trkpt lat="43.6344" lon="1.4735">
        <ele>138.09</ele>
        <time>2017-10-14T11:14:16Z</time>
      </trkpt>
      <trkpt lat="43.63394" lon="1.47374">
        <ele>140.97</ele>
        <time>2017-10-14T11:14:29Z</time>
      </trkpt>
      <trkpt lat="43.63344" lon="1.47402">
        <ele>141.93</ele>
        <time>2017-10-14T11:14:43Z</time>
      </trkpt>
      <trkpt lat="43.63294" lon="1.47428">
        <ele>142.89</ele>
        <time>2017-10-14T11:14:54Z</time>
      </trkpt>
      <trkpt lat="43.63232" lon="1.47461">
        <ele>141.93</ele>
        <time>2017-10-14T11:15:05Z</time>
      </trkpt>
      <trkpt lat="43.63148" lon="1.47505">
        <ele>139.05</ele>
        <time>2017-10-14T11:15:18Z</time>
      </trkpt>
      <trkpt lat="43.63104" lon="1.47525">
        <ele>137.13</ele>
        <time>2017-10-14T11:15:25Z</time>
      </trkpt>
      <trkpt lat="43.63099" lon="1.47527">
        <ele>137.13</ele>
        <time>2017-10-14T11:15:26Z</time>
      </trkpt>
      <trkpt lat="43.63094" lon="1.47529">
        <ele>137.13</ele>
        <time>2017-10-14T11:15:27Z</time>
      </trkpt>
      <trkpt lat="43.63076" lon="1.47542">
        <ele>137.13</ele>
        <time>2017-10-14T11:15:31Z</time>
      </trkpt>
      <trkpt lat="43.63072" lon="1.47546">
        <ele>137.13</ele>
        <time>2017-10-14T11:15:32Z</time>
      </trkpt>
      <trkpt lat="43.63011" lon="1.47586">
        <ele>137.13</ele>
        <time>2017-10-14T11:15:44Z</time>
      </trkpt>
      <trkpt lat="43.62993" lon="1.47595">
        <ele>136.16</ele>
        <time>2017-10-14T11:15:48Z</time>
      </trkpt>
      <trkpt lat="43.6299" lon="1.47597">
        <ele>136.16</ele>
        <time>2017-10-14T11:15:49Z</time>
      </trkpt>
      <trkpt lat="43.62987" lon="1.476">
        <ele>136.16</ele>
        <time>2017-10-14T11:15:50Z</time>
      </trkpt>
      <trkpt lat="43.62983" lon="1.47602">
        <ele>136.16</ele>
        <time>2017-10-14T11:15:51Z</time>
      </trkpt>
      <trkpt lat="43.6298" lon="1.47603">
        <ele>136.16</ele>
        <time>2017-10-14T11:15:52Z</time>
      </trkpt>
      <trkpt lat="43.62967" lon="1.47609">
        <ele>136.16</ele>
        <time>2017-10-14T11:15:56Z</time>
      </trkpt>
      <trkpt lat="43.62918" lon="1.47623">
        <ele>136.16</ele>
        <time>2017-10-14T11:16:06Z</time>
      </trkpt>
      <trkpt lat="43.62913" lon="1.47623">
        <ele>136.16</ele>
        <time>2017-10-14T11:16:07Z</time>
      </trkpt>
      <trkpt lat="43.62905" lon="1.47624">
        <ele>136.16</ele>
        <time>2017-10-14T11:16:09Z</time>
      </trkpt>
      <trkpt lat="43.62902" lon="1.47625">
        <ele>136.16</ele>
        <time>2017-10-14T11:16:10Z</time>
      </trkpt>
      <trkpt lat="43.62899" lon="1.47628">
        <ele>136.16</ele>
        <time>2017-10-14T11:16:11Z</time>
      </trkpt>
      <trkpt lat="43.62897" lon="1.47631">
        <ele>136.16</ele>
        <time>2017-10-14T11:16:12Z</time>
      </trkpt>
      <trkpt lat="43.62893" lon="1.47633">
        <ele>136.16</ele>
        <time>2017-10-14T11:16:13Z</time>
      </trkpt>
      <trkpt lat="43.6289" lon="1.47634">
        <ele>136.16</ele>
        <time>2017-10-14T11:16:14Z</time>
      </trkpt>
      <trkpt lat="43.62886" lon="1.47635">
        <ele>136.16</ele>
        <time>2017-10-14T11:16:15Z</time>
      </trkpt>
      <trkpt lat="43.62882" lon="1.47638">
        <ele>136.16</ele>
        <time>2017-10-14T11:16:16Z</time>
      </trkpt>
      <trkpt lat="43.62875" lon="1.47645">
        <ele>136.16</ele>
        <time>2017-10-14T11:16:18Z</time>
      </trkpt>
      <trkpt lat="43.6287" lon="1.47647">
        <ele>136.16</ele>
        <time>2017-10-14T11:16:19Z</time>
      </trkpt>
      <trkpt lat="43.62866" lon="1.4765">
        <ele>136.16</ele>
        <time>2017-10-14T11:16:20Z</time>
      </trkpt>
      <trkpt lat="43.62809" lon="1.47678">
        <ele>136.16</ele>
        <time>2017-10-14T11:16:31Z</time>
      </trkpt>
      <trkpt lat="43.62733" lon="1.47706">
        <ele>135.2</ele>
        <time>2017-10-14T11:16:44Z</time>
      </trkpt>
      <trkpt lat="43.62717" lon="1.4771">
        <ele>135.2</ele>
        <time>2017-10-14T11:16:47Z</time>
      </trkpt>
      <trkpt lat="43.62712" lon="1.47709">
        <ele>135.2</ele>
        <time>2017-10-14T11:16:48Z</time>
      </trkpt>
      <trkpt lat="43.62687" lon="1.47707">
        <ele>135.2</ele>
        <time>2017-10-14T11:16:56Z</time>
      </trkpt>
      <trkpt lat="43.62687" lon="1.47709">
        <ele>135.2</ele>
        <time>2017-10-14T11:17:15Z</time>
      </trkpt>
      <trkpt lat="43.62686" lon="1.47711">
        <ele>135.2</ele>
        <time>2017-10-14T11:17:16Z</time>
      </trkpt>
      <trkpt lat="43.62685" lon="1.47712">
        <ele>135.2</ele>
        <time>2017-10-14T11:17:17Z</time>
      </trkpt>
      <trkpt lat="43.62684" lon="1.47714">
        <ele>135.2</ele>
        <time>2017-10-14T11:17:18Z</time>
      </trkpt>
      <trkpt lat="43.62683" lon="1.47715">
        <ele>135.2</ele>
        <time>2017-10-14T11:17:19Z</time>
      </trkpt>
      <trkpt lat="43.62681" lon="1.47717">
        <ele>135.2</ele>
        <time>2017-10-14T11:17:20Z</time>
      </trkpt>
      <trkpt lat="43.62679" lon="1.47719">
        <ele>135.2</ele>
        <time>2017-10-14T11:17:21Z</time>
      </trkpt>
      <trkpt lat="43.62677" lon="1.47721">
        <ele>135.2</ele>
        <time>2017-10-14T11:17:22Z</time>
      </trkpt>
      <trkpt lat="43.62668" lon="1.47752">
        <ele>136.16</ele>
        <time>2017-10-14T11:17:30Z</time>
      </trkpt>
      <trkpt lat="43.62667" lon="1.47771">
        <ele>136.16</ele>
        <time>2017-10-14T11:17:35Z</time>
      </trkpt>
      <trkpt lat="43.62659" lon="1.47774">
        <ele>136.16</ele>
        <time>2017-10-14T11:17:38Z</time>
      </trkpt>
      <trkpt lat="43.62655" lon="1.47775">
        <ele>136.16</ele>
        <time>2017-10-14T11:17:39Z</time>
      </trkpt>
      <trkpt lat="43.62651" lon="1.47775">
        <ele>136.16</ele>
        <time>2017-10-14T11:17:40Z</time>
      </trkpt>
      <trkpt lat="43.62624" lon="1.47794">
        <ele>137.13</ele>
        <time>2017-10-14T11:17:49Z</time>
      </trkpt>
      <trkpt lat="43.62612" lon="1.47822">
        <ele>136.16</ele>
        <time>2017-10-14T11:17:54Z</time>
      </trkpt>
      <trkpt lat="43.62581" lon="1.47859">
        <ele>135.2</ele>
        <time>2017-10-14T11:18:04Z</time>
      </trkpt>
      <trkpt lat="43.62571" lon="1.47867">
        <ele>133.76</ele>
        <time>2017-10-14T11:18:07Z</time>
      </trkpt>
      <trkpt lat="43.62568" lon="1.47872">
        <ele>133.76</ele>
        <time>2017-10-14T11:18:08Z</time>
      </trkpt>
      <trkpt lat="43.62566" lon="1.47877">
        <ele>133.76</ele>
        <time>2017-10-14T11:18:09Z</time>
      </trkpt>
      <trkpt lat="43.62555" lon="1.47898">
        <ele>133.76</ele>
        <time>2017-10-14T11:18:14Z</time>
      </trkpt>
      <trkpt lat="43.62551" lon="1.47901">
        <ele>133.76</ele>
        <time>2017-10-14T11:18:15Z</time>
      </trkpt>
      <trkpt lat="43.62513" lon="1.47922">
        <ele>133.76</ele>
        <time>2017-10-14T11:18:24Z</time>
      </trkpt>
      <trkpt lat="43.62491" lon="1.47933">
        <ele>133.76</ele>
        <time>2017-10-14T11:18:29Z</time>
      </trkpt>
      <trkpt lat="43.62423" lon="1.47955">
        <ele>133.76</ele>
        <time>2017-10-14T11:18:42Z</time>
      </trkpt>
      <trkpt lat="43.62346" lon="1.47979">
        <ele>133.76</ele>
        <time>2017-10-14T11:18:56Z</time>
      </trkpt>
      <trkpt lat="43.62327" lon="1.47987">
        <ele>133.76</ele>
        <time>2017-10-14T11:19:00Z</time>
      </trkpt>
      <trkpt lat="43.62324" lon="1.47989">
        <ele>133.76</ele>
        <time>2017-10-14T11:19:01Z</time>
      </trkpt>
      <trkpt lat="43.6232" lon="1.47992">
        <ele>133.76</ele>
        <time>2017-10-14T11:19:02Z</time>
      </trkpt>
      <trkpt lat="43.62313" lon="1.47999">
        <ele>133.76</ele>
        <time>2017-10-14T11:19:04Z</time>
      </trkpt>
      <trkpt lat="43.62245" lon="1.48041">
        <ele>133.76</ele>
        <time>2017-10-14T11:19:17Z</time>
      </trkpt>
      <trkpt lat="43.62176" lon="1.48074">
        <ele>133.76</ele>
        <time>2017-10-14T11:19:29Z</time>
      </trkpt>
      <trkpt lat="43.62116" lon="1.48097">
        <ele>133.76</ele>
        <time>2017-10-14T11:19:39Z</time>
      </trkpt>
      <trkpt lat="43.62051" lon="1.48119">
        <ele>133.76</ele>
        <time>2017-10-14T11:19:50Z</time>
      </trkpt>
      <trkpt lat="43.62021" lon="1.48129">
        <ele>133.76</ele>
        <time>2017-10-14T11:19:55Z</time>
      </trkpt>
      <trkpt lat="43.61969" lon="1.48147">
        <ele>133.76</ele>
        <time>2017-10-14T11:20:04Z</time>
      </trkpt>
      <trkpt lat="43.61915" lon="1.48163">
        <ele>133.76</ele>
        <time>2017-10-14T11:20:13Z</time>
      </trkpt>
      <trkpt lat="43.61857" lon="1.48181">
        <ele>133.76</ele>
        <time>2017-10-14T11:20:23Z</time>
      </trkpt>
      <trkpt lat="43.61845" lon="1.48183">
        <ele>133.76</ele>
        <time>2017-10-14T11:20:25Z</time>
      </trkpt>
      <trkpt lat="43.61787" lon="1.482">
        <ele>133.76</ele>
        <time>2017-10-14T11:20:35Z</time>
      </trkpt>
      <trkpt lat="43.61737" lon="1.48219">
        <ele>133.76</ele>
        <time>2017-10-14T11:20:44Z</time>
      </trkpt>
      <trkpt lat="43.61683" lon="1.48234">
        <ele>133.76</ele>
        <time>2017-10-14T11:20:53Z</time>
      </trkpt>
      <trkpt lat="43.61604" lon="1.48256">
        <ele>133.76</ele>
        <time>2017-10-14T11:21:06Z</time>
      </trkpt>
      <trkpt lat="43.61527" lon="1.4828">
        <ele>133.76</ele>
        <time>2017-10-14T11:21:19Z</time>
      </trkpt>
      <trkpt lat="43.61421" lon="1.48313">
        <ele>133.76</ele>
        <time>2017-10-14T11:21:37Z</time>
      </trkpt>
      <trkpt lat="43.61333" lon="1.4834">
        <ele>133.76</ele>
        <time>2017-10-14T11:21:52Z</time>
      </trkpt>
      <trkpt lat="43.61244" lon="1.48368">
        <ele>133.76</ele>
        <time>2017-10-14T11:22:08Z</time>
      </trkpt>
      <trkpt lat="43.6115" lon="1.48397">
        <ele>133.76</ele>
        <time>2017-10-14T11:22:24Z</time>
      </trkpt>
      <trkpt lat="43.61077" lon="1.48409">
        <ele>133.76</ele>
        <time>2017-10-14T11:22:36Z</time>
      </trkpt>
      <trkpt lat="43.60991" lon="1.48412">
        <ele>133.76</ele>
        <time>2017-10-14T11:22:50Z</time>
      </trkpt>
      <trkpt lat="43.60935" lon="1.48408">
        <ele>135.2</ele>
        <time>2017-10-14T11:22:59Z</time>
      </trkpt>
      <trkpt lat="43.60857" lon="1.48397">
        <ele>135.2</ele>
        <time>2017-10-14T11:23:12Z</time>
      </trkpt>
      <trkpt lat="43.60822" lon="1.48394">
        <ele>135.2</ele>
        <time>2017-10-14T11:23:18Z</time>
      </trkpt>
      <trkpt lat="43.60756" lon="1.48393">
        <ele>136.16</ele>
        <time>2017-10-14T11:23:30Z</time>
      </trkpt>
      <trkpt lat="43.60715" lon="1.48393">
        <ele>136.16</ele>
        <time>2017-10-14T11:23:38Z</time>
      </trkpt>
      <trkpt lat="43.60711" lon="1.48393">
        <ele>136.16</ele>
        <time>2017-10-14T11:23:39Z</time>
      </trkpt>
      <trkpt lat="43.60707" lon="1.48394">
        <ele>136.16</ele>
        <time>2017-10-14T11:23:40Z</time>
      </trkpt>
      <trkpt lat="43.60704" lon="1.48395">
        <ele>136.16</ele>
        <time>2017-10-14T11:23:41Z</time>
      </trkpt>
      <trkpt lat="43.60701" lon="1.48396">
        <ele>136.16</ele>
        <time>2017-10-14T11:23:42Z</time>
      </trkpt>
      <trkpt lat="43.60698" lon="1.48397">
        <ele>136.16</ele>
        <time>2017-10-14T11:23:43Z</time>
      </trkpt>
      <trkpt lat="43.60694" lon="1.48397">
        <ele>136.16</ele>
        <time>2017-10-14T11:23:44Z</time>
      </trkpt>
      <trkpt lat="43.60674" lon="1.48399">
        <ele>137.13</ele>
        <time>2017-10-14T11:23:50Z</time>
      </trkpt>
      <trkpt lat="43.6067" lon="1.48397">
        <ele>137.13</ele>
        <time>2017-10-14T11:23:51Z</time>
      </trkpt>
      <trkpt lat="43.60666" lon="1.48395">
        <ele>137.13</ele>
        <time>2017-10-14T11:23:52Z</time>
      </trkpt>
      <trkpt lat="43.60659" lon="1.48389">
        <ele>137.13</ele>
        <time>2017-10-14T11:23:54Z</time>
      </trkpt>
      <trkpt lat="43.60626" lon="1.48404">
        <ele>137.13</ele>
        <time>2017-10-14T11:24:01Z</time>
      </trkpt>
      <trkpt lat="43.60565" lon="1.48434">
        <ele>137.13</ele>
        <time>2017-10-14T11:24:12Z</time>
      </trkpt>
      <trkpt lat="43.6054" lon="1.48439">
        <ele>137.13</ele>
        <time>2017-10-14T11:24:16Z</time>
      </trkpt>
      <trkpt lat="43.60534" lon="1.48439">
        <ele>137.13</ele>
        <time>2017-10-14T11:24:17Z</time>
      </trkpt>
      <trkpt lat="43.60469" lon="1.48446">
        <ele>137.13</ele>
        <time>2017-10-14T11:24:28Z</time>
      </trkpt>
      <trkpt lat="43.60464" lon="1.48449">
        <ele>137.13</ele>
        <time>2017-10-14T11:24:29Z</time>
      </trkpt>
      <trkpt lat="43.60402" lon="1.48491">
        <ele>137.13</ele>
        <time>2017-10-14T11:24:40Z</time>
      </trkpt>
      <trkpt lat="43.60379" lon="1.48508">
        <ele>137.13</ele>
        <time>2017-10-14T11:24:44Z</time>
      </trkpt>
      <trkpt lat="43.60374" lon="1.48514">
        <ele>137.13</ele>
        <time>2017-10-14T11:24:45Z</time>
      </trkpt>
      <trkpt lat="43.60308" lon="1.48571">
        <ele>136.16</ele>
        <time>2017-10-14T11:24:57Z</time>
      </trkpt>
      <trkpt lat="43.6024" lon="1.48637">
        <ele>136.16</ele>
        <time>2017-10-14T11:25:10Z</time>
      </trkpt>
      <trkpt lat="43.60188" lon="1.48697">
        <ele>136.16</ele>
        <time>2017-10-14T11:25:21Z</time>
      </trkpt>
      <trkpt lat="43.60135" lon="1.48769">
        <ele>136.16</ele>
        <time>2017-10-14T11:25:33Z</time>
      </trkpt>
      <trkpt lat="43.60084" lon="1.48844">
        <ele>136.16</ele>
        <time>2017-10-14T11:25:45Z</time>
      </trkpt>
      <trkpt lat="43.60026" lon="1.48938">
        <ele>136.16</ele>
        <time>2017-10-14T11:26:00Z</time>
      </trkpt>
      <trkpt lat="43.59982" lon="1.49002">
        <ele>136.16</ele>
        <time>2017-10-14T11:26:11Z</time>
      </trkpt>
      <trkpt lat="43.59933" lon="1.49048">
        <ele>136.16</ele>
        <time>2017-10-14T11:26:21Z</time>
      </trkpt>
      <trkpt lat="43.59927" lon="1.49051">
        <ele>136.16</ele>
        <time>2017-10-14T11:26:22Z</time>
      </trkpt>
      <trkpt lat="43.59922" lon="1.49054">
        <ele>136.16</ele>
        <time>2017-10-14T11:26:23Z</time>
      </trkpt>
      <trkpt lat="43.59915" lon="1.49055">
        <ele>136.16</ele>
        <time>2017-10-14T11:26:24Z</time>
      </trkpt>
      <trkpt lat="43.59909" lon="1.49057">
        <ele>136.16</ele>
        <time>2017-10-14T11:26:25Z</time>
      </trkpt>
      <trkpt lat="43.59857" lon="1.49072">
        <ele>136.16</ele>
        <time>2017-10-14T11:26:34Z</time>
      </trkpt>
      <trkpt lat="43.59824" lon="1.49091">
        <ele>137.13</ele>
        <time>2017-10-14T11:26:40Z</time>
      </trkpt>
      <trkpt lat="43.59818" lon="1.49094">
        <ele>137.13</ele>
        <time>2017-10-14T11:26:41Z</time>
      </trkpt>
      <trkpt lat="43.5975" lon="1.49118">
        <ele>137.13</ele>
        <time>2017-10-14T11:26:53Z</time>
      </trkpt>
      <trkpt lat="43.59686" lon="1.49135">
        <ele>138.09</ele>
        <time>2017-10-14T11:27:04Z</time>
      </trkpt>
      <trkpt lat="43.59663" lon="1.49141">
        <ele>138.09</ele>
        <time>2017-10-14T11:27:08Z</time>
      </trkpt>
      <trkpt lat="43.59657" lon="1.49143">
        <ele>138.09</ele>
        <time>2017-10-14T11:27:09Z</time>
      </trkpt>
      <trkpt lat="43.59591" lon="1.49165">
        <ele>138.09</ele>
        <time>2017-10-14T11:27:21Z</time>
      </trkpt>
      <trkpt lat="43.59525" lon="1.49184">
        <ele>139.05</ele>
        <time>2017-10-14T11:27:33Z</time>
      </trkpt>
      <trkpt lat="43.59509" lon="1.49189">
        <ele>140.01</ele>
        <time>2017-10-14T11:27:36Z</time>
      </trkpt>
      <trkpt lat="43.59504" lon="1.49188">
        <ele>140.01</ele>
        <time>2017-10-14T11:27:37Z</time>
      </trkpt>
      <trkpt lat="43.59499" lon="1.49186">
        <ele>140.01</ele>
        <time>2017-10-14T11:27:38Z</time>
      </trkpt>
      <trkpt lat="43.59479" lon="1.49173">
        <ele>140.01</ele>
        <time>2017-10-14T11:27:42Z</time>
      </trkpt>
      <trkpt lat="43.59473" lon="1.49169">
        <ele>140.01</ele>
        <time>2017-10-14T11:27:43Z</time>
      </trkpt>
      <trkpt lat="43.59468" lon="1.49164">
        <ele>140.01</ele>
        <time>2017-10-14T11:27:44Z</time>
      </trkpt>
      <trkpt lat="43.59444" lon="1.4914">
        <ele>140.01</ele>
        <time>2017-10-14T11:27:49Z</time>
      </trkpt>
      <trkpt lat="43.59439" lon="1.49138">
        <ele>140.01</ele>
        <time>2017-10-14T11:27:50Z</time>
      </trkpt>
      <trkpt lat="43.59433" lon="1.49138">
        <ele>140.01</ele>
        <time>2017-10-14T11:27:51Z</time>
      </trkpt>
      <trkpt lat="43.59428" lon="1.49139">
        <ele>140.01</ele>
        <time>2017-10-14T11:27:52Z</time>
      </trkpt>
      <trkpt lat="43.59423" lon="1.49141">
        <ele>140.01</ele>
        <time>2017-10-14T11:27:53Z</time>
      </trkpt>
      <trkpt lat="43.59418" lon="1.49143">
        <ele>140.01</ele>
        <time>2017-10-14T11:27:54Z</time>
      </trkpt>
      <trkpt lat="43.5939" lon="1.49153">
        <ele>139.05</ele>
        <time>2017-10-14T11:28:02Z</time>
      </trkpt>
      <trkpt lat="43.5939" lon="1.49156">
        <ele>139.05</ele>
        <time>2017-10-14T11:28:03Z</time>
      </trkpt>
      <trkpt lat="43.59385" lon="1.49163">
        <ele>140.01</ele>
        <time>2017-10-14T11:28:08Z</time>
      </trkpt>
      <trkpt lat="43.59384" lon="1.49163">
        <ele>140.01</ele>
        <time>2017-10-14T11:28:09Z</time>
      </trkpt>
      <trkpt lat="43.59382" lon="1.49162">
        <ele>140.01</ele>
        <time>2017-10-14T11:28:10Z</time>
      </trkpt>
      <trkpt lat="43.59377" lon="1.49161">
        <ele>141.93</ele>
        <time>2017-10-14T11:28:18Z</time>
      </trkpt>
      <trkpt lat="43.59375" lon="1.4916">
        <ele>142.89</ele>
        <time>2017-10-14T11:28:19Z</time>
      </trkpt>
      <trkpt lat="43.59373" lon="1.49159">
        <ele>142.89</ele>
        <time>2017-10-14T11:28:20Z</time>
      </trkpt>
      <trkpt lat="43.59372" lon="1.49156">
        <ele>142.89</ele>
        <time>2017-10-14T11:28:21Z</time>
      </trkpt>
      <trkpt lat="43.5937" lon="1.49152">
        <ele>142.89</ele>
        <time>2017-10-14T11:28:22Z</time>
      </trkpt>
      <trkpt lat="43.59369" lon="1.49148">
        <ele>142.89</ele>
        <time>2017-10-14T11:28:23Z</time>
      </trkpt>
      <trkpt lat="43.59348" lon="1.49122">
        <ele>141.93</ele>
        <time>2017-10-14T11:28:30Z</time>
      </trkpt>
      <trkpt lat="43.59289" lon="1.49072">
        <ele>140.97</ele>
        <time>2017-10-14T11:28:42Z</time>
      </trkpt>
      <trkpt lat="43.59257" lon="1.49055">
        <ele>140.01</ele>
        <time>2017-10-14T11:28:48Z</time>
      </trkpt>
      <trkpt lat="43.59211" lon="1.49042">
        <ele>140.01</ele>
        <time>2017-10-14T11:28:56Z</time>
      </trkpt>
      <trkpt lat="43.59207" lon="1.49038">
        <ele>140.01</ele>
        <time>2017-10-14T11:28:57Z</time>
      </trkpt>
      <trkpt lat="43.59203" lon="1.49033">
        <ele>140.01</ele>
        <time>2017-10-14T11:28:58Z</time>
      </trkpt>
      <trkpt lat="43.592" lon="1.49027">
        <ele>140.01</ele>
        <time>2017-10-14T11:28:59Z</time>
      </trkpt>
      <trkpt lat="43.59198" lon="1.49021">
        <ele>140.01</ele>
        <time>2017-10-14T11:29:00Z</time>
      </trkpt>
      <trkpt lat="43.59195" lon="1.49016">
        <ele>140.01</ele>
        <time>2017-10-14T11:29:01Z</time>
      </trkpt>
      <trkpt lat="43.59191" lon="1.49012">
        <ele>140.01</ele>
        <time>2017-10-14T11:29:02Z</time>
      </trkpt>
      <trkpt lat="43.59188" lon="1.49008">
        <ele>140.01</ele>
        <time>2017-10-14T11:29:03Z</time>
      </trkpt>
      <trkpt lat="43.59184" lon="1.49005">
        <ele>140.01</ele>
        <time>2017-10-14T11:29:04Z</time>
      </trkpt>
      <trkpt lat="43.5918" lon="1.49002">
        <ele>140.01</ele>
        <time>2017-10-14T11:29:05Z</time>
      </trkpt>
      <trkpt lat="43.59176" lon="1.49">
        <ele>140.01</ele>
        <time>2017-10-14T11:29:06Z</time>
      </trkpt>
      <trkpt lat="43.59172" lon="1.48997">
        <ele>140.97</ele>
        <time>2017-10-14T11:29:07Z</time>
      </trkpt>
      <trkpt lat="43.59131" lon="1.48969">
        <ele>141.93</ele>
        <time>2017-10-14T11:29:17Z</time>
      </trkpt>
      <trkpt lat="43.59127" lon="1.48966">
        <ele>141.93</ele>
        <time>2017-10-14T11:29:18Z</time>
      </trkpt>
      <trkpt lat="43.59123" lon="1.48962">
        <ele>142.89</ele>
        <time>2017-10-14T11:29:19Z</time>
      </trkpt>
      <trkpt lat="43.5912" lon="1.48958">
        <ele>142.89</ele>
        <time>2017-10-14T11:29:20Z</time>
      </trkpt>
      <trkpt lat="43.59116" lon="1.48954">
        <ele>142.89</ele>
        <time>2017-10-14T11:29:21Z</time>
      </trkpt>
      <trkpt lat="43.59083" lon="1.48918">
        <ele>142.89</ele>
        <time>2017-10-14T11:29:30Z</time>
      </trkpt>
      <trkpt lat="43.59079" lon="1.48916">
        <ele>142.89</ele>
        <time>2017-10-14T11:29:31Z</time>
      </trkpt>
      <trkpt lat="43.59075" lon="1.48915">
        <ele>142.89</ele>
        <time>2017-10-14T11:29:32Z</time>
      </trkpt>
      <trkpt lat="43.5907" lon="1.48915">
        <ele>142.89</ele>
        <time>2017-10-14T11:29:33Z</time>
      </trkpt>
      <trkpt lat="43.59066" lon="1.48916">
        <ele>142.89</ele>
        <time>2017-10-14T11:29:34Z</time>
      </trkpt>
      <trkpt lat="43.59056" lon="1.48917">
        <ele>142.89</ele>
        <time>2017-10-14T11:29:36Z</time>
      </trkpt>
      <trkpt lat="43.59052" lon="1.48918">
        <ele>142.89</ele>
        <time>2017-10-14T11:29:37Z</time>
      </trkpt>
      <trkpt lat="43.59019" lon="1.48919">
        <ele>143.85</ele>
        <time>2017-10-14T11:29:46Z</time>
      </trkpt>
      <trkpt lat="43.58998" lon="1.48906">
        <ele>143.85</ele>
        <time>2017-10-14T11:29:52Z</time>
      </trkpt>
      <trkpt lat="43.58995" lon="1.48907">
        <ele>144.82</ele>
        <time>2017-10-14T11:29:53Z</time>
      </trkpt>
      <trkpt lat="43.58992" lon="1.48908">
        <ele>144.82</ele>
        <time>2017-10-14T11:29:54Z</time>
      </trkpt>
      <trkpt lat="43.58986" lon="1.48907">
        <ele>144.82</ele>
        <time>2017-10-14T11:29:56Z</time>
      </trkpt>
      <trkpt lat="43.58984" lon="1.48903">
        <ele>144.82</ele>
        <time>2017-10-14T11:29:57Z</time>
      </trkpt>
      <trkpt lat="43.58983" lon="1.48898">
        <ele>144.82</ele>
        <time>2017-10-14T11:29:58Z</time>
      </trkpt>
      <trkpt lat="43.58983" lon="1.48893">
        <ele>144.82</ele>
        <time>2017-10-14T11:29:59Z</time>
      </trkpt>
      <trkpt lat="43.58977" lon="1.48878">
        <ele>145.78</ele>
        <time>2017-10-14T11:30:02Z</time>
      </trkpt>
      <trkpt lat="43.58976" lon="1.48873">
        <ele>145.78</ele>
        <time>2017-10-14T11:30:03Z</time>
      </trkpt>
      <trkpt lat="43.58955" lon="1.48808">
        <ele>147.22</ele>
        <time>2017-10-14T11:30:17Z</time>
      </trkpt>
      <trkpt lat="43.58937" lon="1.48758">
        <ele>150.1</ele>
        <time>2017-10-14T11:30:31Z</time>
      </trkpt>
      <trkpt lat="43.58927" lon="1.48715">
        <ele>152.99</ele>
        <time>2017-10-14T11:30:43Z</time>
      </trkpt>
      <trkpt lat="43.58927" lon="1.48682">
        <ele>154.91</ele>
        <time>2017-10-14T11:30:52Z</time>
      </trkpt>
      <trkpt lat="43.58935" lon="1.48645">
        <ele>156.83</ele>
        <time>2017-10-14T11:31:01Z</time>
      </trkpt>
      <trkpt lat="43.58943" lon="1.48617">
        <ele>156.83</ele>
        <time>2017-10-14T11:31:08Z</time>
      </trkpt>
      <trkpt lat="43.58954" lon="1.48577">
        <ele>159.24</ele>
        <time>2017-10-14T11:31:16Z</time>
      </trkpt>
      <trkpt lat="43.58959" lon="1.48532">
        <ele>160.2</ele>
        <time>2017-10-14T11:31:25Z</time>
      </trkpt>
      <trkpt lat="43.58954" lon="1.48495">
        <ele>161.16</ele>
        <time>2017-10-14T11:31:33Z</time>
      </trkpt>
      <trkpt lat="43.58963" lon="1.4845">
        <ele>163.08</ele>
        <time>2017-10-14T11:31:43Z</time>
      </trkpt>
      <trkpt lat="43.58978" lon="1.48408">
        <ele>164.04</ele>
        <time>2017-10-14T11:31:53Z</time>
      </trkpt>
      <trkpt lat="43.58982" lon="1.48407">
        <ele>164.04</ele>
        <time>2017-10-14T11:31:54Z</time>
      </trkpt>
      <trkpt lat="43.58994" lon="1.48403">
        <ele>165</ele>
        <time>2017-10-14T11:31:58Z</time>
      </trkpt>
      <trkpt lat="43.59007" lon="1.4837">
        <ele>165</ele>
        <time>2017-10-14T11:32:06Z</time>
      </trkpt>
      <trkpt lat="43.5903" lon="1.48296">
        <ele>166.93</ele>
        <time>2017-10-14T11:32:20Z</time>
      </trkpt>
      <trkpt lat="43.59044" lon="1.48253">
        <ele>166.93</ele>
        <time>2017-10-14T11:32:30Z</time>
      </trkpt>
      <trkpt lat="43.59061" lon="1.48196">
        <ele>167.89</ele>
        <time>2017-10-14T11:32:41Z</time>
      </trkpt>
      <trkpt lat="43.59079" lon="1.48131">
        <ele>172.21</ele>
        <time>2017-10-14T11:32:54Z</time>
      </trkpt>
      <trkpt lat="43.59099" lon="1.48069">
        <ele>174.14</ele>
        <time>2017-10-14T11:33:07Z</time>
      </trkpt>
      <trkpt lat="43.59118" lon="1.48002">
        <ele>176.06</ele>
        <time>2017-10-14T11:33:21Z</time>
      </trkpt>
      <trkpt lat="43.59117" lon="1.47999">
        <ele>176.06</ele>
        <time>2017-10-14T11:33:22Z</time>
      </trkpt>
      <trkpt lat="43.59115" lon="1.47996">
        <ele>176.06</ele>
        <time>2017-10-14T11:33:23Z</time>
      </trkpt>
      <trkpt lat="43.59113" lon="1.47995">
        <ele>176.06</ele>
        <time>2017-10-14T11:33:24Z</time>
      </trkpt>
      <trkpt lat="43.59111" lon="1.47993">
        <ele>176.06</ele>
        <time>2017-10-14T11:33:25Z</time>
      </trkpt>
      <trkpt lat="43.59108" lon="1.47992">
        <ele>177.02</ele>
        <time>2017-10-14T11:33:26Z</time>
      </trkpt>
      <trkpt lat="43.59093" lon="1.47983">
        <ele>177.98</ele>
        <time>2017-10-14T11:33:31Z</time>
      </trkpt>
      <trkpt lat="43.59092" lon="1.4798">
        <ele>177.98</ele>
        <time>2017-10-14T11:33:32Z</time>
      </trkpt>
      <trkpt lat="43.59092" lon="1.47976">
        <ele>177.98</ele>
        <time>2017-10-14T11:33:33Z</time>
      </trkpt>
      <trkpt lat="43.59093" lon="1.47972">
        <ele>177.98</ele>
        <time>2017-10-14T11:33:34Z</time>
      </trkpt>
      <trkpt lat="43.59113" lon="1.47905">
        <ele>178.94</ele>
        <time>2017-10-14T11:33:50Z</time>
      </trkpt>
      <trkpt lat="43.59114" lon="1.47894">
        <ele>179.9</ele>
        <time>2017-10-14T11:33:53Z</time>
      </trkpt>
      <trkpt lat="43.59112" lon="1.4789">
        <ele>179.9</ele>
        <time>2017-10-14T11:33:54Z</time>
      </trkpt>
      <trkpt lat="43.5911" lon="1.47888">
        <ele>179.9</ele>
        <time>2017-10-14T11:33:55Z</time>
      </trkpt>
      <trkpt lat="43.59107" lon="1.47886">
        <ele>180.87</ele>
        <time>2017-10-14T11:33:56Z</time>
      </trkpt>
      <trkpt lat="43.59103" lon="1.47885">
        <ele>180.87</ele>
        <time>2017-10-14T11:33:57Z</time>
      </trkpt>
      <trkpt lat="43.591" lon="1.47885">
        <ele>180.87</ele>
        <time>2017-10-14T11:33:58Z</time>
      </trkpt>
      <trkpt lat="43.59096" lon="1.47885">
        <ele>180.87</ele>
        <time>2017-10-14T11:33:59Z</time>
      </trkpt>
      <trkpt lat="43.59044" lon="1.47884">
        <ele>181.83</ele>
        <time>2017-10-14T11:34:12Z</time>
      </trkpt>
      <trkpt lat="43.58977" lon="1.47881">
        <ele>184.23</ele>
        <time>2017-10-14T11:34:29Z</time>
      </trkpt>
      <trkpt lat="43.58945" lon="1.47858">
        <ele>186.15</ele>
        <time>2017-10-14T11:34:39Z</time>
      </trkpt>
      <trkpt lat="43.58939" lon="1.47858">
        <ele>186.15</ele>
        <time>2017-10-14T11:34:41Z</time>
      </trkpt>
      <trkpt lat="43.58936" lon="1.47861">
        <ele>187.11</ele>
        <time>2017-10-14T11:34:42Z</time>
      </trkpt>
      <trkpt lat="43.58935" lon="1.47866">
        <ele>187.11</ele>
        <time>2017-10-14T11:34:43Z</time>
      </trkpt>
      <trkpt lat="43.58935" lon="1.47871">
        <ele>187.11</ele>
        <time>2017-10-14T11:34:44Z</time>
      </trkpt>
      <trkpt lat="43.58937" lon="1.47876">
        <ele>187.11</ele>
        <time>2017-10-14T11:34:45Z</time>
      </trkpt>
      <trkpt lat="43.5894" lon="1.4788">
        <ele>187.11</ele>
        <time>2017-10-14T11:34:46Z</time>
      </trkpt>
      <trkpt lat="43.58943" lon="1.47882">
        <ele>187.11</ele>
        <time>2017-10-14T11:34:47Z</time>
      </trkpt>
      <trkpt lat="43.58947" lon="1.47883">
        <ele>187.11</ele>
        <time>2017-10-14T11:34:48Z</time>
      </trkpt>
      <trkpt lat="43.58952" lon="1.47883">
        <ele>187.11</ele>
        <time>2017-10-14T11:34:49Z</time>
      </trkpt>
      <trkpt lat="43.58957" lon="1.47883">
        <ele>187.11</ele>
        <time>2017-10-14T11:34:50Z</time>
      </trkpt>
      <trkpt lat="43.58962" lon="1.47884">
        <ele>187.11</ele>
        <time>2017-10-14T11:34:51Z</time>
      </trkpt>
      <trkpt lat="43.58968" lon="1.47886">
        <ele>187.11</ele>
        <time>2017-10-14T11:34:52Z</time>
      </trkpt>
      <trkpt lat="43.59031" lon="1.47892">
        <ele>186.15</ele>
        <time>2017-10-14T11:35:02Z</time>
      </trkpt>
      <trkpt lat="43.59109" lon="1.47898">
        <ele>182.79</ele>
        <time>2017-10-14T11:35:13Z</time>
      </trkpt>
      <trkpt lat="43.59113" lon="1.479">
        <ele>182.79</ele>
        <time>2017-10-14T11:35:14Z</time>
      </trkpt>
      <trkpt lat="43.59114" lon="1.47903">
        <ele>182.79</ele>
        <time>2017-10-14T11:35:15Z</time>
      </trkpt>
      <trkpt lat="43.59113" lon="1.47906">
        <ele>182.79</ele>
        <time>2017-10-14T11:35:16Z</time>
      </trkpt>
      <trkpt lat="43.59113" lon="1.4791">
        <ele>182.79</ele>
        <time>2017-10-14T11:35:17Z</time>
      </trkpt>
      <trkpt lat="43.59112" lon="1.47913">
        <ele>182.79</ele>
        <time>2017-10-14T11:35:18Z</time>
      </trkpt>
      <trkpt lat="43.5911" lon="1.47918">
        <ele>181.83</ele>
        <time>2017-10-14T11:35:19Z</time>
      </trkpt>
      <trkpt lat="43.59108" lon="1.47929">
        <ele>181.83</ele>
        <time>2017-10-14T11:35:21Z</time>
      </trkpt>
      <trkpt lat="43.59107" lon="1.47935">
        <ele>181.83</ele>
        <time>2017-10-14T11:35:22Z</time>
      </trkpt>
      <trkpt lat="43.59105" lon="1.47942">
        <ele>180.87</ele>
        <time>2017-10-14T11:35:23Z</time>
      </trkpt>
      <trkpt lat="43.59101" lon="1.47962">
        <ele>180.87</ele>
        <time>2017-10-14T11:35:26Z</time>
      </trkpt>
      <trkpt lat="43.59087" lon="1.47984">
        <ele>179.9</ele>
        <time>2017-10-14T11:35:32Z</time>
      </trkpt>
      <trkpt lat="43.59082" lon="1.47986">
        <ele>179.9</ele>
        <time>2017-10-14T11:35:33Z</time>
      </trkpt>
      <trkpt lat="43.59078" lon="1.47988">
        <ele>178.94</ele>
        <time>2017-10-14T11:35:34Z</time>
      </trkpt>
      <trkpt lat="43.59073" lon="1.4799">
        <ele>178.94</ele>
        <time>2017-10-14T11:35:35Z</time>
      </trkpt>
      <trkpt lat="43.59025" lon="1.48015">
        <ele>177.98</ele>
        <time>2017-10-14T11:35:45Z</time>
      </trkpt>
      <trkpt lat="43.59009" lon="1.48023">
        <ele>177.98</ele>
        <time>2017-10-14T11:35:48Z</time>
      </trkpt>
      <trkpt lat="43.59004" lon="1.48024">
        <ele>177.98</ele>
        <time>2017-10-14T11:35:49Z</time>
      </trkpt>
      <trkpt lat="43.58999" lon="1.48023">
        <ele>177.98</ele>
        <time>2017-10-14T11:35:50Z</time>
      </trkpt>
      <trkpt lat="43.58995" lon="1.48021">
        <ele>177.98</ele>
        <time>2017-10-14T11:35:51Z</time>
      </trkpt>
      <trkpt lat="43.5899" lon="1.48019">
        <ele>177.98</ele>
        <time>2017-10-14T11:35:52Z</time>
      </trkpt>
      <trkpt lat="43.5896" lon="1.47999">
        <ele>177.98</ele>
        <time>2017-10-14T11:36:00Z</time>
      </trkpt>
      <trkpt lat="43.58958" lon="1.47995">
        <ele>177.98</ele>
        <time>2017-10-14T11:36:01Z</time>
      </trkpt>
      <trkpt lat="43.58957" lon="1.4799">
        <ele>177.98</ele>
        <time>2017-10-14T11:36:02Z</time>
      </trkpt>
      <trkpt lat="43.58951" lon="1.47941">
        <ele>180.87</ele>
        <time>2017-10-14T11:36:13Z</time>
      </trkpt>
      <trkpt lat="43.58949" lon="1.47887">
        <ele>184.23</ele>
        <time>2017-10-14T11:36:26Z</time>
      </trkpt>
      <trkpt lat="43.58952" lon="1.47854">
        <ele>186.15</ele>
        <time>2017-10-14T11:36:34Z</time>
      </trkpt>
      <trkpt lat="43.58935" lon="1.47811">
        <ele>188.08</ele>
        <time>2017-10-14T11:36:45Z</time>
      </trkpt>
      <trkpt lat="43.58926" lon="1.47784">
        <ele>188.08</ele>
        <time>2017-10-14T11:36:53Z</time>
      </trkpt>
      <trkpt lat="43.58942" lon="1.47752">
        <ele>190</ele>
        <time>2017-10-14T11:37:02Z</time>
      </trkpt>
      <trkpt lat="43.58952" lon="1.47718">
        <ele>190</ele>
        <time>2017-10-14T11:37:10Z</time>
      </trkpt>
      <trkpt lat="43.58961" lon="1.47695">
        <ele>188.08</ele>
        <time>2017-10-14T11:37:20Z</time>
      </trkpt>
      <trkpt lat="43.58961" lon="1.47695">
        <ele>187.11</ele>
        <time>2017-10-14T11:37:24Z</time>
      </trkpt>
    </trkseg>
  </trk>
</gpx>